     2              OBSERVATION DATA    GPS                 RINEX VERSION / TYPE
teqc 2000Feb29 simon 20000627 20:41:35UTC                   PGM / RUN BY / DATE
                                                            COMMENT
L2: 1 -> 1; 150 -> 5; 250 -> 9                              COMMENT
L2: 1 -> 1; 150 -> 5; 250 -> 9                              COMMENT
L2: 1 -> 1; 150 -> 5; 250 -> 9                              COMMENT
L2: 1 -> 1; 150 -> 5; 250 -> 9                              COMMENT
L2: 1 -> 1; 150 -> 5; 250 -> 9                              COMMENT
Original Marker Name: GS09                                  COMMENT
Campaign Name: China Lake April 2000                        COMMENT
4-Character Station Name: GS09                              COMMENT
6-Character Antenna Code: ASHGD3                            COMMENT
Vertical Measurement Point: TGP                             COMMENT
Vertical Offset to Rinex Ref. Point: 0.0640                 COMMENT
Radial Measurement Point: RRP                               COMMENT
Radial Offset to Rinex Ref. Point: 0.0000                   COMMENT
Antenna Height from Field Measurement: 0.2260 m             COMMENT
Additional Antenna Identification Info.:                    COMMENT
The Whopper (700718AB)                                      COMMENT
Original XYZ: -2443937.7600 -4616420.6400 3648444.4500      COMMENT
New XYZ position is based on association with SCEC monument COMMENT
E1F2Q3B6+0011. Position of that monument is believed to be  COMMENT
valid to within 1 m horizontally; vertical accuracy         COMMENT
should be no worse than 3-times this value.                 COMMENT
                                                            COMMENT
Revised Rinex header created by UCSD GPS archive for        COMMENT
GSAC on 14-Sep-2001 (2001:257) 19:28:05 GMT                 COMMENT
For assistance contact dagnew@ucsd.edu                      COMMENT
or anderson@python.ucsd.edu                                 COMMENT
                                                            COMMENT
GO09 BLM CA065-94-66                                        MARKER NAME
gs09                                                        MARKER NUMBER
JDT US NATIONAL IMAGERY MAPPING AGENCY                      OBSERVER / AGENCY
456 ASHTECH Z-XII3 1I23                                     REC # / TYPE / VERS
443 ASHTECH GEODETIC III                                    ANT # / TYPE
 -2444121.1492 -4616592.8130  3648770.5806                  APPROX POSITION XYZ
        0.1620        0.0000        0.0000                  ANTENNA: DELTA H/E/N
     1     1     0                                          WAVELENGTH FACT L1/2
     7    L1    L2    C1    P1    P2    S1    S2            # / TYPES OF OBSERV
    30                                                      INTERVAL
  2000     4    18    14    22    0.000000                  TIME OF FIRST OBS
  2000     4    18    21    30   60.000000                  TIME OF LAST OBS
                                                            END OF HEADER
 00  4 18 14 22  0.0000000  0  7G 2G27G 8G26G 7G11G13
    -15141.28357                  18333026.625                    18333034.271
       240.000         206.000
      2234.67657                  17994070.194                    17994078.559
       238.000         207.000
      -364.39957                  17446490.364                    17446497.440
       242.000         211.000
    -18309.72756                  20041300.921                    20041309.877
       228.000         181.000
    -22162.34456                  18643697.752
       237.000         169.000
     -2982.71053                  20933050.525
       217.000          74.000
     17262.35654                  19205889.742
       240.000         113.000
 00  4 18 14 22 30.0000000  0  7G 2G27G 8G26G 7G11G13
    -70660.17149    -47870.09547  18325034.081    18325032.782    18325041.524
       240.000         206.000
     15876.51149     10462.29847  17996079.847    17996079.092    17996087.418
       239.000         206.000
     -1674.84149      -950.16547  17446347.745    17446346.907    17446354.692
       242.000         212.000
   -128530.19849    -84172.42346  20025216.520    20025216.434    20025225.546
       228.000         183.000
   -101937.75145                  18624264.400
       239.000         134.000
    -41884.04546                  20923551.698                    20923560.456
       221.000         171.000
     54777.39243                  19215088.782
       240.000          91.000
 00  4 18 14 22 59.9990000  0  7G 2G27G 8G26G 7G11G13
   -112573.76349    -80530.07447  21015190.345    21015189.134    21015197.776
       240.000         206.000
     26757.89049     18941.22047  20696282.353    20696281.900    20696290.244
       239.000         206.000
     -2096.50849     -1278.80047  20144399.190    20144398.811    20144406.679
       242.000         212.000
   -212660.60449   -149728.60446  22707339.047    22707338.863    22707348.106
       228.000         183.000
   -181415.00045                  21303030.553
       238.000         160.000
   -118114.60249    -80507.14546  23612250.444    23612250.052    23612260.644
       219.000         170.000
     92226.31045                  21922464.387
       239.000         162.000
 00  4 18 14 23 29.9990000  0  7G 2G27G 8G26G 7G11G13
   -154447.92359   -113159.32557  21007221.494    21007220.796    21007229.372
       239.000         206.000
     37949.06659     27661.53857  20698412.333    20698411.593    20698419.914
       239.000         207.000
     -2214.65059     -1370.92857  20144376.328    20144376.344    20144384.246
       242.000         212.000
   -296454.42359   -215022.51356  22691393.673    22691393.430    22691402.668
       228.000         182.000
    -16531.56847                  21283720.092                    21283730.028
       238.000         204.000
   -167360.73959   -118880.78556  23602879.007    23602879.024    23602889.541
       220.000         170.000
     14973.23947                  21931757.849                    21931765.523
       239.000         198.000
 00  4 18 14 23 59.9990000  0  8G19G 2G27G 8G26G 7G11G13
     98500.51355                  24112739.162
       208.000         152.000
   -196242.24149   -145726.36347  20999268.362    20999267.622    20999276.187
       240.000         206.000
     49482.20949     36648.32947  20700606.978    20700606.314    20700614.657
       239.000         207.000
     -1982.91449     -1190.42247  20144420.977    20144420.508    20144428.386
       243.000         212.000
   -379836.23449   -279995.37746  22675526.327    22675526.423    22675535.622
       228.000         182.000
   -457102.34949    -95320.79647  21264479.030    21264478.366    21264487.668
       239.000         203.000
   -216231.63549   -156962.01346  23593579.583    23593579.188    23593589.710
       221.000         170.000
    230323.46959     53252.88157  21941106.019    21941105.608    21941113.688
       240.000         197.000
 00  4 18 14 24 29.9990000  0  8G19G 2G27G 8G26G 7G11G13
    146075.95445                  24124358.285                    24124371.797
       204.000         150.000
   -237949.91849   -178225.88747  20991331.801    20991330.956    20991339.487
       240.000         206.000
     61353.49149     45898.59347  20702866.059    20702865.413    20702873.748
       239.000         207.000
     -1400.14549      -736.38447  20144532.062    20144531.466    20144539.333
       242.000         212.000
   -462796.22649   -344639.55346  22659739.734    22659739.701    22659748.885
       228.000         183.000
   -557856.74159   -173830.70857  21245306.246    21245305.425    21245314.727
       239.000         203.000
   -264712.58249   -194739.38746  23584353.960    23584353.490    23584364.157
       218.000         170.000
    279771.13849     91783.41347  21950515.551    21950515.293    21950523.320
       239.000         197.000
 00  4 18 14 24 59.9990000  0  8G19G 2G27G 8G26G 7G11G13
    261313.12149    193735.10145  24135997.145    24135996.701    24136010.454
       208.000         152.000
   -279574.73449   -210660.84547  20983410.901    20983410.042    20983418.582
       239.000         205.000
     73573.79849     55420.82547  20705191.594    20705190.941    20705199.273
       238.000         207.000
      -472.06749       -13.27247  20144708.759    20144708.126    20144716.018
       242.000         211.000
   -545327.68349   -408949.80346  22644034.589    22644034.533    22644043.691
       228.000         183.000
   -658261.54149   -252068.20747  21226199.900    21226199.085    21226208.358
       239.000         204.000
   -312795.15749   -232206.36546  23575203.992    23575203.684    23575214.391
       220.000         171.000
    329532.35949    130558.26947  21959984.812    21959984.651    21959992.613
       239.000         197.000
 00  4 18 14 25 29.9990000  0  8G19G 2G27G 8G26G 7G11G13
    322583.02959    241477.58055  24147656.661    24147656.088    24147670.052
       209.000         153.000
   -321140.07449   -243049.45547  20975501.330    20975500.482    20975509.002
       240.000         206.000
     86155.68349     65224.81147  20707585.896    20707585.256    20707593.640
       238.000         207.000
       809.96549       985.65447  20144952.821    20144952.161    20144960.083
       242.000         211.000
   -627432.91749   -472927.93146  22628410.529    22628410.439    22628419.596
       228.000         183.000
   -758335.69449   -330048.05647  21207156.443    21207155.625    21207164.899
       240.000         204.000
   -360466.85749   -269353.17546  23566132.542    23566132.120    23566142.878
       219.000         171.000
    379593.24449    169566.63847  21969511.133    21969511.003    21969518.915
       238.000         196.000
 00  4 18 14 25 59.9990000  0  8G19G 2G27G 8G26G 7G11G13
    383989.46849    289326.42845  24159342.115    24159341.737    24159355.963
       202.000         153.000
   -362619.46049   -275371.09647  20967608.144    20967607.291    20967615.787
       240.000         206.000
     99137.05149     75340.07447  20710056.147    20710055.564    20710063.984
       238.000         206.000
      2473.48449      2281.83447  20145269.392    20145268.730    20145276.715
       242.000         211.000
   -709081.85549   -536550.51446  22612873.228    22612873.146    22612882.329
       229.000         184.000
   -858077.36449   -407768.83547  21188176.249    21188175.403    21188184.705
       240.000         205.000
   -407692.49049   -306152.39946  23557145.941    23557145.477    23557156.123
       220.000         170.000
    429970.20749    208821.29547  21979097.567    21979097.486    21979105.372
       238.000         195.000
 00  4 18 14 26 29.9990000  0  8G19G 2G27G 8G26G 7G11G13
    445550.12649    337295.41245  24171056.855    24171056.698    24171070.698
       204.000         151.000
   -403999.74949   -307615.51847  20959733.797    20959732.938    20959741.408
       239.000         205.000
    112523.18749     85770.74647  20712603.453    20712602.898    20712611.383
       239.000         207.000
      4507.48349      3866.70347  20145656.495    20145655.837    20145663.847
       242.000         211.000
   -790273.39349   -599816.68346  22597423.057    22597422.958    22597432.174
       229.000         185.000
   -957483.61249   -485228.24547  21169259.862    21169259.040    21169268.335
       240.000         205.000
   -454457.62549   -342592.80246  23548246.939    23548246.411    23548256.959
       220.000         171.000
    480634.75149    248300.05947  21988738.729    21988738.688    21988746.597
       238.000         195.000
 00  4 18 14 26 59.9990000  0  8G19G 2G27G 8G26G 7G11G13
    507271.03349    385389.29245  24182802.136    24182801.869    24182815.760
       201.000         148.000
   -445264.48449   -339769.89547  20951881.406    20951880.569    20951889.025
       239.000         205.000
    126336.29949     96534.13047  20715232.058    20715231.519    20715240.046
       239.000         206.000
      6921.07549      5747.36247  20146115.890    20146115.217    20146123.215
       243.000         211.000
   -870989.57949   -662712.44046  22582063.382    22582063.256    22582072.501
       230.000         186.000
  -1056534.48849   -562410.74547  21150411.118    21150410.287    21150419.630
       240.000         205.000
   -500753.08249   -378667.24146  23539437.297    23539436.722    23539447.312
       218.000         170.000
    531579.74149    287997.34547  21998433.327    21998433.291    21998441.198
       238.000         194.000
 00  4 18 14 27 29.9990000  0  8G19G 2G27G 8G26G 7G11G13
    569142.51549    433600.49045  24194575.824    24194575.557    24194589.831
       206.000         147.000
   -486409.61649   -371831.07447  20944051.831    20944050.983    20944059.421
       239.000         205.000
    140563.85549    107620.45847  20717939.555    20717939.009    20717947.566
       239.000         206.000
      9705.00949      7916.60047  20146645.747    20146645.072    20146653.059
       242.000         211.000
   -951232.15549   -725239.15346  22566793.797    22566793.648    22566802.919
       229.000         186.000
  -1155238.15649   -639322.69247  21131628.467    21131627.612    21131636.997
       240.000         205.000
   -546597.69749   -414390.38646  23530713.312    23530712.782    23530723.409
       220.000         170.000
    582806.39649    327914.10947  22008181.559    22008181.496    22008189.379
       239.000         194.000
 00  4 18 14 27 59.9990000  0  8G19G 2G27G 8G26G 7G11G13
    631130.83949    481902.70645  24206371.918    24206371.660    24206386.183
       205.000         147.000
   -527447.23549   -403808.48247  20936242.669    20936241.810    20936250.275
       239.000         205.000
    155178.62549    119008.50447  20720720.752    20720720.206    20720728.755
       238.000         206.000
     12837.40449     10357.36647  20147241.935    20147241.212    20147249.217
       242.000         210.000
  -1031016.97649   -787409.17746  22551611.302    22551611.186    22551620.434
       230.000         187.000
  -1253613.19149   -715978.56147  21112908.337    21112907.478    21112916.897
       239.000         205.000
   -592029.77049   -449792.06546  23522067.869    23522067.382    23522077.980
       220.000         171.000
    634292.20749    368032.81847  22017979.098    22017979.033    22017986.893
       238.000         194.000
 00  4 18 14 28 29.9990000  0  8G19G 2G27G 8G26G 7G11G13
    693264.39649    530318.13445  24218195.629    24218195.396    24218210.217
       207.000         150.000
   -568335.67949   -435669.64547  20928461.907    20928461.046    20928469.501
       239.000         205.000
    170209.95349    130721.13747  20723581.244    20723580.665    20723589.204
       239.000         206.000
     16371.74649     13111.34147  20147914.536    20147913.802    20147921.880
       241.000         210.000
  -1110312.29849   -849197.76746  22536522.005    22536521.875    22536531.107
       230.000         187.000
  -1351608.52649   -792338.55847  21094260.453    21094259.607    21094268.990
       239.000         206.000
   -637012.11149   -484843.29546  23513508.200    23513507.662    23513518.241
       220.000         170.000
    686078.54849    408385.70247  22027833.829    22027833.752    22027841.599
       237.000         193.000
 00  4 18 14 28 59.9990000  0  8G19G 2G27G 8G26G 7G11G13
    755522.82349    578830.85945  24230043.364    24230043.147    24230057.833
       206.000         152.000
   -609096.10849   -467431.05247  20920705.488    20920704.625    20920713.134
       239.000         205.000
    185630.23949    142736.85647  20726515.720    20726515.127    20726523.661
       238.000         206.000
     20296.87949     16169.82647  20148661.488    20148660.781    20148668.872
       242.000         211.000
  -1189126.08749   -910611.14246  22521524.327    22521524.189    22521533.417
       230.000         187.000
  -1449248.69249   -868421.79947  21075680.195    21075679.316    21075688.651
       240.000         205.000
   -681566.76349   -519561.26046  23505030.012    23505029.301    23505039.841
       218.000         171.000
    738175.63949    448980.71847  22037747.702    22037747.634    22037755.439
       237.000         193.000
 00  4 18 14 29 29.9990000  0  8G19G 2G27G 8G26G 7G11G13
    817948.70549    627474.06445  24241923.028    24241922.559    24241937.192
       204.000         155.000
   -649688.39249   -499061.44047  20912981.111    20912980.216    20912988.740
       239.000         205.000
    201469.49349    155079.04047  20729529.891    20729529.314    20729537.879
       238.000         206.000
     24654.06849     19564.98347  20149490.683    20149489.979    20149498.064
       242.000         211.000
  -1267428.42749   -971625.98946  22506623.958    22506623.788    22506633.005
       230.000         187.000
  -1546491.18649   -944195.16547  21057175.590    21057174.731    21057184.040
       240.000         206.000
   -725641.52149   -553905.32146  23496642.687    23496642.112    23496652.834
       217.000         171.000
    790632.75249    489856.27647  22047730.089    22047730.010    22047737.777
       237.000         192.000
 00  4 18 14 29 59.9990000  0  8G19G 2G27G 8G26G 7G11G13
    880518.86449    676229.74845  24253830.144    24253829.689    24253844.111
       196.000         151.000
   -690135.27749   -530578.52347  20905284.361    20905283.485    20905292.007
       239.000         205.000
    217699.76049    167725.90647  20732618.450    20732617.890    20732626.512
       239.000         207.000
     29425.66249     23283.06047  20150398.737    20150398.040    20150406.158
       241.000         210.000
  -1345231.32749  -1032251.65546  22491818.591    22491818.417    22491827.669
       230.000         187.000
  -1643343.30949  -1019664.34847  21038745.220    21038744.346    21038753.681
       239.000         206.000
   -769239.53049   -587877.86446  23488346.097    23488345.682    23488356.458
       222.000         171.000
    843420.74549    530989.66847  22057775.423    22057775.350    22057783.087
       237.000         191.000
 00  4 18 14 30 29.9990000  0  8G19G 2G27G 8G26G 7G11G13
    943245.87249    725107.59645  24265766.978    24265766.393    24265781.045
       198.000         148.000
   -730424.05749   -561972.41147  20897617.664    20897616.800    20897625.334
       239.000         205.000
    234312.28349    180670.63047  20735779.857    20735779.287    20735787.912
       239.000         207.000
     34597.14849     27312.73247  20151382.886    20151382.183    20151390.353
       242.000         211.000
  -1422525.43049  -1092480.85647  22477110.044    22477109.853    22477119.135
       230.000         188.000
  -1739794.39449  -1094821.03747  21020391.188    21020390.323    21020399.674
       239.000         205.000
   -812353.35449   -621473.12646  23480142.043    23480141.554    23480152.331
       223.000         172.000
    896536.73149    572378.63447  22067883.109    22067883.064    22067890.821
       237.000         191.000
 00  4 18 14 30 59.9990000  0  8G19G 2G27G 8G26G 7G11G13
   1006123.46249    774102.75945  24277732.470    24277731.825    24277746.533
       198.000         146.000
   -770567.71149   -593253.21347  20889978.612    20889977.757    20889986.284
       239.000         204.000
    251302.52449    193909.67747  20739013.166    20739012.583    20739021.176
       240.000         207.000
     40134.25049     31627.30647  20152436.552    20152435.838    20152444.073
       241.000         210.000
  -1499326.47349  -1152325.85346  22462495.331    22462495.129    22462504.410
       231.000         187.000
  -1835855.02049  -1169673.46647  21002111.446    21002110.585    21002119.945
       239.000         206.000
   -855010.09149   -654712.21546  23472024.938    23472024.327    23472035.076
       222.000         171.000
    949950.04149    613999.28347  22078047.373    22078047.336    22078055.131
       236.000         191.000
 00  4 18 14 31 29.9990000  0  8G19G 2G27G 8G26G 7G11G13
   1069190.13448    823245.30645  24289733.889    24289733.338    24289748.014
       184.000         146.000
   -810516.00749   -624381.78547  20882376.779    20882375.881    20882384.421
       239.000         205.000
    268733.49149    207492.15047  20742330.268    20742329.692    20742338.244
       239.000         207.000
     46095.61049     36272.47047  20153570.944    20153570.256    20153578.532
       241.000         210.000
  -1575596.97649  -1211757.44146  22447981.592    22447981.396    22447990.638
       231.000         187.000
  -1931456.16749  -1244167.86547  20983919.186    20983918.294    20983927.651
       239.000         206.000
   -897167.29649   -687562.05446  23464002.831    23464002.273    23464012.782
       220.000         171.000
   1003689.46749    655874.05047  22088273.733    22088273.679    22088281.525
       236.000         190.000
 00  4 18 14 31 59.9990000  0  8G19G 2G27G 8G26G 7G11G13
   1132419.06648    872514.26645  24301766.115    24301765.692    24301780.357
       194.000         149.000
   -850299.72649   -655382.11747  20874806.223    20874805.340    20874813.867
       240.000         205.000
    286584.35949    221401.81647  20745727.280    20745726.711    20745735.283
       239.000         206.000
     52452.61649     41225.92547  20154780.705    20154779.996    20154788.291
       242.000         210.000
  -1651343.06249  -1270780.38946  22433567.598    22433567.444    22433576.687
       230.000         187.000
  -2026623.21949  -1318324.00247  20965809.470    20965808.599    20965817.969
       240.000         206.000
   -938868.31349   -720056.40746  23456067.555    23456066.899    23456077.373
       222.000         172.000
   1057717.18349    697973.45847  22098554.966    22098554.887    22098562.785
       236.000         190.000
 00  4 18 14 32 29.9990000  0  8G19G 2G27G 8G26G 7G11G13
   1195827.04649    921922.78045  24313832.436    24313832.022    24313846.699
       197.000         152.000
   -889909.82749   -686247.17347  20867268.722    20867267.840    20867276.384
       240.000         205.000
    304864.90149    235646.28947  20749206.026    20749205.464    20749214.079
       238.000         206.000
     59215.64849     46495.75947  20156067.695    20156066.996    20156075.323
       242.000         211.000
  -1726571.16849  -1329399.71947  22419252.196    22419252.040    22419261.285
       231.000         188.000
  -2121339.01949  -1392128.52047  20947785.652    20947784.783    20947794.146
       239.000         206.000
   -980109.63149   -752192.53646  23448219.553    23448218.970    23448229.532
       222.000         173.000
   1112033.03149    740297.37147  22108890.987    22108890.915    22108898.880
       236.000         189.000
 00  4 18 14 32 59.9990000  0  8G19G 2G27G 8G26G 7G11G13
   1259419.77049    971475.15845  24325934.045    24325933.536    24325948.474
       205.000         150.000
   -929357.73949   -716985.84347  20859762.076    20859761.188    20859769.716
       240.000         205.000
    323594.24449    250240.48247  20752770.177    20752769.628    20752778.251
       238.000         206.000
     66420.98649     52110.25047  20157438.911    20157438.210    20157446.546
       241.000         210.000
  -1801283.55849  -1387617.19047  22405034.902    22405034.789    22405044.016
       231.000         188.000
  -2215572.26149  -1465557.01547  20929853.687    20929852.785    20929862.169
       240.000         206.000
  -1020867.27149   -783951.80846  23440463.680    23440463.097    23440473.634
       221.000         171.000
   1166665.69549    782868.15947  22119287.310    22119287.252    22119295.300
       236.000         189.000
 00  4 18 14 33 29.9980000  0  8G19G 2G27G 8G26G 7G11G13
   1323133.87849   1021122.19445  24338058.505    24338058.098    24338073.158
       207.000         154.000
   -968690.76549   -747634.99047  20852277.288    20852276.404    20852284.954
       239.000         205.000
    342716.06449    265140.49947  20756409.021    20756408.463    20756417.102
       238.000         206.000
     74027.79449     58037.57247  20158886.581    20158885.878    20158894.166
       242.000         210.000
  -1875510.89349  -1445456.70147  22390909.962    22390909.848    22390919.110
       232.000         189.000
  -2309370.77849  -1538646.75847  20912004.381    20912003.485    20912012.873
       240.000         206.000
  -1061174.42049   -815360.04646  23432793.589    23432793.021    23432803.529
       222.000         172.000
   1221584.59349    825661.97347  22129738.142    22129738.092    22129746.176
       236.000         190.000
 00  4 18 14 33 59.9980000  0  8G19G 2G27G 8G26G 7G11G13
   1387028.32349   1070909.81345  24350217.353    24350216.896    24350232.222
       210.000         159.000
  -1007871.07249   -778165.14647  20844821.558    20844820.682    20844829.247
       239.000         205.000
    362274.64749    280380.85447  20760130.932    20760130.366    20760139.099
       238.000         205.000
     82065.85849     64300.94047  20160416.286    20160415.562    20160423.847
       241.000         209.000
  -1949210.74049  -1502885.19347  22376885.436    22376885.301    22376894.511
       232.000         189.000
  -2402705.19649  -1611374.87247  20894243.488    20894242.572    20894251.944
       240.000         207.000
  -1100973.77749   -846372.56146  23425220.029    23425219.492    23425230.053
       222.000         172.000
   1276835.75549    868714.69447  22140252.296    22140252.206    22140260.315
       236.000         190.000
 00  4 18 14 34 29.9980000  0  8G19G 2G27G 8G26G 7G11G13
   1451057.87049   1120802.63145  24362402.176    24362401.603    24362417.071
       210.000         153.000
  -1046934.58349   -808604.28547  20837388.032    20837387.158    20837395.750
       239.000         204.000
    382225.92649    295927.21347  20763927.616    20763927.056    20763935.828
       238.000         206.000
     90503.09449     70875.35347  20162021.900    20162021.189    20162029.462
       242.000         209.000
  -2022434.66449  -1559942.83047  22362951.449    22362951.295    22362960.474
       233.000         189.000
  -2495614.06649  -1683771.38947  20876563.503    20876562.601    20876571.991
       240.000         207.000
  -1140282.28049   -877002.60646  23417740.030    23417739.414    23417750.029
       221.000         174.000
   1332382.63949    911997.85047  22150822.677    22150822.586    22150830.723
       236.000         190.000
 00  4 18 14 34 59.9980000  0  8G19G 2G27G 8G26G 7G11G13
   1515243.26649   1170816.87845  24374616.582    24374616.061    24374631.509
       211.000         152.000
  -1085849.80949   -838927.87647  20829982.745    20829981.878    20829990.444
       239.000         204.000
    402615.40049    311815.01547  20767807.689    20767807.156    20767815.943
       238.000         206.000
     99372.42749     77786.46247  20163709.711    20163708.987    20163717.291
       241.000         209.000
  -2095129.52449  -1616588.20647  22349118.086    22349117.973    22349127.110
       233.000         190.000
  -2588082.06949  -1755824.37047  20858967.442    20858966.573    20858975.925
       241.000         207.000
  -1179065.05049   -907222.97846  23410359.922    23410359.362    23410369.956
       225.000         173.000
   1388271.42049    955547.42447  22161458.081    22161457.961    22161466.199
       236.000         189.000
 00  4 18 14 35 29.9980000  0  8G19G 2G27G 8G26G 7G11G13
   1579632.66649   1220990.16845  24386869.729    24386869.243    24386884.631
       213.000         157.000
  -1124555.61349   -869088.28247  20822617.344    20822616.463    20822624.990
       240.000         204.000
    423484.13149    328076.26647  20771778.950    20771778.412    20771787.247
       238.000         206.000
    108697.95749     85053.04447  20165484.353    20165483.656    20165491.928
       241.000         208.000
  -2167238.99549  -1672777.43947  22335396.186    22335396.026    22335405.170
       233.000         189.000
  -2680095.08549  -1827522.82147  20841458.077    20841457.160    20841466.462
       241.000         208.000
  -1217285.97749   -937005.50946  23403086.869    23403086.236    23403096.840
       222.000         174.000
   1444520.44849    999377.70947  22172161.977    22172161.887    22172170.220
       235.000         188.000
 00  4 18 14 35 59.9980000  0  8G19G 2G27G 8G26G 7G11G13
   1644193.03349   1271296.69545  24399155.414    24399154.814    24399170.362
       202.000         148.000
  -1163100.17549   -899123.04547  20815282.634    20815281.745    20815290.260
       239.000         204.000
    444789.40649    344677.68347  20775833.258    20775832.744    20775841.615
       239.000         206.000
    118443.48449     92646.90147  20167338.960    20167338.216    20167346.492
       241.000         208.000
  -2238815.82449  -1728551.63247  22321775.536    22321775.418    22321784.606
       232.000         189.000
  -2771686.22249  -1898892.53047  20824028.858    20824027.959    20824037.248
       241.000         208.000
  -1254995.64849   -966389.64546  23395911.020    23395910.304    23395921.012
       222.000         174.000
   1501067.31249   1043440.07847  22182922.583    22182922.501    22182930.865
       236.000         188.000
 00  4 18 14 36 29.9980000  0  8G19G 2G27G 8G26G 7G11G13
   1708942.91149   1321750.78845  24411477.085    24411476.597    24411492.436
       204.000         154.000
  -1201461.21049   -929014.79547  20807982.815    20807981.942    20807990.412
       240.000         204.000
    466551.87449    361635.35447  20779974.630    20779974.092    20779982.985
       239.000         206.000
    128639.49649    100591.78947  20169279.200    20169278.464    20169286.776
       241.000         208.000
  -2309831.63349  -1783888.65647  22308261.786    22308261.665    22308270.816
       233.000         190.000
  -2862833.70249  -1969916.53547  20806684.063    20806683.180    20806692.484
       240.000         208.000
  -1292178.65049   -995363.38046  23388835.179    23388834.524    23388845.518
       225.000         174.000
   1557933.47649   1087751.23647  22193743.929    22193743.884    22193752.233
       235.000         188.000
 00  4 18 14 36 59.9980000  0  8G19G 2G27G 8G26G 7G11G13
   1773895.58549   1372363.02345  24423837.430    24423837.013    24423852.639
       208.000         158.000
  -1239638.28449   -958763.19647  20800717.994    20800717.111    20800725.583
       239.000         204.000
    488793.60449    378966.47547  20784207.238    20784206.694    20784215.568
       239.000         206.000
    139282.36349    108884.87147  20171304.503    20171303.770    20171312.089
       241.000         208.000
  -2380278.42149  -1838782.28647  22294856.271    22294856.115    22294865.340
       232.000         190.000
  -2953533.72249  -2040591.87247  20789424.424    20789423.543    20789432.871
       240.000         208.000
  -1328838.09349  -1023929.15346  23381859.051    23381858.465    23381869.422
       224.000         174.000
   1615119.86049   1132311.92347  22204626.225    22204626.176    22204634.564
       235.000         188.000
 00  4 18 14 37 29.9980000  0  8G19G 2G27G 8G26G 7G11G13
   1839021.31949   1423109.99145  24436230.695    24436230.273    24436246.111
       207.000         151.000
  -1277669.30949   -988397.79647  20793480.940    20793480.081    20793488.560
       238.000         203.000
    511484.43449    396647.55047  20788525.284    20788524.717    20788533.579
       239.000         206.000
    150340.66849    117501.67847  20173408.895    20173408.167    20173416.520
       241.000         208.000
  -2450211.10549  -1893275.31847  22281548.495    22281548.394    22281557.639
       232.000         190.000
  -3043807.04349  -2110934.71147  20772245.992    20772245.121    20772254.464
       241.000         208.000
  -1364997.87149  -1052105.57846  23374978.186    23374977.506    23374988.402
       223.000         173.000
   1672577.55549   1177084.02947  22215560.159    22215560.108    22215568.513
       235.000         188.000
 00  4 18 14 37 59.9980000  0  8G19G 2G27G 8G26G 7G11G13
   1904340.43449   1474007.72645  24448660.667    24448660.293    24448676.019
       205.000         155.000
  -1315541.24049  -1017908.42547  20786274.201    20786273.336    20786281.825
       239.000         204.000
    534656.32449    414703.47147  20792934.774    20792934.254    20792943.119
       239.000         206.000
    161859.72749    126477.51347  20175600.977    20175600.236    20175608.626
       241.000         208.000
  -2519606.64649  -1947349.80247  22268343.003    22268342.909    22268352.136
       232.000         190.000
  -3133616.88949  -2180916.40247  20755155.777    20755154.880    20755164.261
       240.000         208.000
  -1400623.85649  -1079866.05546  23368198.631    23368198.096    23368209.018
       224.000         174.000
   1730338.46949   1222092.41047  22226551.773    22226551.782    22226560.186
       235.000         188.000
 00  4 18 14 38 29.9980000  0  8G19G 2G27G 8G26G 7G11G13
   1969833.28249   1525040.80145  24461123.744    24461123.338    24461139.125
       209.000         153.000
  -1353281.70149  -1047316.60847  20779092.473    20779091.595    20779100.087
       239.000         204.000
    558284.76549    433115.15447  20797431.177    20797430.679    20797439.570
       238.000         206.000
    173811.63249    135790.62847  20177875.393    20177874.649    20177883.047
       241.000         209.000
  -2588477.33649  -2001015.31047  22255237.403    22255237.287    22255246.534
       233.000         190.000
  -3222995.98849  -2250562.44747  20738147.466    20738146.576    20738155.998
       240.000         208.000
  -1435726.35249  -1107218.63646  23361519.119    23361518.442    23361529.265
       226.000         174.000
   1788384.05649   1267322.60146  22237597.614    22237597.600    22237606.025
       235.000         187.000
 00  4 18 14 38 59.9980000  0  8G19G 2G27G 8G26G 7G11G13
   2035474.02949   1576189.16745  24473615.082    24473614.580    24473630.414
       208.000         154.000
  -1390903.27049  -1076632.15047  20771933.353    20771932.481    20771940.989
       239.000         204.000
    582345.32049    451863.54547  20802009.793    20802009.319    20802018.270
       238.000         206.000
    186187.61449    145434.19547  20180230.498    20180229.776    20180238.185
       242.000         209.000
  -2656835.47149  -2054281.42247  22242229.238    22242229.139    22242238.401
       233.000         190.000
  -3311948.84449  -2319876.35647  20721220.272    20721219.403    20721228.806
       240.000         208.000
  -1470326.18749  -1134179.48846  23354934.979    23354934.327    23354945.133
       225.000         173.000
   1846693.85349   1312758.67346  22248693.729    22248693.691    22248702.127
       235.000         187.000
 00  4 18 14 39 29.9980000  0  8G19G 2G27G 8G26G 7G11G13
   2101255.57249   1627447.21745  24486133.164    24486132.698    24486148.634
       210.000         155.000
  -1428394.11849  -1105845.83547  20764799.125    20764798.268    20764806.786
       238.000         204.000
    606805.41949    470923.26747  20806664.475    20806663.989    20806673.004
       238.000         206.000
    198997.03249    155415.50147  20182668.124    20182667.412    20182675.827
       242.000         209.000
  -2724668.69949  -2107138.52547  22229321.089    22229320.953    22229330.195
       233.000         191.000
  -3400462.22849  -2388847.82047  20704376.742    20704375.869    20704385.249
       240.000         208.000
  -1504426.79049  -1160751.35546  23348446.025    23348445.304    23348455.828
       222.000         174.000
   1905260.33849   1358394.76046  22259838.688    22259838.622    22259847.082
       235.000         187.000
 00  4 18 14 39 59.9980000  0  8G19G 2G27G 8G26G 7G11G13
   2167171.50449   1678809.93045  24498676.913    24498676.415    24498692.493
       206.000         154.000
  -1465751.30249  -1134955.36847  20757690.325    20757689.460    20757697.982
       239.000         204.000
    631638.41449    490273.56147  20811390.156    20811389.647    20811398.694
       238.000         206.000
    212216.08049    165716.00447  20185183.711    20185183.002    20185191.427
       241.000         209.000
  -2791958.78449  -2159572.39147  22216516.317    22216516.137    22216525.362
       233.000         191.000
  -3488543.95149  -2457482.92347  20687615.374    20687614.503    20687623.860
       240.000         208.000
  -1538052.52549  -1186953.20446  23342046.930    23342046.448    23342057.066
       225.000         172.000
   1964078.51049   1404226.96946  22271031.510    22271031.468    22271039.971
       235.000         186.000
 00  4 18 14 40 29.9980000  0  8G19G 2G27G 8G26G 7G11G13
   2233249.09749   1730298.68045  24511251.175    24511250.712    24511266.766
       213.000         160.000
  -1502930.86949  -1163926.49647  20750615.323    20750614.457    20750622.992
       239.000         203.000
    656868.09949    509932.95947  20816191.293    20816190.776    20816199.861
       237.000         205.000
    225868.78849    176354.42047  20187781.803    20187781.082    20187789.526
       242.000         209.000
  -2858673.69349  -2211558.07347  22203820.865    22203820.730    22203829.906
       233.000         191.000
  -3576164.64049  -2525758.78047  20670941.724    20670940.858    20670950.189
       240.000         208.000
  -1571185.93349  -1212771.41646  23335741.858    23335741.268    23335751.915
       224.000         173.000
   2023177.16249   1450277.72846  22282277.711    22282277.662    22282286.198
       234.000         186.000
 00  4 18 14 40 59.9980000  0  8G19G 2G27G 8G26G 7G11G13
   2299458.59449   1781890.14345  24523850.573    24523850.107    24523866.461
       210.000         160.000
  -1539938.77449  -1192763.85747  20743573.017    20743572.128    20743580.683
       239.000         204.000
    682477.13049    529887.96447  20821064.556    20821064.048    20821073.194
       238.000         205.000
    239934.91949    187314.98747  20190458.526    20190457.810    20190466.231
       242.000         208.000
  -2924839.46049  -2263115.83947  22191229.989    22191229.852    22191239.038
       233.000         191.000
  -3663341.31349  -2593688.64347  20654352.533    20654351.696    20654361.045
       240.000         209.000
  -1603854.23049  -1238227.20246  23329525.255    23329524.716    23329535.329
       223.000         172.000
   2082529.10549   1496525.86646  22293572.110    22293572.068    22293580.611
       235.000         187.000
 00  4 18 14 41 29.9980000  0  8G19G 2G27G 8G26G 7G11G13
   2365818.88149   1833599.13145  24536478.784    24536478.381    24536494.672
       212.000         159.000
  -1576771.77549  -1221464.93147  20736563.958    20736563.084    20736571.621
       239.000         204.000
    708489.67249    550157.38647  20826014.678    20826014.141    20826023.333
       237.000         205.000
    254406.53649    198591.52047  20193212.392    20193211.699    20193220.132
       241.000         208.000
  -2990444.23349  -2314236.47547  22178745.791    22178745.669    22178754.896
       232.000         191.000
  -3750076.96149  -2661274.85547  20637847.320    20637846.481    20637855.823
       241.000         209.000
  -1636046.69749  -1263312.21946  23323399.182    23323398.574    23323409.127
       224.000         172.000
   2142136.91649   1542973.37146  22304915.285    22304915.193    22304923.799
       234.000         185.000
 00  4 18 14 41 59.9980000  0  8G19G 2G27G 8G26G 7G11G13
   2432332.12949   1885427.31345  24549136.125    24549135.766    24549152.094
       206.000         153.000
  -1613438.87349  -1250036.73547  20729586.477    20729585.612    20729594.136
       239.000         203.000
    734944.97049    570771.81447  20831049.040    20831048.493    20831057.718
       237.000         205.000
    269297.21549    210194.59147  20196045.956    20196045.269    20196053.746
       241.000         207.000
  -3055490.92949  -2364922.23547  22166367.873    22166367.739    22166376.989
       233.000         190.000
  -3836380.28449  -2728524.18647  20621424.384    20621423.528    20621432.863
       241.000         209.000
  -1667750.56249  -1288016.53146  23317366.224    23317365.560    23317376.129
       221.000         174.000
   2201995.37649   1589616.17746  22316306.108    22316305.962    22316314.644
       234.000         186.000
 00  4 18 14 42 29.9980000  0  8G19G 2G27G 8G26G 7G11G13
   2498987.51149   1937366.25945  24561820.577    24561820.215    24561836.493
       211.000         155.000
  -1649949.17449  -1278486.35247  20722638.851    20722637.986    20722646.507
       239.000         203.000
    761857.07149    591742.19047  20836170.315    20836169.770    20836179.011
       238.000         205.000
    284620.31349    222134.60447  20198961.837    20198961.136    20198969.682
       241.000         207.000
  -3119991.13249  -2415182.16247  22154093.978    22154093.816    22154103.058
       233.000         190.000
  -3922245.50949  -2795432.14547  20605084.753    20605083.895    20605093.246
       240.000         209.000
  -1698944.18949  -1312323.27346  23311429.966    23311429.508    23311440.189
       223.000         174.000
   2262097.59449   1636448.94146  22327743.240    22327743.119    22327751.907
       233.000         185.000
 00  4 18 14 42 59.9980000  0  8G19G 2G27G 8G26G 7G11G13
   2565814.66149   1989439.08745  24574537.638    24574537.246    24574553.660
       213.000         157.000
  -1686282.45249  -1306798.02947  20715724.908    20715724.038    20715732.550
       239.000         203.000
    789268.23749    613101.44247  20841386.600    20841386.060    20841395.273
       239.000         205.000
    300395.23549    234426.69047  20201963.718    20201963.014    20201971.576
       241.000         207.000
  -3183907.83449  -2464987.41047  22141931.085    22141930.930    22141940.109
       233.000         191.000
  -4007621.13149  -2861958.59547  20588838.286    20588837.471    20588846.823
       241.000         209.000
  -1729586.03849  -1336200.03746  23305599.274    23305598.665    23305609.290
       226.000         174.000
   2322475.50349   1683496.53046  22339232.825    22339232.714    22339241.619
       233.000         185.000
 00  4 18 14 43 29.9980000  0  8G19G 2G27G 8G26G 7G11G13
   2632760.62349   2041604.51345  24587277.213    24587276.816    24587293.313
       215.000         161.000
  -1722502.72449  -1335021.64747  20708832.464    20708831.599    20708840.073
       239.000         203.000
    817129.20949    634811.19147  20846688.493    20846687.932    20846697.122
       238.000         204.000
    316585.18849    247042.17047  20205044.641    20205043.933    20205052.473
       241.000         207.000
  -3247290.87449  -2514376.82047  22129869.754    22129869.575    22129878.785
       233.000         191.000
  -4092548.70149  -2928135.91447  20572677.169    20572676.312    20572685.679
       240.000         209.000
  -1759718.44949  -1359679.83946  23299865.215    23299864.624    23299875.344
       223.000         173.000
   2383085.22149   1730724.74446  22350766.548    22350766.453    22350775.423
       233.000         185.000
 00  4 18 14 43 59.9980000  0  7G 2G27G 8G26G 7G11G13
  -1758554.12549  -1363113.68147  20701972.107    20701971.251    20701979.743
       238.000         203.000
    845469.95449    656894.78947  20852081.652    20852081.102    20852090.268
       237.000         204.000
    333243.91149    260022.92747  20208214.832    20208214.116    20208222.622
       241.000         207.000
  -3310106.51949  -2563324.10147  22117916.350    22117916.158    22117925.394
       234.000         191.000
  -4176974.99749  -2993922.62247  20556611.421    20556610.545    20556619.920
       240.000         209.000
  -1789282.60249  -1382716.85946  23294239.280    23294238.721    23294249.490
       223.000         173.000
   2443991.28549   1778183.87946  22362356.692    22362356.576    22362365.620
       233.000         185.000
 00  4 18 14 44 29.9980000  0  7G 2G27G 8G26G 7G11G13
  -1794464.28949  -1391095.67047  20695138.639    20695137.766    20695146.283
       239.000         203.000
    874236.78949    679310.40347  20857555.813    20857555.320    20857564.512
       237.000         204.000
    350320.93349    273329.62147  20211464.629    20211463.886    20211472.368
       241.000         207.000
  -3372389.75349  -2611856.52947  22106064.296    22106064.111    22106073.320
       234.000         192.000
  -4260918.60149  -3059333.21247  20540637.462    20540636.600    20540645.988
       240.000         209.000
  -1818322.95249  -1405345.70946  23288712.727    23288712.415    23288723.233
       222.000         172.000
   2505170.05249   1825855.51346  22373998.729    22373998.609    22374007.740
       232.000         184.000
 00  4 18 14 44 59.9980000  0  7G 2G27G 8G26G 7G11G13
  -1830239.14049  -1418972.21647  20688330.953    20688330.046    20688338.581
       238.000         203.000
    903411.84949    702044.11347  20863107.725    20863107.215    20863116.435
       237.000         204.000
    367812.14149    286959.05947  20214793.200    20214792.442    20214800.943
       241.000         207.000
  -3434148.49949  -2659980.26047  22094312.067    22094311.891    22094321.060
       234.000         192.000
  -4344399.20249  -3124383.02147  20524751.589    20524750.706    20524760.105
       240.000         209.000
  -1846853.84949  -1427577.64046  23283283.552    23283283.168    23283293.953
       224.000         173.000
   2566614.19049   1873733.93246  22385691.208    22385691.130    22385700.345
       234.000         184.000
 00  4 18 14 45 29.9980000  0  7G 2G27G 8G26G 7G11G13
  -1865878.27349  -1446743.00447  20681549.099    20681548.203    20681556.724
       239.000         203.000
    932969.89949    725076.25847  20868732.525    20868731.978    20868741.248
       237.000         204.000
    385715.29449    300909.49147  20218200.115    20218199.363    20218207.851
       241.000         207.000
  -3495389.99549  -2707700.94347  22082658.245    22082658.067    22082667.247
       234.000         192.000
  -4427456.87149  -3189103.27047  20508946.191    20508945.342    20508954.734
       240.000         209.000
  -1874886.64749  -1449421.42346  23277949.061    23277948.626    23277959.594
       225.000         172.000
   2628296.40349   1921797.85746  22397429.084    22397428.996    22397438.229
       233.000         184.000
 00  4 18 14 45 59.9980000  0  7G 2G27G 8G26G 7G11G13
  -1901352.50049  -1474385.29247  20674798.657    20674797.724    20674806.235
       239.000         203.000
    962926.81649    748419.21247  20874433.209    20874432.671    20874441.972
       237.000         203.000
    404031.05549    315181.43847  20221685.590    20221684.825    20221693.310
       241.000         207.000
  -3556088.55649  -2754998.56247  22071107.700    22071107.574    22071116.718
       235.000         192.000
  -4510082.30949  -3253486.71247  20493223.053    20493222.217    20493231.609
       240.000         210.000
  -1902406.21349  -1470865.29546  23272712.403    23272711.903    23272722.872
       225.000         174.000
   2690224.85849   1970053.66346  22409213.862    22409213.748    22409222.945
       233.000         185.000
 00  4 18 14 46 29.9980000  0  7G 2G27G 8G26G 7G11G13
  -1936654.85349  -1501893.65547  20668080.808    20668079.905    20668088.456
       238.000         202.000
    993301.51849    772087.70647  20880213.418    20880212.870    20880222.210
       237.000         204.000
    422774.40549    329786.56547  20225252.343    20225251.610    20225260.131
       241.000         207.000
  -3616216.55049  -2801851.59047  22059665.806    22059665.623    22059674.711
       235.000         192.000
  -4592260.93549  -3317521.99647  20477584.988    20477584.147    20477593.521
       241.000         210.000
  -1929404.88549  -1491903.27746  23267574.920    23267574.309    23267585.166
       223.000         172.000
   2752381.72549   2018487.44246  22421042.051    22421041.959    22421051.118
       233.000         183.000
 00  4 18 14 46 59.9980000  0  7G 2G27G 8G26G 7G11G13
  -1971766.65149  -1529253.53947  20661399.247    20661398.348    20661406.901
       238.000         202.000
   1024101.95149    796087.94247  20886074.645    20886074.084    20886083.459
       236.000         203.000
    441959.05449    344735.56047  20228903.111    20228902.396    20228910.954
       241.000         207.000
  -3675754.04649  -2848244.48147  22048336.216    22048336.036    22048345.173
       233.000         191.000
  -4673995.43649  -3381211.20547  20462031.445    20462030.591    20462039.977
       240.000         210.000
  -1955860.77049  -1512518.32346  23262540.512    23262539.980    23262550.810
       227.000         173.000
   2814773.15049   2067103.99446  22432914.876    22432914.802    22432923.918
       232.000         184.000
 00  4 18 14 47 29.9980000  0  7G 2G27G 8G26G 7G11G13
  -2006711.62849  -1556483.42647  20654749.450    20654748.567    20654757.133
       238.000         203.000
   1055298.28349    820396.67147  20892011.166    20892010.622    20892020.046
       237.000         203.000
    461548.31349    359999.84447  20232630.902    20232630.195    20232638.777
       241.000         207.000
  -3734730.95549  -2894200.54847  22037113.234    22037113.095    22037122.284
       233.000         191.000
  -4755295.31949  -3444561.74647  20446560.559    20446559.713    20446569.092
       240.000         210.000
  -1981814.94149  -1532742.39346  23257602.034    23257601.235    23257611.928
       224.000         173.000
   2877364.90149   2115876.63546  22444825.815    22444825.724    22444834.844
       232.000         183.000
 00  4 18 14 47 59.9980000  0  7G 2G27G 8G26G 7G11G13
  -2041481.24649  -1583576.67647  20648133.040    20648132.170    20648140.721
       238.000         202.000
   1086912.66949    845031.15447  20898027.238    20898026.705    20898036.172
       236.000         203.000
    481561.73049    375594.63347  20236439.373    20236438.658    20236447.284
       240.000         206.000
  -3793139.54349  -2939713.77147  22025998.468    22025998.303    22026007.515
       233.000         191.000
  -4836110.67449  -3507534.73747  20431181.929    20431181.082    20431190.453
       240.000         210.000
  -2007249.41549  -1552561.54546  23252761.970    23252761.279    23252771.996
       225.000         174.000
   2940178.92049   2164822.45946  22456779.067    22456778.947    22456788.060
       232.000         183.000
 00  4 18 14 48 29.9980000  0  7G 2G27G 8G26G 7G11G13
  -2076105.49749  -1610556.65147  20641544.323    20641543.459    20641551.979
       238.000         202.000
   1118922.04749    869973.42347  20904118.499    20904117.949    20904127.451
       236.000         202.000
    501976.72149    391502.33547  20240324.211    20240323.513    20240332.158
       240.000         206.000
  -3851004.73649  -2984803.56547  22014987.113    22014986.957    22014996.165
       233.000         191.000
  -4916454.76749  -3570140.51547  20415893.014    20415892.151    20415901.468
       240.000         210.000
  -2032187.84049  -1571994.16146  23248016.494    23248015.730    23248026.415
       224.000         172.000
   3003199.61649   2213929.33946  22468771.644    22468771.493    22468780.638
       231.000         182.000
 00  4 18 14 48 59.9980000  0  7G 2G27G 8G26G 7G11G13
  -2110591.11249  -1637428.60547  20634981.959    20634981.086    20634989.636
       239.000         202.000
   1151322.27349    895220.25547  20910284.156    20910283.584    20910293.107
       236.000         202.000
    522781.43549    407713.71647  20244283.224    20244282.522    20244291.205
       241.000         206.000
  -3908330.38449  -3029472.93347  22004078.404    22004078.264    22004087.470
       233.000         191.000
  -4996333.64949  -3632383.79247  20400692.596    20400691.730    20400701.015
       241.000         210.000
  -2056640.13449  -1591047.96146  23243363.392    23243362.645    23243373.305
       224.000         173.000
   3066437.50949   2263205.45046  22480805.442    22480805.346    22480814.553
       231.000         183.000
 00  4 18 14 49 29.9980000  0  7G 2G27G 8G26G 7G11G13
  -2144933.49749  -1664188.94547  20628446.849    20628445.975    20628454.545
       238.000         203.000
   1184157.44149    920806.00147  20916532.556    20916531.986    20916541.515
       236.000         202.000
    543997.72849    424245.80747  20248320.652    20248319.942    20248328.553
       241.000         206.000
  -3965096.22349  -3073706.08947  21993276.178    21993276.048    21993285.310
       232.000         190.000
  -5075716.42449  -3694240.49047  20385586.583    20385585.676    20385594.966
       242.000         210.000
  -2080581.63249  -1609703.75446  23238807.419    23238806.712    23238817.386
       222.000         173.000
   3129911.08949   2312665.21346  22492884.097    22492884.026    22492893.297
       230.000         182.000
 00  4 18 14 49 59.9980000  0  7G 2G27G 8G26G 7G11G13
  -2179125.49149  -1690832.09647  20621940.344    20621939.461    20621948.044
       238.000         203.000
   1217451.66449    946749.45447  20922868.357    20922867.783    20922877.300
       237.000         202.000
    565641.78349    441111.22747  20252439.485    20252438.768    20252447.396
       241.000         206.000
  -4021282.57749  -3117487.69947  21982584.298    21982584.156    21982593.423
       233.000         191.000
  -5154609.74149  -3755715.79247  20370573.654    20370572.778    20370582.059
       242.000         211.000
  -2103978.37649  -1627935.04546  23234355.132    23234354.519    23234365.204
       225.000         174.000
   3193638.58149   2362322.83946  22505011.047    22505011.029    22505020.339
       230.000         181.000
 00  4 18 14 50 29.9980000  0  7G 2G27G 8G26G 7G11G13
  -2213173.65049  -1717363.18147  20615461.173    20615460.294    20615468.920
       239.000         203.000
   1251197.91849    973045.12947  20929290.186    20929289.586    20929299.089
       236.000         201.000
    587694.60849    458295.16047  20256636.081    20256635.368    20256644.032
       241.000         206.000
  -4076890.02149  -3160818.21147  21972002.599    21972002.450    21972011.732
       233.000         191.000
  -5233040.91549  -3816830.99047  20355648.689    20355647.806    20355657.100
       242.000         211.000
  -2126838.52249  -1645748.23346  23230005.135    23230004.486    23230015.164
       226.000         176.000
   3257610.81949   2412171.19546  22517184.676    22517184.656    22517193.922
       232.000         182.000
 00  4 18 14 50 59.9980000  0  7G 2G27G 8G26G 7G11G13
  -2247073.67949  -1743778.83147  20609010.293    20609009.407    20609018.009
       239.000         203.000
   1285401.46649    999697.14547  20935798.940    20935798.367    20935807.891
       236.000         201.000
    610164.13949    475803.80047  20260911.967    20260911.242    20260919.885
       241.000         206.000
  -4131931.79549  -3203707.93547  21961528.571    21961528.378    21961537.663
       233.000         191.000
  -5311020.88149  -3877594.59647  20340809.568    20340808.726    20340818.001
       242.000         210.000
  -2149164.24749  -1663144.99046  23225756.515    23225756.012    23225766.837
       220.000         174.000
   3321812.84649   2462198.59546  22529402.093    22529402.071    22529411.337
       231.000         182.000
 00  4 18 14 51 29.9980000  0  7G 2G27G 8G26G 7G11G13
  -2280787.50649  -1770049.38847  20602594.854    20602593.949    20602602.513
       239.000         203.000
   1320087.10149   1026724.81647  20942399.431    20942398.877    20942408.409
       236.000         200.000
    633092.90149    493670.28047  20265275.223    20265274.536    20265283.125
       241.000         206.000
  -4186386.55349  -3246140.24347  21951166.198    21951166.027    21951175.282
       234.000         191.000
  -5388514.52149  -3937979.24647  20326063.042    20326062.181    20326071.436
       243.000         210.000
  -2170918.77049  -1680096.66446  23221616.694    23221616.237    23221627.146
       229.000         174.000
   3386265.21149   2512421.05546  22541667.095    22541667.094    22541676.375
       230.000         182.000
 00  4 18 14 51 59.9980000  0  7G 2G27G 8G26G 7G11G13
  -2314361.40349  -1796210.90947  20596205.992    20596205.106    20596213.632
       239.000         203.000
   1355170.47549   1054062.40447  20949075.650    20949075.099    20949084.640
       236.000         200.000
    656414.64549    511842.97747  20269713.412    20269712.675    20269721.215
       241.000         206.000
  -4240312.17849  -3288160.24447  21940904.541    21940904.372    21940913.603
       233.000         191.000
  -5465575.62249  -3998026.85747  20311398.835    20311397.968    20311407.204
       242.000         211.000
  -2192168.69249  -1696655.08846  23217573.686    23217572.822    23217583.406
       225.000         175.000
   3450903.33949   2562788.28346  22553967.431    22553967.406    22553976.781
       229.000         181.000
 00  4 18 14 52 29.9980000  0  7G 2G27G 8G26G 7G11G13
  -2347759.08949  -1822235.13047  20589850.691    20589849.802    20589858.315
       240.000         203.000
   1390674.55149   1081727.81447  20955831.954    20955831.386    20955840.928
       235.000         200.000
    680161.56449    530346.97947  20274232.399    20274231.659    20274240.214
       242.000         206.000
  -4293684.72549  -3329749.27847  21930748.082    21930747.908    21930757.150
       232.000         191.000
  -5542165.36449  -4057707.17647  20296824.272    20296823.430    20296832.699
       242.000         211.000
  -2212890.35349  -1712801.90146  23213630.118    23213629.582    23213640.343
       221.000         173.000
   3515744.55049   2613313.74146  22566306.423    22566306.398    22566315.834
       230.000         181.000
 00  4 18 14 52 59.9980000  0  7G 2G27G 8G26G 7G11G13
  -2380988.04549  -1848127.86647  20583527.480    20583526.590    20583535.126
       239.000         203.000
   1426581.13549   1109706.86647  20962664.824    20962664.266    20962673.795
       236.000         200.000
    704346.53549    549192.32447  20278834.670    20278833.962    20278842.571
       242.000         206.000
  -4346514.48749  -3370915.36847  21920694.889    21920694.755    21920704.007
       232.000         190.000
  -5618281.84149  -4117018.71747  20282339.812    20282338.962    20282348.230
       242.000         211.000
  -2233082.91349  -1728536.45146  23209787.334    23209786.928    23209797.964
       225.000         175.000
   3580780.76249   2663991.15046  22578682.522    22578682.487    22578692.020
       229.000         181.000
 00  4 18 14 53 29.9980000  0  7G 2G27G 8G26G 7G11G13
  -2414089.50649  -1873921.25447  20577228.510    20577227.611    20577236.154
       239.000         203.000
   1462852.13149   1137969.87647  20969567.047    20969566.466    20969575.997
       235.000         199.000
    728938.77449    568355.02047  20283514.487    20283513.757    20283522.376
       241.000         206.000
  -4398822.17949  -3411674.64547  21910741.079    21910740.971    21910750.207
       233.000         191.000
  -5693936.33449  -4175970.26947  20267943.283    20267942.406    20267951.649
       243.000         211.000
  -2252762.80849  -1743871.49146  23206042.944    23206042.239    23206053.134
       228.000         176.000
   3645983.17249   2714798.06846  22591090.199    22591090.177    22591099.798
       228.000         180.000
 00  4 18 14 53 59.9980000  0  7G 2G27G 8G26G 7G11G13
  -2447047.42049  -1899602.79347  20570956.818    20570955.947    20570964.538
       238.000         203.000
   1499519.80349   1166541.97947  20976544.756    20976544.150    20976553.760
       235.000         200.000
    753958.86749    587851.10847  20288275.647    20288274.925    20288283.632
       240.000         206.000
  -4450588.08449  -3452011.75847  21900890.360    21900890.275    21900899.525
       232.000         191.000
  -5769108.89949  -4234546.29647  20253638.408    20253637.547    20253646.776
       242.000         211.000
  -2271912.35949  -1758793.25546  23202399.039    23202398.294    23202409.082
       224.000         173.000
   3711374.33449   2765752.06746  22603533.896    22603533.863    22603543.484
       229.000         180.000
 00  4 18 14 54 29.9980000  0  7G 2G27G 8G26G 7G11G13
  -2479881.68549  -1925187.97047  20564708.718    20564707.848    20564716.464
       239.000         203.000
   1536578.23149   1195418.57847  20983596.795    20983596.183    20983605.867
       236.000         200.000
    779411.12249    607683.95647  20293118.952    20293118.288    20293127.130
       241.000         206.000
  -4501836.85949  -3491945.90447  21891138.075    21891137.984    21891147.258
       233.000         192.000
  -5843821.88449  -4292764.20247  20239421.028    20239420.157    20239429.382
       243.000         211.000
  -2290542.07549  -1773309.97146  23198853.416    23198852.903    23198863.988
       223.000         173.000
   3776942.97349   2816844.36546  22616011.362    22616011.325    22616020.934
       229.000         180.000
 00  4 18 14 54 59.9980000  0  7G 2G27G 8G26G 7G11G13
  -2512560.40949  -1950651.95147  20558490.217    20558489.350    20558497.978
       239.000         203.000
   1574059.70849   1224624.81147  20990729.366    20990728.760    20990738.462
       236.000         200.000
    805322.52949    627874.57547  20298049.805    20298049.140    20298058.053
       241.000         206.000
  -4552525.88549  -3531443.88147  21881492.306    21881492.222    21881501.564
       235.000         192.000
  -5918037.75949  -4350594.75747  20225298.206    20225297.326    20225306.510
       242.000         211.000
  -2308623.00149  -1787399.06046  23195413.002    23195412.427    23195423.413
       227.000         176.000
   3842718.77649   2868098.07446  22628528.243    22628528.215    22628537.805
       228.000         179.000
 00  4 18 14 55 29.9980000  0  7G 2G27G 8G26G 7G11G13
  -2545100.40249  -1976007.83047  20552298.070    20552297.213    20552305.849
       239.000         203.000
   1611946.75449   1254147.07447  20997939.140    20997938.504    20997948.259
       234.000         200.000
    831638.63249    648380.54047  20303057.778    20303057.077    20303065.952
       241.000         206.000
  -4602678.54249  -3570523.91447  21871948.613    21871948.526    21871957.876
       235.000         193.000
  -5991799.80249  -4408071.67347  20211261.694    20211260.844    20211270.043
       242.000         211.000
  -2326198.42849  -1801094.23246  23192068.877    23192068.216    23192079.074
       224.000         175.000
   3908658.65149   2919479.63346  22641076.278    22641076.245    22641085.943
       227.000         180.000
 00  4 18 14 55 59.9980000  0  7G 2G27G 8G26G 7G11G13
  -2577480.11549  -2001238.80947  20546136.441    20546135.568    20546144.233
       239.000         203.000
   1650245.14149   1283989.86447  21005227.097    21005226.495    21005236.350
       235.000         200.000
    858365.92949    669206.91747  20308143.887    20308143.206    20308152.074
       241.000         206.000
  -4652263.22149  -3609161.37047  21862513.026    21862512.938    21862522.266
       235.000         193.000
  -6065113.94949  -4465199.57647  20197310.493    20197309.643    20197318.831
       243.000         211.000
  -2343269.86649  -1814396.67246  23188820.031    23188819.528    23188830.497
       222.000         171.000
   3974764.51949   2970990.54146  22653655.870    22653655.864    22653665.684
       228.000         179.000
 00  4 18 14 56 29.9980000  0  7G 2G27G 8G26G 7G11G13
  -2609701.98449  -2026346.79047  20540004.844    20540003.983    20540012.639
       239.000         203.000
   1688938.27649   1314140.25047  21012590.274    21012589.665    21012599.614
       235.000         200.000
    885496.01849    690347.16447  20313306.649    20313305.954    20313314.867
       241.000         206.000
  -4701265.10449  -3647344.69247  21853188.310    21853188.201    21853197.538
       234.000         192.000
  -6137981.08149  -4521979.15547  20183444.405    20183443.512    20183452.722
       242.000         211.000
  -2359840.27149  -1827308.71546  23185666.769    23185666.227    23185677.241
       225.000         174.000
   4041021.50749   3022619.18446  22666264.283    22666264.258    22666274.130
       227.000         179.000
 00  4 18 14 56 59.9980000  0  7G 2G27G 8G26G 7G11G13
  -2641722.58649  -2051297.94447  20533911.516    20533910.673    20533919.310
       238.000         203.000
   1728067.36749   1344630.33747  21020036.418    21020035.791    21020045.778
       234.000         199.000
    913053.34849    711820.31447  20318550.717    20318549.980    20318558.926
       241.000         206.000
  -4749632.47349  -3685033.59247  21843984.370    21843984.239    21843993.606
       235.000         192.000
  -6210350.71249  -4578371.07647  20169672.880    20169672.028    20169681.237
       242.000         211.000
  -2375883.16349  -1839809.68346  23182614.245    23182613.594    23182624.504
       227.000         177.000
   4107466.34149   3074394.22346  22678908.499    22678908.462    22678918.323
       228.000         179.000
 00  4 18 14 57 29.9970000  0  7G 2G27G 8G26G 7G11G13
  -2673578.50249  -2076120.77447  20527849.566    20527848.705    20527857.381
       239.000         203.000
   1767597.16749   1375432.66447  21027558.714    21027558.141    21027568.141
       235.000         198.000
    941011.88249    733606.09147  20323871.045    20323870.366    20323879.306
       240.000         206.000
  -4797400.52549  -3722255.49247  21834894.485    21834894.352    21834903.697
       235.000         193.000
  -6282248.92849  -4634395.66247  20155991.098    20155990.227    20155999.433
       241.000         212.000
  -2391438.02549  -1851930.37446  23179654.317    23179653.697    23179664.545
       224.000         174.000
   4174066.91749   3126290.59546  22691582.343    22691582.273    22691592.201
       228.000         179.000
 00  4 18 14 57 59.9970000  0  7G 2G27G 8G26G 7G11G13
  -2705297.60549  -2100836.99847  20521813.672    20521812.813    20521821.485
       239.000         203.000
   1807509.10749   1406532.76847  21035153.753    21035153.188    21035163.213
       233.000         198.000
    969375.41349    755707.44847  20329268.524    20329267.855    20329276.774
       241.000         206.000
  -4844598.59949  -3759033.26147  21825913.020    21825912.919    21825922.268
       235.000         193.000
  -6353682.62649  -4690058.28947  20142397.673    20142396.797    20142406.055
       241.000         212.000
  -2406519.95549  -1863682.56646  23176783.993    23176783.514    23176794.570
       222.000         172.000
   4240819.38849   3178305.33646  22704285.116    22704284.999    22704294.951
       228.000         178.000
 00  4 18 14 58 29.9970000  0  7G 2G27G 8G26G 7G11G13
  -2736876.44049  -2125443.92047  20515804.507    20515803.631    20515812.247
       239.000         203.000
   1847805.44649   1437932.40047  21042822.016    21042821.408    21042831.446
       234.000         197.000
    998138.00349    778119.76147  20334742.048    20334741.349    20334750.225
       241.000         206.000
  -4891255.70949  -3795389.48847  21817034.535    21817034.414    21817043.769
       235.000         193.000
  -6424653.58149  -4745360.33447  20128892.347    20128891.466    20128900.776
       241.000         212.000
  -2421122.76749  -1875061.39046  23174005.221    23174004.688    23174015.655
       227.000         174.000
   4307727.17049   3230441.08946  22717017.429    22717017.317    22717027.271
       227.000         178.000
 00  4 18 14 58 59.9970000  0  7G 2G27G 8G26G 7G11G13
  -2768287.24749  -2149919.90847  20509827.276    20509826.398    20509834.993
       238.000         203.000
   1888509.26149   1469649.55447  21050567.751    21050567.151    21050577.239
       233.000         197.000
   1027326.72349    800864.12547  20340296.613    20340295.897    20340304.787
       241.000         207.000
  -4937361.67849  -3831316.25947  21808260.891    21808260.758    21808270.134
       235.000         193.000
  -6495148.83149  -4800291.70247  20115477.579    20115476.703    20115485.972
       241.000         212.000
  -2435205.93349  -1886035.30646  23171325.425    23171324.875    23171335.723
       227.000         175.000
   4374823.29549   3282723.59746  22729785.513    22729785.435    22729795.454
       227.000         177.000
 00  4 18 14 59 29.9970000  0  7G 2G27G 8G26G 7G11G13
  -2799562.44349  -2174290.23847  20503875.809    20503874.918    20503883.571
       238.000         202.000
   1929591.82449   1501661.82747  21058385.533    21058384.935    21058395.093
       232.000         196.000
   1056923.52249    823926.46347  20345928.761    20345928.044    20345936.977
       242.000         206.000
  -4982944.00449  -3866835.00647  21799586.939    21799586.798    21799596.153
       235.000         193.000
  -6565207.99149  -4854883.26147  20102145.799    20102144.926    20102154.138
       242.000         212.000
  -2448763.27149  -1896599.51846  23168745.571    23168744.987    23168755.972
       225.000         174.000
   4442074.56849   3335126.99746  22742583.161    22742583.109    22742593.113
       227.000         177.000
 00  4 18 14 59 59.9970000  0  7G 2G27G 8G26G 7G11G13
  -2830679.45249  -2198537.30247  20497954.428    20497953.552    20497962.253
       238.000         202.000
   1971081.23649   1533991.11847  21066280.734    21066280.164    21066290.326
       233.000         196.000
   1086943.08749    847318.22547  20351641.408    20351640.674    20351649.594
       241.000         206.000
  -5027977.52949  -3901926.11447  21791017.396    21791017.224    21791026.649
       234.000         192.000
  -6634818.32549  -4909125.08847  20088899.449    20088898.558    20088907.769
       242.000         212.000
  -2461746.21149  -1906716.14846  23166275.034    23166274.384    23166285.458
       227.000         175.000
   4509498.78749   3387665.16546  22755413.765    22755413.693    22755423.613
       226.000         176.000
 00  4 18 15  0 29.9970000  0  7G 2G27G 8G26G 7G11G13
  -2861635.90349  -2222659.24647  20492063.589    20492062.716    20492071.489
       238.000         202.000
   2012980.38749   1566639.68847  21074253.960    21074253.419    21074263.508
       233.000         196.000
   1117381.84449    871036.64247  20357433.848    20357433.123    20357442.038
       241.000         206.000
  -5072448.65549  -3936578.98047  21782554.742    21782554.573    21782564.120
       234.000         193.000
  -6703973.01149  -4963011.86647  20075739.767    20075738.874    20075748.080
       240.000         212.000
  -2474144.20849  -1916376.96846  23163915.891    23163915.217    23163926.173
       228.000         174.000
   4577099.66949   3440341.00246  22768277.967    22768277.833    22768287.744
       226.000         175.000
 00  4 18 15  0 59.9970000  0  7G 2G27G 8G26G 7G11G13
  -2892441.56849  -2246663.70247  20486201.428    20486200.561    20486209.421
       237.000         202.000
   2055294.87349   1599611.88947  21082306.227    21082305.665    21082315.749
       233.000         196.000
   1148244.46949    895085.33947  20363306.883    20363306.160    20363315.133
       241.000         207.000
  -5116336.83549  -3970777.61547  21774203.091    21774202.927    21774212.474
       235.000         193.000
  -6772653.88249  -5016529.44247  20062670.221    20062669.342    20062678.536
       240.000         211.000
  -2485964.25449  -1925587.40946  23161666.687    23161665.996    23161676.830
       225.000         174.000
   4644869.95749   3493148.82846  22781174.306    22781174.192    22781184.117
       227.000         175.000
 00  4 18 15  1 29.9970000  0  7G 2G27G 8G26G 7G11G13
  -2923128.42449  -2270575.57947  20480361.966    20480361.093    20480369.972
       238.000         202.000
   2098007.02749   1632893.96247  21090434.099    21090433.564    21090443.733
       233.000         196.000
   1179482.15249    919426.28847  20369251.310    20369250.553    20369259.580
       241.000         206.000
  -5159672.86249  -4004545.99747  21765956.607    21765956.405    21765965.938
       234.000         193.000
  -6840880.77049  -5069693.26447  20049687.026    20049686.179    20049695.370
       240.000         211.000
  -2497262.68949  -1934391.42446  23159516.549    23159515.877    23159526.908
       223.000         173.000
   4712763.06749   3546052.34546  22794093.997    22794093.885    22794103.899
       226.000         175.000
 00  4 18 15  1 59.9970000  0  7G 2G27G 8G26G 7G11G13
  -2953652.61649  -2294360.70747  20474553.424    20474552.541    20474561.438
       237.000         202.000
   2141147.56149   1666509.82447  21098643.512    21098643.010    21098653.234
       233.000         196.000
   1211121.71449    944080.38847  20375272.142    20375271.388    20375280.446
       240.000         206.000
  -5202427.93449  -4037861.68747  21757820.580    21757820.418    21757830.012
       235.000         193.000
  -6908613.70649  -5122472.19247  20036797.898    20036797.064    20036806.262
       239.000         211.000
  -2508037.53549  -1942787.45346  23157466.086    23157465.490    23157476.711
       226.000         175.000
   4780814.24649   3599079.05646  22807043.850    22807043.753    22807053.779
       227.000         174.000
 00  4 18 15  2 29.9970000  0  7G 2G27G 8G26G 7G11G13
  -2984022.53449  -2318025.62147  20468774.299    20468773.402    20468782.279
       238.000         202.000
   2184688.42549   1700437.63247  21106929.193    21106928.688    21106938.882
       233.000         196.000
   1243151.95249    969038.90847  20381367.258    20381366.526    20381375.686
       240.000         206.000
  -5244622.63449  -4070740.72847  21749791.234    21749791.110    21749800.684
       236.000         194.000
  -6975863.68449  -5174874.78547  20024000.669    20023999.812    20024009.038
       240.000         210.000
  -2518322.14349  -1950801.47546  23155509.078    23155508.447    23155519.658
       226.000         173.000
   4849008.30949   3652217.09446  22820020.918    22820020.744    22820030.861
       226.000         174.000
 00  4 18 15  2 59.9970000  0  7G 2G27G 8G26G 7G11G13
  -3014264.90549  -2341591.15247  20463019.431    20463018.539    20463027.437
       238.000         201.000
   2228606.19849   1734659.12747  21115286.704    21115286.219    21115296.294
       230.000         190.000
   1275545.36849    994280.39347  20387531.636    20387530.921    20387540.115
       244.000         210.000
  -5286285.82849  -4103205.65346  21741863.083    21741862.947    21741872.515
       231.000         184.000
  -7042662.18049  -5226925.60246  20011289.324    20011288.500    20011297.687
       219.000         178.000
  -2528140.01249  -1958451.67545  23153640.968    23153640.225    23153651.218
       211.000         150.000
   4917304.61149   3705434.69444  22833017.497    22833027.430    22833028.684
       206.000         128.000
 00  4 18 15  3 29.9970000  0  7G 2G27G 8G26G 7G11G13
  -3044373.85049  -2365052.71047  20457289.914    20457289.023    20457297.952
       237.000         202.000
   2272884.88349   1769161.87347  21123712.760    21123712.240    21123722.434
       231.000         196.000
   1308297.56849   1019801.50747  20393764.332    20393763.552    20393772.818
       239.000         206.000
  -5327431.50149  -4135267.22547  21734033.437    21734033.258    21734042.791
       236.000         194.000
  -7109019.64249  -5278632.70947  19998661.929    19998661.126    19998670.321
       240.000         211.000
  -2537485.21549  -1965733.83746  23151862.564    23151861.810    23151872.891
       223.000         172.000
   4985699.75259   3758729.73456  22846032.754    22846032.700    22846043.450
       224.000         173.000
 00  4 18 15  3 59.9970000  0  7G 2G27G 8G26G 7G11G13
  -3074346.99049  -2388408.44247  20451586.199    20451585.333    20451594.317
       237.000         202.000
   2317515.55449   1803938.86247  21132205.783    21132205.281    21132215.571
       233.000         196.000
   1341437.06149   1045624.37047  20400070.633    20400069.895    20400079.143
       240.000         205.000
  -5368040.24249  -4166910.45147  21726305.872    21726305.692    21726315.215
       236.000         194.000
  -7174927.50149  -5329989.49747  19986120.066    19986119.261    19986128.479
       240.000         211.000
  -2546335.08049  -1972629.88246  23150178.441    23150177.724    23150188.943
       221.000         171.000
   5054204.35349   3812109.72646  22859068.672    22859068.578    22859079.190
       224.000         172.000
 00  4 18 15  4 29.9970000  0  7G 2G27G 8G26G 7G11G13
  -3104186.23449  -2411659.84747  20445907.999    20445907.140    20445916.140
       237.000         203.000
   2362509.98749   1838999.30947  21140768.046    21140767.536    21140777.910
       232.000         196.000
   1374980.36549   1071761.89347  20406453.808    20406453.081    20406462.292
       240.000         206.000
  -5408089.83949  -4198117.98347  21718684.725    21718684.529    21718694.053
       235.000         195.000
  -7240363.84149  -5380978.86647  19973667.989    19973667.178    19973676.424
       240.000         211.000
  -2554670.23949  -1979124.88746  23148592.334    23148591.686    23148602.967
       222.000         171.000
   5122824.01349   3865579.37446  22872126.582    22872126.505    22872137.146
       223.000         172.000
 00  4 18 15  4 59.9970000  0  7G 2G27G 8G26G 7G11G13
  -3133895.82449  -2434810.21247  20440254.531    20440253.652    20440262.670
       237.000         202.000
   2407884.20749   1874355.70447  21149402.538    21149402.061    21149412.480
       232.000         195.000
   1408923.85649   1098211.25647  20412913.156    20412912.416    20412921.587
       240.000         205.000
  -5447569.49149  -4228881.39547  21711172.042    21711171.862    21711181.421
       235.000         194.000
  -7305324.94049  -5431597.90747  19961306.408    19961305.552    19961314.781
       240.000         211.000
  -2562490.53449  -1985218.67946  23147104.166    23147103.521    23147114.800
       220.000         168.000
   5191564.84049   3919143.43646  22885207.664    22885207.594    22885218.172
       225.000         171.000
 00  4 18 15  5 29.9970000  0  7G 2G27G 8G26G 7G11G13
  -3163461.79549  -2457848.66647  20434628.354    20434627.483    20434636.465
       238.000         202.000
   2453644.65649   1910013.04647  21158110.528    21158110.035    21158120.522
       232.000         195.000
   1443289.30649   1124989.42247  20419452.716    20419452.002    20419461.244
       240.000         205.000
  -5486464.25049  -4259189.04447  21703770.609    21703770.438    21703780.068
       235.000         193.000
  -7369798.66549  -5481837.18147  19949037.464    19949036.623    19949045.857
       240.000         211.000
  -2569795.66549  -1990911.05846  23145713.986    23145713.408    23145724.710
       220.000         169.000
   5260441.76649   3972813.55846  22898314.665    22898314.580    22898325.177
       224.000         171.000
 00  4 18 15  5 59.9970000  0  7G 2G27G 8G26G 7G11G13
  -3192898.81249  -2480786.63847  20429026.712    20429025.839    20429034.835
       238.000         203.000
   2499799.04049   1945977.34747  21166893.576    21166893.061    21166903.577
       232.000         195.000
   1478071.50149   1152092.32147  20426071.612    20426070.907    20426080.203
       240.000         205.000
  -5524776.23749  -4289042.58547  21696480.133    21696479.951    21696489.556
       235.000         194.000
  -7433782.59149  -5531694.79747  19936861.767    19936860.908    19936870.149
       240.000         211.000
  -2576599.35549  -1996212.70446  23144419.451    23144418.841    23144430.007
       222.000         170.000
   5329441.97749   4026579.74746  22911445.154    22911445.048    22911455.699
       224.000         172.000
 00  4 18 15  6 29.9970000  0  7G 2G27G 8G26G 7G11G13
  -3222199.13949  -2503618.10047  20423451.072    20423450.208    20423459.226
       238.000         203.000
   2546356.16749   1982255.48547  21175753.289    21175752.756    21175763.250
       232.000         194.000
   1513257.93149   1179510.20247  20432767.496    20432766.772    20432776.068
       240.000         205.000
  -5562510.03749  -4318445.60147  21689299.714    21689299.489    21689309.091
       236.000         193.000
  -7497271.42649  -5581166.62847  19924780.253    19924779.397    19924788.625
       239.000         211.000
  -2582904.08649  -2001125.55746  23143219.759    23143219.114    23143230.424
       220.000         170.000
   5398561.55449   4080438.94346  22924598.346    22924598.268    22924608.945
       224.000         171.000
 00  4 18 15  6 59.9970000  0  7G 2G27G 8G26G 7G11G13
  -3251332.71149  -2526319.62447  20417907.147    20417906.276    20417915.323
       238.000         203.000
   2593331.85049   2018859.76947  21184692.527    21184692.010    21184702.601
       231.000         194.000
   1548858.85349   1207251.06347  20439542.195    20439541.485    20439550.820
       239.000         205.000
  -5599663.98149  -4347396.77647  21682229.490    21682229.307    21682238.962
       235.000         193.000
  -7560264.32249  -5630252.01047  19912793.134    19912792.274    19912801.492
       239.000         210.000
  -2588683.87149  -2005629.38746  23142119.806    23142119.257    23142130.677
       221.000         170.000
   5467817.11849   4134404.10746  22937777.493    22937777.386    22937788.116
       224.000         171.000
 00  4 18 15  7 29.9970000  0  7G 2G27G 8G26G 7G11G13
  -3280320.32649  -2548907.41747  20412391.036    20412390.172    20412399.181
       238.000         203.000
   2640681.36049   2055755.34347  21193702.904    21193702.412    21193713.062
       232.000         193.000
   1584843.40949   1235290.85947  20446389.858    20446389.157    20446398.607
       240.000         205.000
  -5636274.39749  -4375924.42047  21675262.793    21675262.607    21675272.307
       236.000         194.000
  -7622786.57549  -5678970.65747  19900895.555    19900894.681    19900903.894
       239.000         210.000
  -2593968.13149  -2009747.09246  23141114.276    23141113.779    23141125.193
       224.000         171.000
   5537156.55349   4188434.62046  22950972.537    22950972.398    22950983.244
       223.000         170.000
 00  4 18 15  7 59.9970000  0  7G 2G27G 8G26G 7G11G13
  -3309153.01549  -2571374.49047  20406904.413    20406903.559    20406912.564
       239.000         204.000
   2688404.96649   2092942.40847  21202784.563    21202783.999    21202794.667
       230.000         193.000
   1621203.41549   1263623.21047  20453309.053    20453308.342    20453317.848
       239.000         205.000
  -5672339.04649  -4404026.80347  21668400.004    21668399.820    21668409.440
       236.000         194.000
  -7684839.01149  -5727323.20747  19889087.387    19889086.525    19889095.714
       239.000         210.000
  -2598736.36349  -2013462.67046  23140207.096    23140206.475    23140217.916
       222.000         170.000
   5606586.61049   4242535.75446  22964184.820    22964184.649    22964195.571
       223.000         170.000
 00  4 18 15  8 29.9970000  0  7G 2G27G 8G26G 7G11G13
  -3337804.35149  -2593700.24747  20401452.339    20401451.485    20401460.445
       239.000         204.000
   2736513.66349   2130429.55147  21211939.426    21211938.876    21211949.566
       232.000         193.000
   1657960.65449   1292265.10147  20460303.895    20460303.156    20460312.632
       239.000         205.000
  -5707841.20449  -4431690.87347  21661644.215    21661644.054    21661653.648
       236.000         194.000
  -7746418.70549  -5775307.38047  19877369.188    19877368.325    19877377.501
       239.000         210.000
  -2602960.14849  -2016754.00746  23139403.295    23139402.690    23139414.216
       221.000         170.000
   5676141.91349   4296734.49146  22977420.991    22977420.794    22977431.712
       222.000         170.000
 00  4 18 15  8 59.9970000  0  7G 2G27G 8G26G 7G11G13
  -3366292.64449  -2615898.95747  20396031.265    20396030.408    20396039.341
       239.000         204.000
   2784990.56949   2168203.59647  21221164.357    21221163.795    21221174.569
       231.000         194.000
   1695108.18549   1321211.11347  20467372.933    20467372.183    20467381.681
       238.000         205.000
  -5742800.34849  -4458931.81747  21654991.734    21654991.590    21655001.202
       236.000         194.000
  -7807550.89749  -5822942.84847  19865736.170    19865735.291    19865744.450
       239.000         210.000
  -2606645.71649  -2019625.97846  23138701.932    23138701.382    23138713.081
       222.000         170.000
   5745805.56949   4351017.64346  22990677.687    22990677.456    22990688.408
       223.000         168.000
 00  4 18 15  9 29.9970000  0  7G 2G27G 8G26G 7G11G13
  -3394591.29649  -2637949.89647  20390646.301    20390645.424    20390654.355
       239.000         204.000
   2833869.87349   2206291.20447  21230465.898    21230465.341    21230476.177
       231.000         193.000
   1732685.41149   1350491.95547  20474523.675    20474522.946    20474532.541
       239.000         205.000
  -5777170.02849  -4485713.44347  21648451.455    21648451.310    21648460.909
       236.000         194.000
  -7868192.36249  -5870195.93847  19854196.533    19854195.636    19854204.800
       239.000         210.000
  -2609761.60049  -2022054.03346  23138109.086    23138108.531    23138120.209
       223.000         170.000
   5815607.50349   4405408.54346  23003960.707    23003960.490    23003971.450
       222.000         169.000
 00  4 18 15  9 59.9970000  0  7G 2G27G 8G26G 7G11G13
  -3422745.07749  -2659887.95247  20385288.852    20385287.996    20385296.933
       240.000         204.000
   2883124.33449   2244671.12647  21239838.767    21239838.246    21239849.132
       231.000         193.000
   1770660.70249   1380082.96947  20481750.199    20481749.473    20481759.133
       239.000         205.000
  -5810988.98949  -4512065.94247  21642015.947    21642015.810    21642025.434
       235.000         194.000
  -7928390.79549  -5917103.81247  19842741.133    19842740.261    19842749.422
       239.000         210.000
  -2612343.08849  -2024065.68146  23137617.950    23137617.411    23137629.071
       223.000         170.000
   5885529.70249   4459893.16146  23017266.540    23017266.407    23017277.380
       221.000         168.000
 00  4 18 15 10 29.9970000  0  7G 2G27G 8G26G 7G11G13
  -3450775.78749  -2681730.10647  20379954.810    20379953.944    20379962.895
       239.000         204.000
   2932755.12649   2283344.30247  21249283.340    21249282.834    21249293.699
       231.000         193.000
   1809028.38249   1409979.74647  20489051.402    20489050.680    20489060.362
       239.000         204.000
  -5844270.65349  -4537999.75547  21635682.680    21635682.509    21635692.192
       235.000         194.000
  -7988139.82449  -5963661.49347  19831371.304    19831370.407    19831379.549
       238.000         209.000
  -2614410.03249  -2025676.37646  23137224.572    23137224.068    23137235.768
       221.000         167.000
   5955555.90849   4514458.83346  23030592.122    23030592.078    23030603.096
       221.000         168.000
 00  4 18 15 10 59.9970000  0  7G 2G27G 8G26G 7G11G13
  -3478661.68849  -2703459.42347  20374648.303    20374647.429    20374656.423
       240.000         204.000
   2982775.21949   2322320.82147  21258802.095    21258801.542    21258812.381
       231.000         193.000
   1847806.36849   1440196.24047  20496430.651    20496429.933    20496439.645
       239.000         204.000
  -5876983.92949  -4563490.66947  21629457.568    21629457.425    21629467.137
       235.000         194.000
  -8047404.26149  -6009841.57847  19820093.621    19820092.719    19820101.904
       238.000         209.000
  -2615960.95749  -2026884.98346  23136929.532    23136928.996    23136940.630
       223.000         169.000
   6025682.17849   4569102.44846  23043936.734    23043936.704    23043947.890
       220.000         167.000
 00  4 18 15 11 29.9970000  0  7G 2G27G 8G26G 7G11G13
  -3506409.50649  -2725081.14647  20369368.100    20369367.240    20369376.215
       240.000         204.000
   3033167.85649   2361587.62947  21268391.650    21268391.109    21268401.929
       231.000         193.000
   1886974.50649   1470716.74347  20503884.233    20503883.508    20503893.245
       239.000         204.000
  -5909139.97149  -4588547.37547  21623338.469    21623338.369    21623348.167
       234.000         194.000
  -8106191.63849  -6055649.93547  19808906.738    19808905.846    19808915.045
       238.000         209.000
  -2617033.63449  -2027720.92246  23136725.661    23136725.012    23136736.622
       222.000         171.000
   6095895.30449   4623813.74746  23057297.912    23057297.943    23057309.267
       219.000         166.000
 00  4 18 15 11 59.9970000  0  7G 2G27G 8G26G 7G11G13
  -3534036.61149  -2746608.80547  20364110.910    20364110.033    20364118.992
       240.000         204.000
   3083912.17349   2401128.46947  21278048.142    21278047.609    21278058.366
       231.000         192.000
   1926514.51149   1501527.02147  20511408.621    20511407.872    20511417.610
       239.000         204.000
  -5940760.64249  -4613186.91147  21617321.242    21617321.168    21617330.998
       235.000         193.000
  -8164519.64449  -6101100.34147  19797807.315    19797806.392    19797815.586
       239.000         209.000
  -2617651.31849  -2028202.34146  23136608.125    23136607.524    23136619.210
       222.000         168.000
   6166166.93749   4678570.64746  23070670.315    23070670.313    23070681.751
       219.000         166.000
 00  4 18 15 12 29.9970000  0  7G 2G27G 8G26G 7G11G13
  -3561512.17749  -2768018.37747  20358882.526    20358881.636    20358890.603
       240.000         204.000
   3135017.90449   2440950.92847  21287773.363    21287772.846    21287783.579
       230.000         192.000
   1966450.17249   1532645.59447  20519008.178    20519007.424    20519017.185
       238.000         203.000
  -5971813.00549  -4637383.60647  21611412.214    21611412.140    21611421.960
       236.000         194.000
  -8222357.91849  -6146169.13647  19786801.003    19786800.121    19786809.343
       238.000         209.000
  -2617794.30349  -2028313.83046  23136580.998    23136580.411    23136592.117
       222.000         169.000
   6236495.05949   4733371.54546  23084053.472    23084053.432    23084065.112
       218.000         166.000
 00  4 18 15 12 59.9970000  0  7G 2G27G 8G26G 7G11G13
  -3588810.38349  -2789289.75347  20353687.858    20353686.990    20353695.946
       240.000         204.000
   3186479.88149   2481050.97947  21297566.410    21297565.891    21297576.670
       229.000         191.000
   2006783.16849   1564073.79047  20526683.304    20526682.581    20526692.385
       238.000         204.000
  -6002288.50149  -4661130.79947  21605613.035    21605612.928    21605622.760
       236.000         194.000
  -8279722.39849  -6190868.74247  19775884.904    19775884.040    19775893.282
       237.000         209.000
  -2617456.58949  -2028050.72046  23136645.358    23136644.786    23136656.458
       224.000         169.000
   6306881.99149   4788218.26046  23097447.760    23097447.791    23097459.606
       219.000         165.000
 00  4 18 15 13 29.9970000  0  8G 9G 2G27G 8G26G 7G11G13
  -2058420.23559  -1572058.56355  24189506.292    24189505.800    24189518.443
       212.000         152.000
  -3615912.39449  -2810408.25047  20348530.581    20348529.677    20348538.627
       240.000         204.000
   3238325.08949   2521449.64247  21307432.339    21307431.836    21307442.698
       229.000         192.000
   2047525.46949   1595820.91147  20534436.453    20534435.728    20534445.546
       239.000         203.000
  -6032183.29749  -4684425.50047  21599924.332    21599924.187    21599934.066
       236.000         194.000
  -8336609.23849  -6235196.17247  19765059.735    19765058.850    19765068.105
       238.000         210.000
  -2616598.13349  -2027381.85046  23136808.802    23136808.223    23136819.919
       223.000         171.000
   6377346.82249   4843125.67746  23110856.938    23110857.010    23110868.931
       220.000         164.000
 00  4 18 15 13 59.9970000  0  8G 9G 2G27G 8G26G 7G11G13
  -2192087.31649  -1676214.89445  24164070.433    24164069.946    24164082.662
       214.000         153.000
  -3642856.40849  -2831403.63247  20343403.315    20343402.449    20343411.375
       240.000         204.000
   3290523.96749   2562123.90947  21317365.631    21317365.062    21317375.971
       229.000         190.000
   2088644.13249   1627861.30547  20542261.232    20542260.481    20542270.305
       238.000         203.000
  -6061533.39549  -4707295.76647  21594339.229    21594339.090    21594348.966
       236.000         193.000
  -8393052.28749  -6279177.79047  19754319.006    19754318.118    19754327.342
       238.000         209.000
  -2615222.45049  -2026309.93646  23137070.606    23137070.044    23137081.810
       223.000         172.000
   6447851.84849   4898064.42646  23124273.863    23124273.855    23124285.846
       221.000         164.000
 00  4 18 15 14 29.9970000  0  8G 9G 2G27G 8G26G 7G11G13
  -2325747.33649  -1780365.70245  24138635.935    24138635.472    24138648.279
       210.000         152.000
  -3669637.32049  -2852271.91547  20338307.102    20338306.210    20338315.183
       240.000         204.000
   3343071.14649   2603069.55647  21327365.135    21327364.554    21327375.529
       228.000         190.000
   2130123.02849   1660182.40447  20550154.440    20550153.693    20550163.587
       238.000         203.000
  -6090349.19749  -4729749.70547  21588855.822    21588855.671    21588865.497
       236.000         193.000
  -8449053.26249  -6322814.93147  19743662.337    19743661.474    19743670.679
       238.000         210.000
  -2613329.43949  -2024834.91946  23137430.893    23137430.331    23137442.108
       223.000         171.000
   6518405.85149   4953041.33646  23137700.122    23137700.061    23137712.033
       219.000         164.000
 00  4 18 15 14 59.9970000  0  8G 9G 2G27G 8G26G 7G11G13
  -2459382.83449  -1884497.38145  24113206.037    24113205.667    24113218.364
       210.000         152.000
  -3696248.38449  -2873007.85947  20333243.214    20333242.336    20333251.355
       240.000         204.000
   3395991.58549   2644306.06247  21337435.603    21337435.048    21337446.130
       227.000         189.000
   2171966.66849   1692787.71847  20558117.168    20558116.397    20558126.290
       239.000         203.000
  -6118627.83949  -4751785.07247  21583474.664    21583474.490    21583484.279
       234.000         193.000
  -8504603.20949  -6366100.62247  19733091.576    19733090.727    19733099.938
       238.000         209.000
  -2610900.96049  -2022942.64446  23137893.129    23137892.562    23137904.306
       225.000         172.000
   6589027.86649   5008071.23146  23151139.207    23151139.142    23151151.183
       219.000         164.000
 00  4 18 15 15 29.9970000  0  8G 9G 2G27G 8G26G 7G11G13
  -2592950.90149  -1988576.51945  24087789.011    24087788.606    24087801.248
       211.000         154.000
  -3722690.56149  -2893612.19747  20328211.426    20328210.563    20328219.616
       239.000         204.000
   3449299.94649   2685844.83747  21347579.951    21347579.412    21347590.630
       228.000         189.000
   2214193.58349   1725691.69247  20566152.873    20566152.077    20566161.954
       238.000         203.000
  -6146357.77749  -4773392.87347  21578197.847    21578197.712    21578207.510
       235.000         194.000
  -8559660.83649  -6409002.69247  19722614.503    19722613.632    19722622.851
       238.000         209.000
  -2607924.17749  -2020623.10746  23138459.705    23138459.121    23138470.819
       225.000         171.000
   6659731.23449   5063164.50646  23164593.779    23164593.790    23164605.862
       221.000         165.000
 00  4 18 15 15 59.9970000  0  8G 9G 2G27G 8G26G 7G11G13
  -2726446.56549  -2092599.22845  24062385.791    24062385.376    24062397.967
       213.000         154.000
  -3748977.86349  -2914095.84747  20323209.154    20323208.276    20323217.369
       240.000         204.000
   3502980.23249   2727673.42147  21357795.137    21357794.607    21357805.884
       228.000         189.000
   2256803.58049   1758894.18047  20574261.359    20574260.542    20574270.535
       237.000         202.000
  -6173542.14649  -4794575.55247  21573024.916    21573024.767    21573034.568
       235.000         194.000
  -8614218.46849  -6451515.13947  19712232.554    19712231.703    19712240.897
       238.000         209.000
  -2604417.62749  -2017890.75146  23139127.110    23139126.468    23139138.106
       223.000         171.000
   6730508.92849   5118315.71046  23178062.589    23178062.557    23178074.613
       220.000         164.000
 00  4 18 15 16 29.9970000  0  8G 9G 2G27G 8G26G 7G11G13
  -2859880.13449  -2196573.56045  24036994.406    24036993.915    24037006.593
       211.000         154.000
  -3775111.36949  -2934459.66347  20318236.174    20318235.285    20318244.377
       240.000         204.000
   3557042.81149   2769799.89347  21368083.026    21368082.567    21368093.842
       228.000         190.000
   2299811.64649   1792406.84347  20582445.532    20582444.742    20582454.844
       237.000         202.000
  -6200165.56749  -4815321.13747  21567958.703    21567958.545    21567968.268
       235.000         193.000
  -8668269.33049  -6493632.70147  19701947.043    19701946.196    19701955.388
       238.000         209.000
  -2600392.91549  -2014754.65846  23139892.894    23139892.318    23139904.029
       223.000         170.000
   6801371.52449   5173533.06846  23191547.659    23191547.502    23191559.537
       220.000         165.000
 00  4 18 15 16 59.9970000  0  8G 9G 2G27G 8G26G 7G11G13
  -2993289.17949  -2300528.78345  24011607.681    24011607.212    24011619.886
       209.000         151.000
  -3801128.66449  -2954732.92347  20313285.268    20313284.384    20313293.453
       240.000         204.000
   3611465.28549   2812206.80347  21378439.492    21378439.046    21378450.297
       229.000         189.000
   2343197.60849   1826213.97247  20590701.690    20590700.878    20590711.012
       237.000         202.000
  -6226245.93149  -4835643.55647  21562995.787    21562995.684    21563005.360
       235.000         195.000
  -8721850.58049  -6535384.33347  19691750.859    19691750.002    19691759.239
       237.000         208.000
  -2595882.59749  -2011240.16846  23140751.200    23140750.633    23140762.437
       223.000         170.000
   6872277.75649   5228784.42846  23205040.975    23205040.763    23205052.836
       219.000         164.000
 00  4 18 15 17 29.9970000  0  8G 9G 2G27G 8G26G 7G11G13
  -3126686.89149  -2404475.15845  23986222.968    23986222.606    23986235.344
       208.000         151.000
  -3827038.58349  -2974922.51547  20308354.798    20308353.922    20308362.971
       240.000         204.000
   3666236.29749   2854885.29447  21388862.270    21388861.809    21388873.106
       229.000         189.000
   2386959.43849   1860313.98647  20599029.290    20599028.536    20599038.699
       237.000         201.000
  -6251781.07249  -4855541.13047  21558136.714    21558136.603    21558146.316
       236.000         195.000
  -8774957.52749  -6576766.36947  19681644.957    19681644.108    19681653.329
       237.000         208.000
  -2590894.73649  -2007353.56346  23141700.343    23141699.794    23141711.627
       224.000         170.000
   6943231.75049   5284072.99946  23218543.189    23218542.975    23218555.173
       219.000         164.000
 00  4 18 15 17 59.9970000  0  8G 9G 2G27G 8G26G 7G11G13
  -3260078.71049  -2508416.95945  23960839.376    23960838.970    23960851.965
       212.000         153.000
  -3852828.19549  -2995018.36147  20303447.246    20303446.360    20303455.410
       240.000         204.000
   3721362.93749   2897840.90247  21399352.776    21399352.270    21399363.557
       229.000         189.000
   2431095.97049   1894705.97547  20607428.261    20607427.505    20607437.752
       236.000         201.000
  -6276751.95649  -4874999.01647  21553384.992    21553384.861    21553394.614
       235.000         194.000
  -8827605.24449  -6617790.55847  19671626.419    19671625.559    19671634.751
       237.000         207.000
  -2585422.28049  -2003089.34646  23142741.760    23142741.138    23142753.069
       221.000         169.000
   7014233.67749   5339398.91246  23232054.451    23232054.366    23232066.601
       219.000         163.000
 00  4 18 15 18 29.9970000  0  8G 9G 2G27G 8G26G 7G11G13
  -3393475.71249  -2612362.78845  23935454.982    23935454.597    23935467.489
       213.000         155.000
  -3878504.56449  -3015025.95947  20298561.252    20298560.383    20298569.448
       240.000         204.000
   3776827.91349   2941060.15347  21409907.688    21409907.145    21409918.382
       230.000         188.000
   2475579.82649   1929368.60247  20615893.378    20615892.651    20615902.898
       237.000         201.000
  -6301165.86149  -4894022.89247  21548739.196    21548739.061    21548748.853
       234.000         194.000
  -8879821.92449  -6658478.87847  19661689.877    19661689.001    19661698.226
       236.000         207.000
  -2579485.76749  -1998463.54946  23143871.366    23143870.818    23143882.805
       220.000         168.000
   7085272.17049   5394753.33246  23245572.755    23245572.700    23245584.967
       220.000         164.000
 00  4 18 15 18 59.9970000  0  8G 9G 2G27G 8G26G 7G11G13
  -3526857.26249  -2716296.56945  23910073.475    23910073.059    23910085.930
       211.000         154.000
  -3904049.70549  -3034931.30347  20293700.191    20293699.322    20293708.419
       239.000         204.000
   3832614.49649   2984530.01047  21420523.683    21420523.181    21420534.391
       228.000         188.000
   2520405.67349   1964297.71647  20624423.570    20624422.868    20624433.097
       236.000         200.000
  -6325037.19349  -4912623.98647  21544196.677    21544196.533    21544206.344
       234.000         194.000
  -8931600.90249  -6698826.13047  19651836.631    19651835.768    19651844.991
       236.000         207.000
  -2573083.39349  -1993474.73946  23145089.611    23145089.145    23145101.195
       220.000         168.000
   7156337.68349   5450128.79346  23259096.258    23259096.159    23259108.512
       219.000         164.000
 00  4 18 15 19 29.9970000  0  8G 9G 2G27G 8G26G 7G11G13
  -3660181.68249  -2820185.82145  23884702.821    23884702.385    23884715.203
       211.000         152.000
  -3929438.18249  -3054714.57447  20288868.954    20288868.082    20288877.181
       240.000         204.000
   3888730.22949   3028256.32547  21431202.336    21431201.837    21431213.051
       227.000         188.000
   2565587.52649   1999504.24147  20633021.445    20633020.718    20633030.975
       236.000         200.000
  -6348354.42549  -4930793.31547  21539759.576    21539759.446    21539769.272
       235.000         194.000
  -8982911.11549  -6738808.11247  19642072.618    19642071.750    19642080.950
       237.000         207.000
  -2566190.63649  -1988103.79446  23146401.421    23146400.926    23146412.859
       222.000         169.000
   7227446.51349   5505538.01346  23272628.000    23272627.893    23272640.382
       219.000         165.000
 00  4 18 15 19 59.9970000  0  8G 9G 2G27G 8G26G 7G11G13
  -3793444.38049  -2924026.97045  23859343.799    23859343.388    23859356.204
       210.000         151.000
  -3954666.26749  -3074372.85847  20284068.273    20284067.393    20284076.455
       240.000         204.000
   3945167.39649   3072233.12546  21441942.101    21441941.591    21441952.856
       227.000         187.000
   2611122.09749   2034985.60747  20641686.369    20641685.697    20641695.998
       236.000         199.000
  -6371141.69649  -4948549.68947  21535423.365    21535423.217    21535433.084
       235.000         194.000
  -9033773.93849  -6778441.47447  19632393.712    19632392.850    19632402.063
       236.000         207.000
  -2558808.33349  -1982351.38046  23147806.314    23147805.826    23147817.723
       222.000         168.000
   7298579.21549   5560965.82846  23286164.236    23286164.230    23286176.777
       220.000         163.000
 00  4 18 15 20 29.9970000  0  8G 9G 2G27G 8G26G 7G11G13
  -3926641.24449  -3027816.85045  23833997.352    23833996.892    23834009.764
       209.000         152.000
  -3979724.23449  -3093898.59447  20279299.947    20279299.079    20279308.128
       240.000         204.000
   4001934.75649   3116467.21346  21452744.736    21452744.190    21452755.567
       227.000         186.000
   2657024.97849   2070753.96247  20650421.495    20650420.818    20650431.159
       236.000         199.000
  -6393416.07549  -4965906.41247  21531184.818    21531184.635    21531194.506
       236.000         194.000
  -9084171.48249  -6817712.29247  19622803.424    19622802.537    19622811.749
       236.000         207.000
  -2550927.94949  -1976210.85346  23149305.954    23149305.429    23149317.330
       219.000         168.000
   7369743.45149   5616418.21346  23299706.543    23299706.622    23299719.097
       220.000         163.000
 00  4 18 15 20 59.9970000  0  8G 9G 2G27G 8G26G 7G11G13
  -4059805.13549  -3131581.01545  23808657.011    23808656.587    23808669.560
       206.000         148.000
  -4004639.61349  -3113313.21547  20274558.758    20274557.864    20274566.941
       240.000         204.000
   4059010.71849   3160941.76346  21463606.024    21463605.514    21463616.969
       226.000         186.000
   2703278.12449   2106795.26147  20659223.305    20659222.618    20659233.011
       235.000         199.000
  -6415213.91749  -4982891.79747  21527036.873    21527036.668    21527046.606
       235.000         194.000
  -9134111.95649  -6856626.95147  19613300.036    19613299.149    19613308.402
       236.000         207.000
  -2542569.27549  -1969697.66046  23150896.612    23150896.103    23150908.043
       222.000         168.000
   7440897.04549   5671862.30745  23313247.025    23313247.021    23313259.495
       221.000         162.000
 00  4 18 15 21 29.9970000  0  8G 9G 2G27G 8G26G 7G11G13
  -4192920.32649  -3235307.20445  23783326.004    23783325.583    23783338.590
       206.000         149.000
  -4029394.28549  -3132602.61247  20269848.116    20269847.247    20269856.346
       241.000         205.000
   4116432.08749   3205685.46046  21474533.134    21474532.604    21474544.065
       227.000         185.000
   2749904.90249   2143127.69547  20668096.183    20668095.446    20668105.900
       235.000         199.000
  -6436489.93949  -4999470.57747  21522988.183    21522987.975    21522997.969
       234.000         194.000
  -9183583.85949  -6895176.48847  19603885.865    19603885.002    19603894.258
       237.000         207.000
  -2533705.46349  -1962790.85046  23152583.428    23152582.873    23152594.829
       220.000         167.000
   7512067.78649   5727319.74745  23326790.697    23326790.618    23326803.263
       219.000         162.000
 00  4 18 15 21 59.9960000  0  9G 9G 2G 4G27G 8G26G 7G11G13
  -4325994.36249  -3339001.33245  23758002.832    23758002.407    23758015.632
       204.000         149.000
  -4053986.86549  -3151765.69647  20265168.326    20265167.451    20265176.573
       240.000         205.000
    -92713.68154                  23399840.669
       209.000          98.000
   4174202.99049   3250701.53946  21485526.735    21485526.207    21485537.705
       226.000         186.000
   2796910.45049   2179755.27547  20677041.045    20677040.374    20677050.863
       235.000         199.000
  -6457237.22549  -5015637.35147  21519040.177    21519040.017    21519049.937
       235.000         193.000
  -9232591.94349  -6933364.60547  19594559.977    19594559.114    19594568.351
       236.000         207.000
  -2524350.04649  -1955500.97046  23154363.706    23154363.131    23154375.054
       221.000         166.000
   7583262.47949   5782795.86145  23340338.828    23340338.797    23340351.462
       220.000         162.000
 00  4 18 15 22 29.9960000  0  9G 9G 2G 4G27G 8G26G 7G11G13
  -4459050.62949  -3442681.60745  23732683.058    23732682.740    23732695.977
       204.000         148.000
  -4078430.00049  -3170812.34447  20260517.039    20260516.161    20260525.243
       241.000         205.000
   -198705.90345                  23373955.772
       207.000         135.000
   4232313.98449   3295982.60946  21496585.041    21496584.513    21496596.115
       227.000         186.000
   2844277.81649   2216664.77847  20686054.877    20686054.192    20686064.658
       236.000         199.000
  -6477442.97849  -5031382.16047  21515195.230    21515195.060    21515204.970
       235.000         193.000
  -9281135.56749  -6971190.80747  19585322.500    19585321.597    19585330.805
       236.000         207.000
  -2514530.68949  -1947849.58346  23156232.285    23156231.749    23156243.626
       220.000         165.000
   7654475.10449   5838285.95745  23353890.409    23353890.403    23353903.051
       218.000         162.000
 00  4 18 15 22 59.9960000  0  9G 9G 2G 4G27G 8G26G 7G11G13
  -4592093.60149  -3546351.50445  23707366.112    23707365.646    23707378.830
       206.000         148.000
  -4102751.94349  -3189764.54747  20255888.813    20255887.923    20255896.967
       241.000         205.000
   -304778.71445                  23348051.814                    23348068.080
       212.000         143.000
   4290736.64649   3341506.54446  21507702.703    21507702.127    21507713.841
       225.000         186.000
   2891981.26249   2253836.17447  20695132.630    20695131.961    20695142.433
       236.000         199.000
  -6497109.45449  -5046706.74247  21511452.857    21511452.685    21511462.545
       235.000         192.000
  -9329252.08249  -7008684.19947  19576166.176    19576165.344    19576174.551
       236.000         207.000
  -2504265.62149  -1939850.89746  23158185.671    23158185.154    23158197.006
       220.000         166.000
   7725678.97649   5893769.21645  23367440.203    23367440.194    23367452.943
       219.000         161.000
 00  4 18 15 23 29.9960000  0  9G 9G 2G 4G27G 8G26G 7G11G13
  -4725072.09849  -3649971.16545  23682061.235    23682060.756    23682073.989
       206.000         148.000
  -4126921.72749  -3208598.19347  20251289.512    20251288.623    20251297.650
       241.000         205.000
   -557915.05649   -410895.32445  23322136.639    23322136.630    23322151.941
       212.000         145.000
   4349510.45449   3387304.10046  21518887.104    21518886.584    21518898.428
       226.000         186.000
   2940056.04149   2291296.91247  20704281.089    20704280.398    20704290.926
       235.000         199.000
  -6516195.82549  -5061579.30847  21507820.890    21507820.717    21507830.586
       235.000         193.000
  -9376919.25949  -7045827.46847  19567095.446    19567094.605    19567103.800
       236.000         206.000
  -2493511.15949  -1931470.86346  23160232.246    23160231.715    23160243.542
       222.000         167.000
   7796926.64349   5949286.60645  23380998.226    23380998.274    23381011.113
       219.000         160.000
 00  4 18 15 23 59.9960000  0  9G 9G 2G 4G27G 8G26G 7G11G13
  -4858010.43149  -3753559.52045  23656764.029    23656763.570    23656776.750
       204.000         147.000
  -4150961.68449  -3227330.67647  20246714.897    20246714.006    20246723.053
       240.000         204.000
   -694178.60049   -517074.45345  23296206.525    23296206.186    23296221.726
       212.000         147.000
   4408604.13049   3433350.89946  21530132.385    21530131.855    21530143.811
       227.000         185.000
   2988479.64849   2329029.45647  20713495.900    20713495.213    20713505.777
       236.000         199.000
  -6534744.33649  -5076032.75747  21504291.301    21504291.097    21504301.033
       234.000         193.000
  -9424150.99049  -7082631.42447  19558107.554    19558106.732    19558115.879
       236.000         206.000
  -2482291.61749  -1922728.44146  23162367.510    23162366.908    23162378.633
       223.000         168.000
   7868182.41449   6004810.28945  23394557.769    23394557.943    23394570.851
       216.000         160.000
 00  4 18 15 24 29.9960000  0  9G 9G 2G 4G27G 8G26G 7G11G13
  -4990917.47849  -3857123.49545  23631472.858    23631472.286    23631485.521
       204.000         145.000
  -4174886.98249  -3245973.80947  20242162.051    20242161.179    20242170.234
       240.000         204.000
   -830517.67459   -623312.47055  23270261.914    23270261.626    23270277.006
       212.000         144.000
   4468003.28949   3479635.74246  21541435.904    21541435.285    21541447.303
       226.000         185.000
   3037237.91449   2367022.77047  20722774.477    20722773.751    20722784.276
       236.000         198.000
  -6552767.93149  -5090077.18247  21500861.495    21500861.338    21500871.357
       234.000         193.000
  -9470953.50249  -7119100.91347  19549201.384    19549200.526    19549209.677
       236.000         206.000
  -2470597.02449  -1913615.85046  23164592.999    23164592.380    23164604.196
       222.000         167.000
   7939419.94249   6060319.76945  23408114.127    23408114.170    23408127.079
       219.000         160.000
 00  4 18 15 24 59.9960000  0  9G 9G 2G 4G27G 8G26G 7G11G13
  -5123774.46149  -3960648.45745  23606191.257    23606190.630    23606203.835
       207.000         147.000
  -4198692.10949  -3264523.30647  20237632.093    20237631.228    20237640.297
       240.000         204.000
   -966908.68249   -729590.97345  23244307.173    23244306.967    23244322.550
       210.000         146.000
   4527716.93549   3526165.64246  21552799.172    21552798.572    21552810.679
       226.000         184.000
   3086341.78749   2405285.38947  20732118.681    20732117.998    20732128.566
       234.000         198.000
  -6570273.90249  -5103718.26647  21497530.299    21497530.145    21497540.112
       234.000         194.000
  -9517337.12549  -7155243.99947  19540374.828    19540373.985    19540383.183
       236.000         206.000
  -2458404.19149  -1904115.03446  23166913.156    23166912.604    23166924.520
       221.000         166.000
   8010642.76449   6115817.79845  23421667.646    23421667.650    23421680.515
       218.000         160.000
 00  4 18 15 25 29.9960000  0  9G 9G 2G 4G27G 8G26G 7G11G13
  -5256584.05049  -4064136.48645  23580918.703    23580918.111    23580931.101
       204.000         146.000
  -4222358.79649  -3282964.92347  20233128.508    20233127.645    20233136.750
       240.000         204.000
  -1103344.52949   -835904.41845  23218344.097    23218343.925    23218359.675
       211.000         147.000
   4587739.04149   3572935.90146  21564221.137    21564220.552    21564232.763
       227.000         184.000
   3135784.06549   2443811.69647  20741527.224    20741526.582    20741537.292
       234.000         197.000
  -6587269.33649  -5116961.52747  21494296.154    21494296.034    21494306.011
       235.000         194.000
  -9563275.88749  -7191040.44747  19531632.986    19531632.154    19531641.346
       235.000         206.000
  -2445727.52749  -1894237.21446  23169325.431    23169324.931    23169336.790
       222.000         166.000
   8081850.26249   6171303.87545  23435218.214    23435218.175    23435231.069
       219.000         161.000
 00  4 18 15 25 59.9960000  0  9G 9G 2G 4G27G 8G26G 7G11G13
  -5389325.27549  -4167571.25245  23555658.987    23555658.547    23555671.263
       203.000         145.000
  -4245851.98649  -3301271.35047  20228657.900    20228657.044    20228666.199
       240.000         205.000
  -1239798.10949   -942231.70645  23192377.677    23192377.485    23192393.486
       209.000         146.000
   4648078.36649   3619953.33646  21575703.614    21575702.995    21575715.253
       226.000         184.000
   3185580.42449   2482613.89947  20751003.255    20751002.614    20751013.408
       235.000         197.000
  -6603741.97649  -5129797.41447  21491161.554    21491161.416    21491171.477
       235.000         194.000
  -9608748.88649  -7226473.96447  19522979.787    19522978.959    19522988.111
       235.000         206.000
  -2432568.79549  -1883983.74746  23171829.575    23171829.072    23171840.923
       220.000         166.000
   8153040.67449   6226776.64145  23448765.409    23448765.400    23448778.387
       216.000         160.000
 00  4 18 15 26 29.9960000  0  9G 9G 2G 4G27G 8G26G 7G11G13
  -5522000.17449  -4270954.32845  23530411.783    23530411.500    23530423.992
       202.000         144.000
  -4269189.47649  -3319456.44847  20224216.950    20224216.087    20224225.289
       240.000         205.000
  -1376292.15649  -1048590.52845  23166403.619    23166403.466    23166419.456
       212.000         145.000
   4708715.41549   3667202.76046  21587242.691    21587242.045    21587254.361
       228.000         184.000
   3235705.27449   2521672.07247  20760541.913    20760541.209    20760551.992
       234.000         197.000
  -6619708.09349  -5142238.61147  21488123.408    21488123.256    21488133.301
       235.000         194.000
  -9653785.93949  -7261567.78347  19514409.560    19514408.719    19514417.871
       235.000         206.000
  -2418953.28449  -1873374.36646  23174420.753    23174420.137    23174431.963
       220.000         166.000
   8224193.53049   6282220.13145  23462305.517    23462305.544    23462318.731
       217.000         159.000
 00  4 18 15 26 59.9960000  0  9G 9G 2G 4G27G 8G26G 7G11G13
  -5654574.46449  -4374258.98545  23505183.815    23505183.471    23505196.052
       204.000         143.000
  -4292342.97349  -3337498.18147  20219811.029    20219810.174    20219819.349
       240.000         205.000
  -1512809.01749  -1154967.14245  23140425.320    23140424.997    23140440.915
       210.000         146.000
   4769667.90549   3714697.99046  21598841.782    21598841.143    21598853.437
       227.000         183.000
   3286170.19449   2560995.23347  20770145.123    20770144.430    20770155.250
       234.000         196.000
  -6635154.59949  -5154274.92547  21485184.152    21485183.950    21485193.951
       235.000         194.000
  -9698358.24349  -7296299.45947  19505927.750    19505926.912    19505936.034
       236.000         206.000
  -2404875.38349  -1862404.67646  23177099.822    23177099.204    23177110.922
       221.000         165.000
   8295334.95649   6337654.71845  23475843.558    23475843.521    23475856.815
       215.000         158.000
 00  4 18 15 27 29.9960000  0  9G 9G 2G 4G27G 8G26G 7G11G13
  -5787070.43549  -4477502.60845  23479970.564    23479970.223    23479983.159
       206.000         145.000
  -4315330.56649  -3355410.64647  20215436.728    20215435.841    20215444.987
       241.000         205.000
  -1649370.37449  -1261378.43845  23114438.509    23114438.104    23114453.944
       212.000         148.000
   4830918.51349   3762425.51646  21610497.493    21610496.928    21610509.212
       227.000         183.000
   3336961.19949   2600572.47747  20779810.445    20779809.735    20779820.578
       234.000         196.000
  -6650092.26949  -5165914.74047  21482341.614    21482341.430    21482351.434
       236.000         194.000
  -9742464.89149  -7330668.29147  19497534.556    19497533.692    19497542.821
       236.000         206.000
  -2390357.34549  -1851092.05046  23179862.579    23179861.942    23179873.685
       220.000         165.000
   8366450.27649   6393068.95545  23489376.536    23489376.505    23489390.015
       214.000         159.000
 00  4 18 15 27 59.9960000  0  9G 9G 2G 4G27G 8G26G 7G11G13
  -5919467.84449  -4580669.46145  23454776.178    23454775.807    23454788.895
       202.000         143.000
  -4338153.67549  -3373194.93447  20211093.641    20211092.780    20211101.946
       240.000         205.000
  -1785966.35449  -1367816.73545  23088445.107    23088444.904    23088460.637
       213.000         148.000
   4892489.25249   3810402.48246  21622214.163    21622213.643    21622225.956
       227.000         182.000
   3388106.32049   2640425.66347  20789543.225    20789542.478    20789553.377
       233.000         196.000
  -6664498.82749  -5177140.69747  21479600.210    21479600.042    21479610.070
       236.000         194.000
  -9786109.44649  -7364677.04747  19489229.276    19489228.415    19489237.515
       235.000         206.000
  -2375364.64049  -1839409.54546  23182715.616    23182715.010    23182726.836
       219.000         166.000
   8437549.11649   6448470.35045  23502906.253    23502906.251    23502920.033
       213.000         157.000
 00  4 18 15 28 29.9960000  0  9G 9G 2G 4G27G 8G26G 7G11G13
  -6051778.89649  -4683768.99045  23429598.019    23429597.573    23429610.785
       200.000         142.000
  -4360837.11349  -3390870.38847  20206777.166    20206776.317    20206785.512
       240.000         205.000
  -1922622.81349  -1474302.18545  23062440.364    23062440.179    23062455.716
       213.000         149.000
   4954361.17549   3858614.14246  21633988.241    21633987.687    21634000.057
       226.000         182.000
   3439583.91249   2680537.91947  20799339.072    20799338.346    20799349.392
       233.000         195.000
  -6678379.38149  -5187956.78647  21476958.889    21476958.741    21476968.755
       235.000         194.000
  -9829305.95849  -7398336.67347  19481009.221    19481008.361    19481017.471
       235.000         206.000
  -2359900.85149  -1827359.94546  23185658.267    23185657.739    23185669.662
       220.000         165.000
   8508628.62349   6503856.68145  23516432.393    23516432.386    23516446.324
       214.000         156.000
 00  4 18 15 28 59.9960000  0  9G 9G 2G 4G27G 8G26G 7G11G13
  -6184024.92449  -4786817.85045  23404432.232    23404431.873    23404445.200
       205.000         145.000
  -4383394.44149  -3408447.58047  20202484.711    20202483.842    20202493.055
       241.000         205.000
  -2059330.64249  -1580827.64945  23036425.876    23036425.594    23036440.838
       211.000         150.000
   5016522.37249   3907051.20346  21645817.296    21645816.736    21645829.197
       225.000         181.000
   3491390.07949   2720906.19947  20809197.494    20809196.754    20809207.857
       234.000         195.000
  -6691746.54849  -5198372.84047  21474415.219    21474415.076    21474425.090
       235.000         193.000
  -9872055.32549  -7431647.88347  19472874.326    19472873.439    19472882.578
       235.000         205.000
  -2343970.16849  -1814946.56046  23188689.811    23188689.294    23188701.264
       219.000         166.000
   8579681.76949   6559222.45045  23529953.606    23529953.531    23529967.597
       211.000         155.000
 00  4 18 15 29 29.9960000  0  9G 9G 2G 4G27G 8G26G 7G11G13
  -6316214.46549  -4889822.71545  23379277.406    23379277.002    23379290.299
       204.000         145.000
  -4405833.67749  -3425932.74047  20198214.739    20198213.861    20198223.053
       241.000         205.000
  -2196091.22349  -1687394.24445  23010401.200    23010400.883    23010415.873
       214.000         151.000
   5078971.11049   3955712.33046  21657700.918    21657700.377    21657713.039
       225.000         180.000
   3543533.71949   2761537.45847  20819120.222    20819119.463    20819130.520
       234.000         194.000
  -6704606.79149  -5208393.89247  21471968.100    21471967.944    21471977.913
       236.000         194.000
  -9914383.18849  -7464630.63447  19464819.563    19464818.688    19464827.853
       235.000         205.000
  -2327576.89249  -1802172.70646  23191809.392    23191808.919    23191820.995
       222.000         168.000
   8650693.84349   6614556.20745  23543467.071    23543466.957    23543481.004
       215.000         156.000
 00  4 18 15 29 59.9960000  0  9G 9G 2G 4G27G 8G26G 7G11G13
  -6448328.71949  -4992768.89045  23354136.686    23354136.382    23354149.850
       206.000         146.000
  -4428137.82649  -3443312.64447  20193970.421    20193969.548    20193978.765
       240.000         205.000
  -2332901.69849  -1793999.70745  22984366.847    22984366.483    22984381.544
       212.000         151.000
   5141714.42349   4004602.98046  21669640.767    21669640.193    21669652.912
       225.000         179.000
   3596006.52549   2802425.19347  20829105.604    20829104.838    20829115.889
       233.000         194.000
  -6716969.79249  -5218027.47947  21469615.574    21469615.435    21469625.442
       234.000         194.000
  -9956288.67449  -7497284.27447  19456845.239    19456844.355    19456853.513
       235.000         205.000
  -2310724.62749  -1789041.19346  23195016.451    23195015.897    23195028.066
       222.000         166.000
   8721665.76349   6669858.69045  23556972.878    23556972.641    23556986.876
       211.000         155.000
 00  4 18 15 30 29.9960000  0  9G 9G 2G 4G27G 8G26G 7G11G13
  -6580374.22549  -5095661.50145  23329009.317    23329009.000    23329022.571
       207.000         147.000
  -4450307.87149  -3460588.04447  20189751.624    20189750.752    20189760.011
       240.000         205.000
  -2469752.08649  -1900636.29545  22958324.921    22958324.648    22958339.615
       212.000         152.000
   5204756.48649   4053726.44046  21681637.466    21681636.855    21681649.626
       224.000         179.000
   3648794.48449   2843558.50447  20839150.892    20839150.162    20839161.267
       233.000         195.000
  -6728841.05849  -5227277.88547  21467356.572    21467356.449    21467366.552
       235.000         194.000
  -9997763.16849  -7529602.06847  19448952.932    19448952.053    19448961.219
       235.000         205.000
  -2293430.83449  -1775565.62346  23198307.500    23198306.975    23198319.025
       222.000         166.000
   8792593.80749   6725126.98945  23570470.442    23570470.141    23570484.288
       212.000         154.000
 00  4 18 15 30 59.9960000  0  9G 9G 2G 4G27G 8G26G 7G11G13
  -6712350.79149  -5198500.39845  23303895.028    23303894.600    23303908.408
       206.000         147.000
  -4472324.12749  -3477743.60347  20185562.117    20185561.243    20185570.527
       240.000         206.000
  -2606616.02149  -2007283.41945  22932280.474    22932280.119    22932295.038
       212.000         150.000
   5268135.23549   4103112.24746  21693698.148    21693697.583    21693710.331
       224.000         178.000
   3701919.70649   2884954.61847  20849260.439    20849259.700    20849270.810
       234.000         195.000
  -6740205.97249  -5236133.73647  21465194.012    21465193.884    21465203.928
       235.000         194.000
 -10038788.17749  -7561569.61947  19441146.139    19441145.264    19441154.437
       234.000         205.000
  -2275682.38349  -1761735.77346  23201685.125    23201684.546    23201696.505
       220.000         165.000
   8863483.89249   6780365.69445  23583960.764    23583960.430    23583974.558
       212.000         154.000
 00  4 18 15 31 29.9960000  0  9G 9G 2G 4G27G 8G26G 7G11G13
  -6844261.86649  -5301288.26545  23278793.255    23278792.772    23278806.580
       207.000         148.000
  -4494192.51749  -3494783.94847  20181400.740    20181399.859    20181409.177
       240.000         205.000
  -2743509.53649  -2113953.59745  22906230.351    22906230.066    22906244.984
       213.000         151.000
   5331846.22349   4152756.94246  21705822.126    21705821.565    21705834.333
       224.000         179.000
   3755367.36749   2926601.98047  20859431.346    20859430.605    20859441.696
       234.000         194.000
  -6751067.07849  -5244597.01047  21463127.250    21463127.149    21463137.180
       234.000         193.000
 -10079381.35649  -7593200.67747  19433421.516    19433420.681    19433429.829
       235.000         205.000
  -2257501.08649  -1747568.64546  23205144.912    23205144.377    23205156.384
       220.000         163.000
   8934318.84049   6835561.42845  23597440.683    23597440.157    23597454.327
       212.000         154.000
 00  4 18 15 31 59.9960000  0  9G 9G 2G 4G27G 8G26G 7G11G13
  -6976128.79349  -5404041.71145  23253699.760    23253699.362    23253713.216
       210.000         149.000
  -4515926.34049  -3511719.42947  20177264.921    20177264.061    20177273.436
       240.000         205.000
  -2880439.22749  -2220651.97945  22880173.343    22880173.116    22880187.898
       212.000         151.000
   5395871.53749   4202646.56146  21718005.874    21718005.332    21718018.150
       223.000         178.000
   3809115.21049   2968483.24747  20869659.432    20869658.656    20869669.740
       234.000         194.000
  -6761420.71849  -5252664.85347  21461157.034    21461156.939    21461167.090
       235.000         194.000
 -10119539.96349  -7624493.11347  19425779.683    19425778.794    19425787.951
       234.000         205.000
  -2238896.11449  -1733071.36146  23208685.327    23208684.865    23208696.893
       220.000         163.000
   9005089.57449   6890707.11945  23610908.179    23610907.518    23610921.815
       212.000         154.000
 00  4 18 15 32 29.9960000  0  9G 9G 2G 4G27G 8G26G 7G11G13
  -7107956.78349  -5506764.83345  23228613.782    23228613.332    23228627.280
       212.000         151.000
  -4537523.57849  -3528548.48147  20173155.115    20173154.265    20173163.675
       241.000         206.000
  -3017390.32049  -2327367.02845  22854112.175    22854112.043    22854126.830
       212.000         153.000
   5460213.81349   4252783.16846  21730249.842    21730249.349    21730262.297
       223.000         177.000
   3863184.04749   3010614.63747  20879948.576    20879947.796    20879958.906
       233.000         194.000
  -6771255.24449  -5260328.19347  21459285.653    21459285.548    21459295.753
       235.000         194.000
 -10159268.11849  -7655450.12447  19418219.617    19418218.766    19418227.972
       234.000         205.000
  -2219848.89949  -1718229.48246  23212310.013    23212309.525    23212321.558
       221.000         164.000
   9075808.94349   6945812.80145  23624365.572    23624365.125    23624379.534
       210.000         152.000
 00  4 18 15 32 59.9960000  0  9G 9G 2G 4G27G 8G26G 7G11G13
  -7239733.74449  -5609448.20845  23203537.627    23203537.027    23203550.910
       211.000         150.000
  -4558970.46549  -3545260.37947  20169073.982    20169073.120    20169082.530
       241.000         206.000
  -3154361.43549  -2434097.68145  22828047.222    22828047.133    22828062.057
       212.000         153.000
   5524858.99949   4303155.79946  21742551.520    21742551.066    21742564.160
       222.000         177.000
   3917584.71149   3053004.58747  20890300.851    20890300.087    20890311.242
       233.000         194.000
  -6780581.95249  -5267595.83747  21457510.901    21457510.763    21457521.048
       234.000         194.000
 -10198566.39649  -7686072.17947  19410741.427    19410740.588    19410749.781
       235.000         205.000
  -2200353.49249  -1703038.34646  23216020.066    23216019.532    23216031.569
       219.000         163.000
   9146474.33049   7000876.42645  23637812.795    23637812.442    23637826.892
       212.000         152.000
 00  4 18 15 33 29.9960000  0  9G 9G 2G 4G27G 8G26G 7G11G13
  -7371445.82249  -5712080.99945  23178473.685    23178473.102    23178486.855
       213.000         152.000
  -4580270.75549  -3561858.04347  20165020.701    20165019.836    20165029.265
       241.000         206.000
  -3291349.27449  -2540841.37745  22801979.133    22801979.179    22801994.132
       214.000         154.000
   5589777.56349   4353741.45746  21754905.361    21754904.866    21754918.046
       224.000         177.000
   3972317.93249   3095653.66347  20900716.335    20900715.595    20900726.821
       232.000         194.000
  -6789413.79849  -5274477.87647  21455830.285    21455830.174    21455840.500
       235.000         194.000
 -10237440.90549  -7716364.01247  19403343.920    19403343.049    19403352.205
       235.000         205.000
  -2180400.14249  -1687490.35945  23219817.173    23219816.553    23219828.666
       218.000         160.000
   9217091.38449   7055902.38345  23651250.913    23651250.565    23651265.178
       208.000         151.000
 00  4 18 15 33 59.9960000  0  9G 9G 2G 4G27G 8G26G 7G11G13
  -7503094.57249  -5814664.45645  23153421.821    23153421.310    23153435.055
       214.000         153.000
  -4601421.77949  -3578339.39547  20160995.835    20160994.984    20161004.405
       241.000         206.000
  -3428355.07749  -2647599.04645  22775907.678    22775907.718    22775922.849
       215.000         157.000
   5654961.99349   4404534.27446  21767309.809    21767309.275    21767322.524
       224.000         177.000
   4027375.40849   3138555.41547  20911193.469    20911192.791    20911204.126
       232.000         193.000
  -6797762.20549  -5280983.21047  21454241.749    21454241.625    21454251.980
       235.000         194.000
 -10275889.40349  -7746323.90247  19396027.372    19396026.522    19396035.713
       234.000         205.000
  -2159982.32949  -1671580.47645  23223702.574    23223702.002    23223714.090
       218.000         161.000
   9287666.79749   7110895.87845  23664681.002    23664680.863    23664695.526
       211.000         151.000
 00  4 18 15 34 29.9960000  0  9G 9G 2G 4G27G 8G26G 7G11G13
  -7634651.42449  -5917176.28845  23128387.505    23128386.924    23128400.617
       216.000         153.000
  -4622403.77449  -3594689.03947  20157003.103    20157002.255    20157011.691
       241.000         206.000
  -3565349.11149  -2754347.55945  22749838.599    22749838.604    22749853.815
       216.000         157.000
   5720424.76949   4455543.98946  21779767.254    21779766.668    21779779.875
       223.000         177.000
   4082767.51549   3181717.91247  20921734.401    20921733.712    20921745.122
       232.000         193.000
  -6805636.84749  -5287119.36347  21452743.290    21452743.171    21452753.606
       235.000         194.000
 -10313903.93349  -7775945.63747  19388793.418    19388792.587    19388801.784
       235.000         205.000
  -2139093.26249  -1655303.35145  23227677.789    23227677.186    23227689.247
       217.000         158.000
   9358206.74849   7165861.75145  23678104.511    23678104.269    23678119.131
       210.000         150.000
 00  4 18 15 34 59.9960000  0  9G 9G 2G 4G27G 8G26G 7G11G13
  -7766128.67249  -6019626.06845  23103368.218    23103367.607    23103381.344
       215.000         155.000
  -4643236.19949  -3610922.13447  20153038.840    20153038.013    20153047.468
       241.000         206.000
  -3702338.73449  -2861092.61745  22723770.629    22723770.484    22723785.530
       217.000         157.000
   5786145.31649   4506754.57346  21792273.611    21792273.071    21792286.330
       223.000         177.000
   4138464.02949   3225117.61147  20932333.255    20932332.541    20932344.018
       232.000         193.000
  -6813046.11949  -5292892.91347  21451333.435    21451333.310    21451343.733
       235.000         194.000
 -10351490.49449  -7805233.88647  19381640.988    19381640.132    19381649.282
       235.000         205.000
  -2117755.05749  -1638676.25445  23231738.229    23231737.699    23231749.728
       216.000         160.000
   9428676.04249   7220772.56045  23691514.765    23691514.396    23691529.492
       210.000         149.000
 00  4 18 15 35 29.9960000  0  9G 9G 2G 4G27G 8G26G 7G11G13
  -7897533.31249  -6122019.27945  23078362.663    23078362.076    23078375.845
       214.000         154.000
  -4663942.77849  -3627057.16747  20149098.610    20149097.744    20149107.189
       241.000         206.000
  -3839327.99749  -2967837.38345  22697702.525    22697702.215    22697717.368
       218.000         157.000
   5852109.75249   4558155.19346  21804826.414    21804825.843    21804839.229
       224.000         177.000
   4194433.36749   3268729.89547  20942983.946    20942983.236    20942994.774
       231.000         193.000
  -6819993.88749  -5298306.84547  21450011.442    21450011.296    21450021.619
       235.000         194.000
 -10388667.83249  -7834203.26147  19374566.416    19374565.515    19374574.657
       234.000         205.000
  -2095984.77349  -1621712.46845  23235881.053    23235880.492    23235892.676
       218.000         160.000
   9499067.64149   7275622.84345  23704910.093    23704909.798    23704924.923
       211.000         149.000
 00  4 18 15 35 59.9960000  0  9G 9G 2G 4G27G 8G26G 7G11G13
  -8028833.92049  -6224331.42845  23053376.823    23053376.334    23053390.120
       215.000         156.000
  -4684497.24749  -3643073.67147  20145187.265    20145186.397    20145195.844
       240.000         206.000
  -3976287.57449  -3074559.04345  22671640.028    22671639.614    22671654.738
       215.000         157.000
   5918352.85749   4609772.94846  21817432.353    21817431.715    21817445.155
       223.000         175.000
   4250683.99749   3312561.36847  20953688.159    20953687.490    20953699.094
       232.000         193.000
  -6826456.66749  -5303342.85847  21448781.637    21448781.498    21448791.833
       235.000         193.000
 -10425409.46149  -7862833.12147  19367574.702    19367573.831    19367582.929
       235.000         205.000
  -2073780.79049  -1604410.73945  23240106.387    23240105.866    23240118.004
       217.000         160.000
   9569388.91349   7330418.28045  23718292.167    23718291.854    23718307.156
       211.000         149.000
 00  4 18 15 36 29.9960000  0  9G 9G 2G 4G27G 8G26G 7G11G13
  -8160020.49949  -6326554.71145  23028412.790    23028412.336    23028426.125
       217.000         157.000
  -4704904.18249  -3658975.21847  20141304.046    20141303.138    20141312.558
       241.000         206.000
  -4113205.81849  -3181248.48045  22645585.211    22645584.750    22645599.970
       215.000         157.000
   5984865.96249   4661601.09246  21830089.564    21830088.920    21830102.450
       223.000         175.000
   4307228.47049   3356621.80747  20964448.385    20964447.713    20964459.353
       232.000         192.000
  -6832431.71949  -5307998.83047  21447644.668    21447644.530    21447654.923
       235.000         193.000
 -10461718.69349  -7891126.05247  19360665.331    19360664.463    19360673.550
       235.000         205.000
  -2051149.10049  -1586775.72345  23244413.230    23244412.615    23244424.813
       216.000         159.000
   9639632.69349   7385153.36545  23731659.470    23731659.135    23731674.361
       210.000         147.000
 00  4 18 15 36 59.9960000  0  9G 9G 2G 4G27G 8G26G 7G11G13
  -8291093.41449  -6428689.42145  23003470.450    23003470.027    23003483.874
       218.000         158.000
  -4725179.83149  -3674774.46347  20137445.710    20137444.821    20137454.253
       241.000         206.000
  -4250110.64549  -3287927.45645  22619532.854    22619532.606    22619547.665
       216.000         157.000
   6051629.64649   4713624.49346  21842794.456    21842793.795    21842807.471
       222.000         174.000
   4364065.31249   3400910.07547  20975264.255    20975263.523    20975275.264
       231.000         192.000
  -6837908.59049  -5312266.60647  21446602.503    21446602.373    21446612.773
       235.000         193.000
 -10497597.18149  -7919083.33147  19353837.944    19353837.048    19353846.135
       235.000         205.000
  -2028096.92949  -1568813.05445  23248799.949    23248799.398    23248811.497
       217.000         159.000
   9709799.61049   7439828.54245  23745012.306    23745011.984    23745026.961
       208.000         148.000
 00  4 18 15 37 29.9960000  0  9G 9G 2G 4G27G 8G26G 7G11G13
  -8422038.45849  -6530724.48645  22978552.486    22978551.946    22978565.731
       218.000         159.000
  -4745316.22949  -3690465.20347  20133613.902    20133613.027    20133622.494
       240.000         206.000
  -4387000.16449  -3394594.50645  22593483.550    22593483.318    22593498.193
       217.000         158.000
   6118651.45749   4765849.02846  21855548.369    21855547.749    21855561.526
       220.000         174.000
   4421214.58849   3445441.79047  20986139.395    20986138.721    20986150.578
       231.000         190.000
  -6842891.03649  -5316149.12247  21445654.422    21445654.317    21445664.666
       235.000         193.000
 -10533043.06949  -7946703.52647  19347092.819    19347091.942    19347101.024
       235.000         205.000
  -2004626.52749  -1550524.47245  23253266.302    23253265.720    23253277.847
       216.000         157.000
   9779903.06949   7494454.25945  23758352.734    23758352.555    23758367.460
       209.000         146.000
 00  4 18 15 37 59.9960000  0  9G 9G 2G 4G27G 8G26G 7G11G13
  -8552845.40549  -6632651.94645  22953660.862    22953660.288    22953673.954
       217.000         159.000
  -4765290.00849  -3706029.23447  20129813.037    20129812.148    20129821.649
       240.000         206.000
  -4523869.65249  -3501245.96245  22567438.086    22567437.890    22567452.602
       217.000         159.000
   6185950.75149   4818289.77646  21868355.105    21868354.463    21868368.342
       220.000         172.000
   4478698.02549   3490233.87647  20997078.221    20997077.585    20997089.405
       232.000         190.000
  -6847370.48249  -5319639.68747  21444802.090    21444801.975    21444812.337
       235.000         193.000
 -10568035.08549  -7973970.05847  19340434.090    19340433.200    19340442.283
       234.000         205.000
  -1980720.69249  -1531896.61645  23257815.357    23257814.867    23257827.034
       216.000         156.000
   9849946.57749   7549033.29445  23771681.686    23771681.704    23771696.498
       206.000         146.000
 00  4 18 15 38 29.9960000  0  9G 9G 2G 4G27G 8G26G 7G11G13
  -8683519.54449  -6734475.91445  22928794.346    22928793.793    22928807.434
       218.000         160.000
  -4785104.45449  -3721469.09847  20126042.500    20126041.629    20126051.113
       240.000         206.000
  -4660729.33049  -3607889.76845  22541394.426    22541394.328    22541408.877
       217.000         159.000
   6253517.20949   4870938.70346  21881212.706    21881212.141    21881226.024
       219.000         172.000
   4536532.48049   3535299.49047  21008084.109    21008083.390    21008095.041
       232.000         190.000
  -6851341.17249  -5322733.81647  21444046.620    21444046.487    21444056.858
       235.000         193.000
 -10602570.54749  -8000880.83047  19333862.204    19333861.315    19333870.443
       234.000         204.000
  -1956368.55049  -1512920.97545  23262449.432    23262449.002    23262461.037
       213.000         153.000
   9919937.24449   7603571.14645  23785000.669    23785000.587    23785015.513
       207.000         144.000
 00  4 18 15 38 59.9960000  0  9G 9G 2G 4G27G 8G26G 7G11G13
  -8814067.20449  -6836201.32545  22903951.995    22903951.437    22903964.967
       218.000         161.000
  -4804760.52849  -3736785.56047  20122302.082    20122301.211    20122310.723
       240.000         206.000
  -4797582.03649  -3714528.14245  22515352.097    22515352.059    22515366.640
       217.000         159.000
   6321365.96849   4923807.60346  21894124.115    21894123.546    21894137.423
       217.000         172.000
   4594703.03449   3580626.98647  21019153.865    21019153.071    21019164.667
       231.000         190.000
  -6854805.57649  -5325433.43947  21443387.393    21443387.256    21443397.689
       234.000         193.000
 -10636654.83949  -8027440.04247  19327376.155    19327375.297    19327384.453
       234.000         204.000
  -1931565.25449  -1493593.79645  23267169.369    23267168.835    23267181.043
       216.000         157.000
   9989861.85749   7658057.51545  23798307.029    23798307.082    23798322.081
       204.000         144.000
 00  4 18 15 39 29.9960000  0  9G 9G 2G 4G27G 8G26G 7G11G13
  -8944524.03149  -6937855.95246  22879126.913    22879126.296    22879139.809
       220.000         163.000
  -4824279.04349  -3751994.82947  20118587.818    20118586.962    20118596.509
       240.000         206.000
  -4934444.42649  -3821174.06845  22489308.010    22489308.020    22489322.541
       218.000         160.000
   6389494.71149   4976894.66246  21907088.709    21907088.178    21907102.166
       218.000         172.000
   4653172.03649   3626187.04947  21030280.213    21030279.485    21030291.137
       231.000         190.000
  -6857804.97049  -5327770.71547  21442816.636    21442816.530    21442827.021
       234.000         193.000
 -10670323.51149  -8053675.39047  19320969.224    19320968.370    19320977.536
       234.000         205.000
  -1906340.47949  -1473938.17745  23271969.699    23271969.161    23271981.252
       217.000         157.000
  10059682.48449   7712462.88945  23811593.544    23811593.610    23811608.742
       200.000         141.000
 00  4 18 15 39 59.9960000  0  9G 9G 2G 4G27G 8G26G 7G11G13
  -9074913.41049  -7039458.03846  22854314.656    22854314.074    22854327.507
       220.000         164.000
  -4843674.17749  -3767107.96947  20114897.120    20114896.260    20114905.799
       241.000         206.000
  -5071326.91949  -3927835.66945  22463260.170    22463260.061    22463274.661
       217.000         160.000
   6457879.82249   5030181.49146  21920102.208    21920101.613    21920115.741
       219.000         171.000
   4711918.13949   3671963.03947  21041459.369    21041458.653    21041470.352
       231.000         189.000
  -6860348.56949  -5329752.82847  21442332.711    21442332.590    21442343.115
       234.000         192.000
 -10703592.64749  -8079599.41847  19314638.378    19314637.508    19314646.686
       234.000         205.000
  -1880711.72949  -1453967.76745  23276846.859    23276846.169    23276858.286
       218.000         158.000
  10129380.67549   7766772.83645  23824856.809    23824856.814    23824872.278
       203.000         144.000
 00  4 18 15 40 29.9960000  0  9G 9G 2G 4G27G 8G26G 7G11G13
  -9205217.37149  -7140993.55846  22829518.670    22829518.124    22829531.496
       220.000         164.000
  -4862932.86349  -3782114.78047  20111232.348    20111231.482    20111241.005
       240.000         206.000
  -5208189.88049  -4034482.04745  22437215.962    22437215.789    22437230.512
       217.000         161.000
   6526535.50749   5083679.17046  21933167.181    21933166.576    21933180.771
       219.000         171.000
   4770966.79649   3717974.79147  21052696.093    21052695.408    21052707.099
       230.000         190.000
  -6862417.82849  -5331365.32447  21441939.030    21441938.882    21441949.471
       234.000         193.000
 -10736456.96849  -8105208.00547  19308384.508    19308383.659    19308392.825
       234.000         205.000
  -1854664.68149  -1433671.43045  23281803.684    23281802.964    23281814.997
       216.000         157.000
  10198977.48249   7821003.82445  23838100.801    23838100.654    23838116.175
       201.000         142.000
 00  4 18 15 40 59.9960000  0  9G 9G 2G 4G27G 8G26G 7G11G13
  -9335448.92549  -7242472.66146  22804736.426    22804735.926    22804749.208
       221.000         166.000
  -4882066.20949  -3797023.92447  20107591.425    20107590.551    20107600.093
       241.000         206.000
  -5345029.33749  -4141110.11445  22411176.204    22411176.055    22411190.774
       216.000         160.000
   6595459.26349   5137385.71246  21946283.223    21946282.549    21946296.823
       218.000         171.000
   4830294.43649   3764203.92247  21063985.872    21063985.190    21063996.914
       230.000         189.000
  -6864032.67349  -5332623.72947  21441631.754    21441631.608    21441642.219
       234.000         192.000
 -10768929.51049  -8130511.30747  19302205.249    19302204.391    19302213.545
       235.000         205.000
  -1828210.86349  -1413058.14845  23286837.682    23286836.927    23286849.140
       214.000         156.000
  10268457.08649   7875143.44045  23851322.442    23851322.401    23851338.079
       203.000         144.000
 00  4 18 15 41 29.9960000  0  9G 9G 2G 4G27G 8G26G 7G11G13
  -9465591.13949  -7343882.14146  22779971.075    22779970.646    22779983.903
       221.000         166.000
  -4901050.12349  -3811816.62647  20103978.958    20103978.078    20103987.619
       240.000         206.000
  -5481822.61349  -4247702.20346  22385145.238    22385145.065    22385159.833
       217.000         163.000
   6664636.91749   5191290.09046  21959447.462    21959446.904    21959461.106
       218.000         171.000
   4889916.75349   3810662.67647  21075331.766    21075331.101    21075342.890
       230.000         188.000
  -6865189.08149  -5333524.91747  21441411.830    21441411.641    21441422.268
       234.000         192.000
 -10800992.34149  -8155495.35647  19296103.918    19296103.071    19296112.227
       235.000         205.000
  -1801343.81249  -1392122.85845  23291950.406    23291949.629    23291961.783
       215.000         155.000
  10337841.35149   7929208.80445  23864526.274    23864526.232    23864541.693
       206.000         144.000
 00  4 18 15 41 59.9960000  0  9G 9G 2G 4G27G 8G26G 7G11G13
  -9595640.99649  -7445219.64946  22755223.465    22755222.974    22755236.207
       221.000         167.000
  -4919881.40249  -3826490.39347  20100395.520    20100394.620    20100404.207
       240.000         206.000
  -5618559.25849  -4354250.16645  22359125.013    22359124.802    22359139.598
       216.000         161.000
   6734030.01649   5245362.35246  21972652.776    21972652.215    21972666.367
       216.000         169.000
   4949832.87849   3857350.37847  21086733.625    21086732.948    21086744.797
       230.000         189.000
  -6865893.94649  -5334074.24447  21441277.822    21441277.609    21441288.200
       235.000         193.000
 -10832656.97449  -8180169.11847  19290078.431    19290077.560    19290086.727
       234.000         206.000
  -1774063.07349  -1370865.18945  23297141.718    23297140.914    23297153.232
       215.000         156.000
  10407122.26249   7983193.64445  23877710.524    23877710.437    23877725.551
       203.000         143.000
 00  4 18 15 42 29.9960000  0  9G 9G 2G 4G27G 8G26G 7G11G13
  -9725578.70449  -7546469.75946  22730497.073    22730496.586    22730509.840
       221.000         167.000
  -4938553.81049  -3841040.36647  20096842.215    20096841.377    20096851.016
       240.000         206.000
  -5755235.59949  -4460751.13645  22333116.212    22333116.117    22333130.936
       216.000         162.000
   6803639.55149   5299603.28046  21985899.122    21985898.572    21985912.889
       215.000         169.000
   5010038.55649   3904263.69447  21098190.612    21098189.896    21098201.779
       231.000         189.000
  -6866155.09849  -5334277.82947  21441228.165    21441227.985    21441238.579
       235.000         193.000
 -10863924.63449  -8204533.55047  19284128.414    19284127.561    19284136.725
       234.000         205.000
  -1746350.59549  -1349271.12645  23302415.260    23302414.514    23302426.831
       214.000         157.000
  10476296.98449   8037095.73045  23890874.603    23890874.520    23890889.409
       206.000         143.000
 00  4 18 15 42 59.9960000  0  9G 9G 2G 4G27G 8G26G 7G11G13
  -9855372.33849  -7647607.61346  22705798.032    22705797.616    22705810.893
       221.000         168.000
  -4957033.45649  -3855440.13147  20093325.703    20093324.850    20093334.534
       241.000         206.000
  -5891838.70649  -4567195.03045  22307121.364    22307121.281    22307136.217
       215.000         162.000
   6873485.36749   5354028.30746  21999190.489    21999189.919    21999204.390
       217.000         170.000
   5070546.66049   3951412.67047  21109705.116    21109704.370    21109716.287
       229.000         188.000
  -6865946.27749  -5334115.20447  21441268.023    21441267.815    21441278.449
       235.000         193.000
 -10894768.91849  -8228568.07947  19278258.936    19278258.076    19278267.271
       234.000         205.000
  -1718190.88049  -1327328.56845  23307773.774    23307773.126    23307785.534
       214.000         156.000
  10545371.71649   8090919.89845  23904019.821    23904019.467    23904034.165
       204.000         143.000
 00  4 18 15 43 29.9960000  0  9G 9G 2G 4G27G 8G26G 7G11G13
  -9985004.02449  -7748619.23746  22681129.864    22681129.435    22681142.755
       221.000         167.000
  -4975302.84349  -3869676.04947  20089849.215    20089848.361    20089858.045
       241.000         206.000
  -6028364.72649  -4673578.86646  22281141.113    22281141.099    22281156.198
       216.000         163.000
   6943566.81449   5408636.94646  22012526.894    22012526.218    22012540.678
       216.000         169.000
   5131369.83249   3998807.15047  21121279.519    21121278.794    21121290.711
       230.000         188.000
  -6865247.55249  -5333570.82647  21441401.021    21441400.820    21441411.513
       235.000         193.000
 -10925188.27949  -8252271.50247  19272470.316    19272469.431    19272478.689
       234.000         205.000
  -1689587.04749  -1305039.94045  23313216.895    23313216.220    23313228.789
       211.000         153.000
  10614342.01149   8144662.68545  23917145.021    23917144.369    23917159.379
       207.000         144.000
 00  4 18 15 43 59.9960000  0  9G 9G 2G 4G27G 8G26G 7G11G13
 -10114473.59749  -7849504.56146  22656492.618    22656492.183    22656505.472
       222.000         167.000
  -4993386.44349  -3883767.19847  20086408.086    20086407.243    20086416.896
       239.000         206.000
  -6164832.86149  -4779917.58746  22255171.947    22255171.988    22255187.142
       217.000         164.000
   7013899.97349   5463441.71946  22025911.076    22025910.454    22025924.928
       215.000         169.000
   5192490.07449   4046433.12446  21132910.419    21132909.695    21132921.665
       229.000         187.000
  -6864052.24649  -5332639.51747  21441628.525    21441628.363    21441638.999
       235.000         193.000
 -10955200.51449  -8275657.69047  19266759.164    19266758.301    19266767.588
       233.000         205.000
  -1660539.75549  -1282405.77445  23318744.223    23318743.625    23318756.281
       209.000         152.000
  10683187.39349   8198308.15445  23930246.392    23930245.404    23930260.466
       202.000         141.000
 00  4 18 15 44 29.9960000  0  9G 9G 2G 4G27G 8G26G 7G11G13
 -10243823.88949  -7950296.90546  22631878.042    22631877.599    22631890.782
       221.000         168.000
  -5011338.85849  -3897756.12347  20082991.899    20082991.069    20083000.718
       239.000         206.000
  -6301294.94149  -4886251.57246  22229204.137    22229204.093    22229219.262
       217.000         164.000
   7084478.87149   5518437.97246  22039341.958    22039341.392    22039355.920
       215.000         168.000
   5253862.50849   4094255.62047  21144589.267    21144588.550    21144600.654
       229.000         188.000
  -6862388.62249  -5331343.27247  21441945.163    21441944.997    21441955.621
       235.000         192.000
 -10984833.47049  -8298748.32147  19261120.217    19261119.349    19261128.633
       234.000         205.000
  -1631092.55049  -1259459.99145  23324347.755    23324347.178    23324359.924
       209.000         152.000
  10751867.92449   8251825.11645  23943316.610    23943315.053    23943330.229
       202.000         140.000
 00  4 18 15 44 59.9960000  0  9G 9G 2G 4G27G 8G26G 7G11G13
 -10373053.26249  -8050995.03746  22607286.440    22607286.012    22607299.164
       221.000         169.000
  -5029152.63349  -3911637.02047  20079602.145    20079601.297    20079610.923
       240.000         206.000
  -6437733.09049  -4992566.92246  22203240.806    22203240.680    22203255.799
       215.000         163.000
   7155322.19449   5573640.25846  22052823.209    22052822.676    22052837.267
       214.000         167.000
   5315492.22049   4142278.57246  21156317.115    21156316.426    21156328.654
       228.000         187.000
  -6860251.63149  -5329678.18247  21442351.854    21442351.690    21442362.415
       235.000         193.000
 -11014073.21949  -8321532.57147  19255556.097    19255555.231    19255564.498
       234.000         205.000
  -1601248.86549  -1236205.27445  23330026.868    23330026.333    23330039.032
       209.000         153.000
  10820394.69749   8305222.31045  23956356.970    23956355.472    23956370.845
       201.000         141.000
 00  4 18 15 45 29.9960000  0  9G 9G 2G 4G27G 8G26G 7G11G13
 -10502164.30049  -8151600.95746  22582717.311    22582716.944    22582730.047
       222.000         168.000
  -5046848.08649  -3925425.71047  20076234.861    20076234.011    20076243.630
       240.000         206.000
  -6574142.27849  -5098859.70146  22177282.939    22177282.834    22177297.907
       217.000         165.000
   7226427.83049   5629046.97046  22066354.345    22066353.838    22066368.491
       215.000         168.000
   5377370.78749   4190495.44946  21168092.381    21168091.700    21168104.001
       228.000         187.000
  -6857659.27049  -5327658.24947  21442845.198    21442845.084    21442855.856
       234.000         193.000
 -11042920.15249  -8344010.71447  19250066.774    19250065.874    19250075.161
       234.000         205.000
  -1570999.33249  -1212634.31145  23335783.182    23335782.644    23335795.494
       208.000         152.000
  10888782.31149   8358511.04645  23969370.149    23969369.167    23969384.891
       199.000         140.000
 00  4 18 15 45 59.9960000  0  9G 9G 2G 4G27G 8G26G 7G11G13
 -10631145.35449  -8252105.57846  22558172.992    22558172.594    22558185.637
       222.000         170.000
  -5064421.35049  -3939119.19647  20072890.796    20072889.958    20072899.571
       239.000         206.000
  -6710501.62949  -5205113.64746  22151334.473    22151334.410    22151349.511
       216.000         165.000
   7297803.12049   5684663.78146  22079936.868    22079936.452    22079951.051
       215.000         168.000
   5439506.00749   4238912.31846  21179916.496    21179915.819    21179928.130
       228.000         187.000
  -6854614.82149  -5325286.04647  21443424.613    21443424.476    21443435.295
       235.000         192.000
 -11071358.60349  -8366170.56847  19244655.079    19244654.223    19244663.510
       233.000         204.000
  -1540332.87449  -1188738.44745  23341618.822    23341618.292    23341631.210
       210.000         152.000
  10957052.96449   8411708.64145  23982361.669    23982360.987    23982376.876
       195.000         142.000
 00  4 18 15 46 29.9960000  0  9G 9G 2G 4G27G 8G26G 7G11G13
 -10759992.49049  -8352505.86546  22533654.153    22533653.706    22533666.714
       221.000         169.000
  -5081851.99549  -3952701.54647  20069573.898    20069573.045    20069582.656
       239.000         206.000
  -6846783.31649  -5311307.08546  22125400.890    22125400.747    22125415.871
       217.000         165.000
   7369429.06449   5740475.90346  22093567.111    22093566.691    22093581.322
       215.000         168.000
   5501923.42649   4287549.08246  21191794.308    21191793.652    21191805.970
       229.000         186.000
  -6851124.41849  -5322566.34847  21444088.879    21444088.762    21444099.550
       235.000         192.000
 -11099366.26449  -8387994.74747  19239325.397    19239324.555    19239333.809
       234.000         204.000
  -1509257.60949  -1164524.06045  23347532.461    23347531.811    23347544.722
       208.000         152.000
  11025219.70149   8464825.25345  23995333.445    23995332.733    23995348.797
       201.000         144.000
 00  4 18 15 46 59.9950000  0  9G 9G 2G 4G27G 8G26G 7G11G13
 -10888694.10749  -8452792.75346  22509163.018    22509162.548    22509175.525
       221.000         170.000
  -5099138.30049  -3966171.42747  20066284.379    20066283.549    20066293.232
       239.000         206.000
  -6982980.00649  -5417434.29746  22099483.494    22099483.355    22099498.387
       218.000         166.000
   7441262.03949   5796449.35846  22107236.813    22107236.303    22107250.945
       216.000         168.000
   5564619.88049   4336403.27846  21203725.259    21203724.562    21203736.850
       229.000         186.000
  -6847214.81949  -5319520.00347  21444832.935    21444832.814    21444843.586
       235.000         192.000
 -11126962.07649  -8409497.99147  19234074.110    19234073.279    19234082.510
       234.000         204.000
  -1477807.82949  -1140017.84445  23353517.399    23353516.605    23353529.453
       210.000         153.000
  11093276.45649   8517856.15645  24008284.274    24008283.616    24008299.878
       197.000         141.000
 00  4 18 15 47 29.9950000  0  9G 9G 2G 4G27G 8G26G 7G11G13
 -11017262.80949  -8552976.06946  22484697.201    22484696.723    22484709.642
       221.000         170.000
  -5116296.30649  -3979541.32847  20063019.278    20063018.462    20063028.211
       239.000         206.000
  -7119113.53649  -5523512.28946  22073578.146    22073578.036    22073593.015
       218.000         166.000
   7513274.61349   5852562.76446  22120940.685    22120940.138    22120954.803
       216.000         169.000
   5627589.62449   4385470.42446  21215708.154    21215707.492    21215719.763
       228.000         185.000
  -6842886.77649  -5316147.58947  21445656.646    21445656.516    21445667.327
       235.000         193.000
 -11154169.95349  -8430698.94847  19228896.680    19228895.838    19228905.042
       234.000         204.000
  -1446006.50649  -1115237.68045  23359569.047    23359568.255    23359581.081
       206.000         152.000
  11161207.64649   8570789.20245  24021211.033    24021210.531    24021226.954
       201.000         142.000
 00  4 18 15 47 59.9950000  0  9G 9G 2G 4G27G 8G26G 7G11G13
 -11145668.44349  -8653032.32946  22460262.331    22460261.841    22460274.782
       221.000         170.000
  -5133294.66549  -3992786.83947  20059784.639    20059783.815    20059793.553
       239.000         206.000
  -7255156.86249  -5629519.99646  22047689.948    22047689.820    22047704.749
       218.000         166.000
   7585487.51349   5908832.25046  22134682.627    22134682.090    22134696.696
       217.000         168.000
   5690852.49549   4434765.97646  21227746.871    21227746.185    21227758.424
       228.000         184.000
  -6838103.38149  -5312420.36447  21446566.949    21446566.804    21446577.681
       234.000         192.000
 -11180969.99749  -8451582.11547  19223796.833    19223795.968    19223805.176
       234.000         204.000
  -1413847.87949  -1090179.10645  23365688.543    23365687.905    23365700.753
       207.000         151.000
  11229025.85349   8623634.19845  24034116.454    24034116.039    24034132.638
       198.000         143.000
 00  4 18 15 48 29.9950000  0  9G 9G 2G 4G27G 8G26G 7G11G13
 -11273907.88149  -8752959.11146  22435859.175    22435858.669    22435871.568
       221.000         170.000
  -5150126.40849  -4005902.52447  20056581.742    20056580.897    20056590.617
       239.000         206.000
  -7391101.61149  -5735450.87546  22021820.510    22021820.313    22021835.140
       218.000         165.000
   7657911.96549   5965266.57546  22148464.849    22148464.234    22148478.871
       216.000         168.000
   5754411.13049   4484291.99246  21239841.852    21239841.143    21239853.361
       228.000         184.000
  -6832863.98449  -5308337.81347  21447564.027    21447563.915    21447574.785
       236.000         192.000
 -11207359.89049  -8472145.68847  19218774.971    19218774.113    19218783.363
       233.000         204.000
  -1381328.61549  -1064839.49545  23371876.976    23371876.320    23371889.077
       209.000         152.000
  11296733.72349   8676393.21745  24047001.053    24047000.601    24047017.409
       198.000         143.000
 00  4 18 15 48 59.9950000  0  9G 9G 2G 4G27G 8G26G 7G11G13
 -11401974.53349  -8852751.23846  22411488.839    22411488.330    22411501.269
       220.000         170.000
  -5166776.94049  -4018877.00147  20053413.247    20053412.404    20053422.155
       239.000         206.000
  -7526939.72649  -5841298.65846  21995971.228    21995971.028    21995985.913
       216.000         165.000
   7730577.54449   6021888.80746  22162292.836    22162292.188    22162306.853
       213.000         166.000
   5818259.01349   4534043.39746  21251991.804    21251991.135    21252003.357
       229.000         184.000
  -6827159.08049  -5303892.53747  21448649.756    21448649.593    21448660.457
       235.000         191.000
 -11233331.19249  -8492383.08047  19213832.782    19213831.912    19213841.175
       234.000         204.000
  -1348420.80949  -1039197.15345  23378139.073    23378138.393    23378151.379
       204.000         151.000
  11364339.37149   8729072.54345  24059865.928    24059865.637    24059882.794
       196.000         142.000
 00  4 18 15 49 29.9950000  0  9G 9G 2G 4G27G 8G26G 7G11G13
 -11529917.30949  -8952446.86046  22387142.046    22387141.522    22387154.549
       220.000         170.000
  -5183285.96549  -4031741.22447  20050271.709    20050270.869    20050280.608
       239.000         206.000
  -7662702.36549  -5947087.61546  21970136.252    21970136.208    21970151.048
       218.000         165.000
   7803470.92349   6078688.52546  22176164.060    22176163.451    22176178.263
       215.000         167.000
   5882355.56249   4583988.55346  21264189.154    21264188.474    21264200.673
       228.000         183.000
  -6821016.08449  -5299105.88447  21449818.773    21449818.639    21449829.512
       234.000         192.000
 -11258903.83449  -8512309.82547  19208966.429    19208965.555    19208974.814
       234.000         204.000
  -1315120.74449  -1013249.14745  23384475.651    23384475.122    23384488.277
       204.000         150.000
  11431799.25149   8781638.30745  24072703.323    24072703.028    24072720.262
       197.000         143.000
 00  4 18 15 49 59.9950000  0  9G 9G 2G 4G27G 8G26G 7G11G13
 -11657737.14149  -9052046.67946  22362818.662    22362818.137    22362831.174
       220.000         170.000
  -5199642.74249  -4044486.81647  20047159.190    20047158.353    20047168.063
       240.000         206.000
  -7798382.50349  -6052812.26646  21944317.061    21944316.990    21944331.900
       217.000         167.000
   7876597.75549   6135670.14846  22190079.755    22190079.217    22190094.200
       214.000         167.000
   5946709.32749   4634134.14446  21276435.392    21276434.720    21276446.983
       227.000         183.000
  -6814441.36849  -5293982.83447  21451069.961    21451069.835    21451080.736
       234.000         191.000
 -11284062.36549  -8531913.89147  19204178.925    19204178.060    19204187.325
       234.000         205.000
  -1281406.27549   -986978.22445  23390891.314    23390890.828    23390903.881
       203.000         148.000
  11499114.98349   8834091.72645  24085513.471    24085513.158    24085530.559
       204.000         144.000
 00  4 18 15 50 29.9950000  0  9G 9G 2G 4G27G 8G26G 7G11G13
 -11785436.57549  -9151552.67646  22338518.264    22338517.718    22338530.742
       220.000         171.000
  -5215839.57049  -4057107.77747  20044077.144    20044076.292    20044085.971
       240.000         206.000
  -7933983.36649  -6158475.13746  21918512.999    21918512.892    21918527.806
       216.000         167.000
   7949944.63549   6192823.24646  22204037.496    22204036.951    22204051.963
       214.000         165.000
   6011321.15849   4684480.82346  21288730.720    21288730.069    21288742.396
       226.000         182.000
  -6807454.37849  -5288538.52947  21452399.573    21452399.442    21452410.408
       233.000         190.000
 -11308814.18049  -8551201.02847  19199468.899    19199468.008    19199477.264
       234.000         205.000
  -1247270.22749   -960378.77945  23397387.336    23397386.839    23397399.712
       206.000         151.000
  11566272.00449   8886421.49945  24098293.360    24098293.039    24098310.274
       204.000         147.000
 00  4 18 15 50 59.9950000  0  9G 9G 2G 4G27G 8G26G 7G11G13
 -11912996.05649  -9250949.63746  22314244.396    22314243.883    22314256.896
       220.000         170.000
  -5231867.98849  -4069597.49947  20041027.086    20041026.227    20041035.924
       240.000         206.000
  -8069500.31749  -6264072.59846  21892724.817    21892724.752    21892739.686
       218.000         168.000
   8023517.83449   6250152.69846  22218038.254    22218037.724    22218052.789
       217.000         167.000
   6076199.02949   4735034.79746  21301076.637    21301075.997    21301088.473
       227.000         182.000
  -6800042.06249  -5282762.80047  21453810.121    21453809.992    21453820.990
       234.000         190.000
 -11333153.74149  -8570166.92647  19194837.295    19194836.406    19194845.649
       233.000         205.000
  -1212699.20549   -933440.38645  23403966.039    23403965.521    23403978.468
       201.000         151.000
  11633268.56749   8938626.21945  24111042.675    24111042.362    24111059.718
       202.000         146.000
 00  4 18 15 51 29.9950000  0  9G 9G 2G 4G27G 8G26G 7G11G13
 -12040399.26349  -9350224.81146  22290000.278    22289999.801    22290012.777
       220.000         171.000
  -5247738.28249  -4081964.01547  20038007.108    20038006.259    20038015.969
       240.000         206.000
  -8204937.04549  -6369607.53246  21866952.080    21866951.960    21866966.884
       221.000         168.000
   8097300.40549   6307645.28046  22232078.820    22232078.259    22232093.465
       214.000         167.000
   6141341.34149   4785794.82846  21313472.956    21313472.290    21313484.886
       227.000         182.000
  -6792196.70949  -5276649.64547  21455303.115    21455302.955    21455313.999
       234.000         190.000
 -11357099.23149  -8588825.75947  19190280.607    19190279.732    19190288.986
       234.000         205.000
  -1177713.45049   -906178.85845  23410623.531    23410623.043    23410636.215
       205.000         152.000
  11700090.31549   8990694.71345  24123758.700    24123758.454    24123776.064
       207.000         147.000
 00  4 18 15 51 59.9950000  0  9G 9G 2G 4G27G 8G26G 7G11G13
 -12167614.59249  -9449353.58746  22265791.979    22265791.457    22265804.392
       220.000         171.000
  -5263402.20949  -4094169.73547  20035026.432    20035025.574    20035035.316
       240.000         206.000
  -8340269.10449  -6475060.89046  21841199.165    21841198.974    21841213.990
       219.000         170.000
   8171308.92249   6365313.91746  22246162.415    22246161.914    22246177.127
       215.000         166.000
   6206770.89249   4836778.67346  21325923.917    21325923.234    21325935.924
       227.000         182.000
  -6783893.76549  -5270179.93047  21456883.172    21456883.016    21456894.123
       234.000         190.000
 -11380644.98249  -8607173.11947  19185800.038    19185799.161    19185808.426
       235.000         205.000
  -1142311.38249   -878592.93345  23417360.228    23417359.787    23417373.101
       207.000         153.000
  11766766.49949   9042649.79045  24136447.263    24136446.931    24136464.474
       207.000         145.000
 00  4 18 15 52 29.9950000  0  9G 9G 2G 4G27G 8G26G 7G11G13
 -12294658.72849  -9548348.94846  22241616.216    22241615.714    22241628.675
       220.000         171.000
  -5278895.97049  -4106242.84747  20032078.110    20032077.247    20032087.024
       239.000         207.000
  -8475510.43649  -6580443.55746  21815463.383    21815463.183    21815478.294
       221.000         170.000
   8245535.20649   6423152.24446  22260287.466    22260287.016    22260302.254
       216.000         166.000
   6272447.11949   4887954.72946  21338421.905    21338421.174    21338433.931
       226.000         181.000
  -6775153.42449  -5263369.38747  21458546.471    21458546.298    21458557.488
       233.000         190.000
 -11403825.29149  -8625235.71147  19181389.055    19181388.162    19181397.411
       234.000         205.000
  -1106537.73549   -850717.42545  23424167.819    23424167.383    23424180.674
       206.000         154.000
  11833281.78249   9094479.51145  24149104.939    24149104.641    24149122.453
       201.000         146.000
 00  4 18 15 52 59.9950000  0  9G 9G 2G 4G27G 8G26G 7G11G13
 -12421524.75049  -9647205.51546  22217474.316    22217473.829    22217486.789
       220.000         172.000
  -5294225.93249  -4118188.33747  20029160.966    20029160.116    20029169.887
       240.000         206.000
  -8610647.25549  -6685744.77646  21789747.501    21789747.288    21789762.426
       220.000         171.000
   8319980.89049   6481161.53646  22274454.377    22274453.855    22274469.190
       215.000         165.000
   6338355.82149   4939311.93446  21350964.065    21350963.371    21350976.182
       226.000         180.000
  -6765960.25449  -5256205.99047  21460295.937    21460295.770    21460307.035
       233.000         190.000
 -11426633.33349  -8643008.23647  19177048.829    19177047.966    19177057.202
       234.000         205.000
  -1070402.28349   -822560.01345  23431044.201    23431043.811    23431057.188
       208.000         155.000
  11899640.30149   9146187.02545  24161732.773    24161732.515    24161750.547
       201.000         145.000
 00  4 18 15 53 29.9950000  0  8G 9G 2G 4G27G 8G26G 7G11
 -12548217.88449  -9745927.35446  22193365.385    22193364.899    22193377.851
       220.000         171.000
  -5309386.33449  -4130001.69147  20026276.029    20026275.196    20026285.016
       239.000         206.000
  -8745667.11649  -6790954.85346  21764053.892    21764053.692    21764068.886
       221.000         172.000
   8394636.00649   6539334.01246  22288661.009    22288660.470    22288675.855
       215.000         165.000
   6404488.02049   4990843.31146  21363548.805    21363548.067    21363560.939
       225.000         181.000
  -6756317.31549  -5248692.11247  21462130.981    21462130.823    21462142.098
       234.000         190.000
 -11449076.44949  -8660496.39747  19172778.048    19172777.164    19172786.432
       234.000         205.000
  -1033915.99149   -794129.20145  23437987.604    23437987.146    23438000.447
       211.000         157.000
 00  4 18 15 53 59.9950000  0  8G 9G 2G 4G27G 8G26G 7G11
 -12674736.19349  -9844512.95746  22169289.689    22169289.208    22169302.190
       221.000         172.000
  -5324368.94449  -4141676.51647  20023424.965    20023424.135    20023433.974
       240.000         206.000
  -8880551.36549  -6896059.25946  21738386.065    21738385.923    21738401.105
       221.000         173.000
   8469515.82449   6597681.58046  22302910.330    22302909.837    22302925.362
       214.000         165.000
   6470846.83449   5042551.24946  21376176.594    21376175.840    21376188.839
       224.000         179.000
  -6746235.84049  -5240836.53247  21464049.525    21464049.381    21464060.669
       234.000         191.000
 -11471139.25549  -8677688.22347  19168579.603    19168578.737    19168588.024
       234.000         205.000
   -997078.64649   -765424.83345  23444997.735    23444997.224    23445010.457
       211.000         157.000
 00  4 18 15 54 29.9950000  0  8G 9G 2G 4G27G 8G26G 7G11
 -12801057.46549  -9942945.02646  22145251.479    22145251.054    22145263.949
       221.000         172.000
  -5339180.48449  -4153218.04047  20020606.497    20020605.643    20020615.489
       239.000         206.000
  -9015283.29549  -7001044.98046  21712747.268    21712747.181    21712762.344
       222.000         173.000
   8544622.41149   6656205.83846  22317202.757    22317202.371    22317218.006
       216.000         165.000
   6537443.42749   5094444.45946  21388849.637    21388848.920    21388862.018
       225.000         179.000
  -6735706.88449  -5232632.26947  21466053.311    21466053.133    21466064.374
       234.000         191.000
 -11492802.52449  -8694568.72247  19164457.205    19164456.366    19164465.666
       234.000         205.000
   -959880.65349   -736439.46245  23452076.403    23452075.841    23452089.092
       212.000         158.000
 00  4 18 15 54 59.9950000  0  8G 9G 2G 4G27G 8G26G 7G11
 -12927209.57749 -10041245.26746  22121245.512    22121245.084    22121257.917
       221.000         173.000
  -5353816.71549  -4164622.94747  20017821.343    20017820.499    20017830.385
       239.000         206.000
  -9149884.49949  -7105928.83646  21687133.393    21687133.274    21687148.427
       223.000         173.000
   8619923.68849   6714881.80546  22331532.491    22331532.034    22331547.732
       216.000         164.000
   6604282.58449   5146526.69646  21401568.905    21401568.141    21401581.386
       225.000         179.000
  -6724759.23149  -5224101.73447  21468136.619    21468136.479    21468147.729
       234.000         191.000
 -11514079.58849  -8711148.27247  19160408.324    19160407.490    19160416.817
       234.000         205.000
   -922321.53249   -707172.69745  23459223.703    23459223.194    23459236.496
       215.000         158.000
 00  4 18 15 55 29.9950000  0  8G 9G 2G 4G27G 8G26G 7G11
 -13053207.66449 -10139425.49746  22097268.841    22097268.358    22097281.232
       221.000         173.000
  -5368294.98949  -4175904.78547  20015066.268    20015065.405    20015075.320
       240.000         206.000
  -9284365.11349  -7210718.74646  21661542.445    21661542.338    21661557.389
       222.000         173.000
   8695414.23949   6773705.25046  22345898.151    22345897.695    22345913.524
       212.000         164.000
   6671368.55449   5198801.25246  21414335.106    21414334.324    21414347.680
       225.000         179.000
  -6713415.81649  -5215262.83047  21470295.301    21470295.169    21470306.375
       235.000         191.000
 -11534978.19149  -8727432.93447  19156431.440    19156430.636    19156439.946
       235.000         206.000
   -884400.69149   -677624.06745  23466439.974    23466439.411    23466452.601
       214.000         158.000
 00  4 18 15 55 59.9950000  0  8G 9G 2G 4G27G 8G26G 7G11
 -13179056.48849 -10237489.41346  22073320.519    22073320.026    22073332.949
       222.000         173.000
  -5382627.39749  -4187072.95347  20012338.943    20012338.092    20012348.026
       240.000         206.000
  -9418739.49849  -7315425.88346  21635971.740    21635971.664    21635986.554
       224.000         173.000
   8771085.98149   6832669.87946  22360298.163    22360297.726    22360313.633
       214.000         165.000
   6738704.67749   5251270.73146  21427148.889    21427148.078    21427161.505
       224.000         178.000
  -6701690.60949  -5206126.42147  21472526.668    21472526.529    21472537.742
       234.000         191.000
 -11555495.34449  -8743420.35847  19152527.225    19152526.391    19152535.699
       234.000         206.000
   -846116.25049   -647792.09245  23473725.188    23473724.714    23473737.955
       211.000         158.000
 00  4 18 15 56 29.9950000  0  8G 9G 2G 4G27G 8G26G 7G11
 -13304749.94749 -10335432.27646  22049401.797    22049401.297    22049414.199
       222.000         173.000
  -5396806.43549  -4198121.61347  20009640.844    20009639.995    20009649.885
       240.000         206.000
  -9553005.68949  -7420048.72046  21610421.675    21610421.649    21610436.348
       224.000         173.000
   8846933.00749   6891771.09046  22374731.652    22374731.182    22374747.252
       213.000         163.000
   6806307.01049   5303947.63746  21440013.332    21440012.514    21440025.981
       224.000         177.000
  -6689566.34049  -5196679.05547  21474833.932    21474833.800    21474845.074
       234.000         191.000
 -11575625.50749  -8759106.23947  19148696.665    19148695.805    19148705.093
       235.000         206.000
   -807449.39849   -617662.15645  23481083.254    23481082.799    23481096.054
       213.000         158.000
 00  4 18 15 56 59.9950000  0  8G 9G 2G 4G27G 8G26G 7G11
 -13430272.22149 -10433241.74746  22025515.574    22025515.137    22025528.010
       221.000         173.000
  -5410814.33449  -4209036.91547  20006975.302    20006974.457    20006984.320
       240.000         207.000
  -9687142.73149  -7524570.92346  21584896.187    21584896.146    21584910.715
       223.000         174.000
   8922977.24549   6951025.97145  22389202.659    22389202.200    22389218.273
       212.000         161.000
   6874186.12849   5356840.23346  21452930.409    21452929.618    21452943.199
       224.000         177.000
  -6677033.51249  -5186913.33947  21477218.921    21477218.796    21477230.145
       233.000         190.000
 -11595346.50649  -8774473.28547  19144943.959    19144943.090    19144952.341
       235.000         206.000
   -768377.01749   -587216.21945  23488518.543    23488518.100    23488531.400
       212.000         158.000
 00  4 18 15 57 29.9950000  0  8G 9G 2G 4G27G 8G26G 7G11
 -13555599.23749 -10530899.07546  22001666.534    22001666.061    22001678.995
       222.000         174.000
  -5424662.47349  -4219827.72847  20004340.201    20004339.331    20004349.180
       240.000         207.000
  -9821148.41949  -7628990.79446  21559395.680    21559395.633    21559410.082
       224.000         174.000
   8999214.90549   7010431.56045  22403710.494    22403710.005    22403726.163
       209.000         160.000
   6942323.25649   5409933.85846  21465896.656    21465895.844    21465909.520
       225.000         177.000
  -6664098.63049  -5176834.33547  21479680.438    21479680.305    21479691.708
       233.000         191.000
 -11614666.44049  -8789527.81347  19141267.524    19141266.676    19141275.926
       234.000         206.000
   -728923.24249   -556473.09245  23496026.456    23496025.901    23496039.341
       213.000         156.000
 00  4 18 15 57 59.9950000  0  8G 9G 2G 4G27G 8G26G 7G11
 -13680714.11249 -10628391.10446  21977857.868    21977857.430    21977870.335
       222.000         174.000
  -5438322.93449  -4230472.29347  20001740.756    20001739.899    20001749.751
       240.000         207.000
  -9955014.40549  -7733301.81046  21533921.812    21533921.696    21533936.050
       225.000         174.000
   9075647.38949   7069988.93445  22418255.278    22418254.800    22418271.118
       213.000         161.000
   7010730.48949   5463237.97046  21478914.357    21478913.589    21478927.202
       224.000         178.000
  -6650748.35049  -5166431.64047  21482220.962    21482220.849    21482232.322
       233.000         190.000
 -11633575.37049  -8804262.07147  19137669.315    19137668.477    19137677.717
       234.000         206.000
   -689094.39549   -525437.72145  23503605.800    23503605.274    23503618.705
       213.000         155.000
 00  4 18 15 58 29.9950000  0  8G 9G 2G 4G27G 8G26G 7G11
 -13805599.86849 -10725704.60746  21954092.847    21954092.378    21954105.313
       221.000         174.000
  -5451788.48749  -4240964.98847  19999178.388    19999177.524    19999187.401
       240.000         207.000
 -10088732.90449  -7837497.90546  21508475.926    21508475.761    21508490.072
       224.000         174.000
   9152276.63649   7129699.64245  22432837.685    22432837.181    22432853.512
       211.000         159.000
   7079392.59349   5516740.66246  21491980.511    21491979.824    21491993.412
       225.000         177.000
  -6636986.19349  -5155708.01247  21484839.927    21484839.795    21484851.327
       232.000         189.000
 -11652072.08349  -8818675.12447  19134149.565    19134148.702    19134157.928
       235.000         206.000
   -648897.06949   -494115.20845  23511255.178    23511254.654    23511268.090
       213.000         155.000
 00  4 18 15 58 59.9950000  0  8G 9G 2G 4G27G 8G26G 7G11
 -13930264.76349 -10822846.00346  21930369.802    21930369.368    21930382.310
       222.000         174.000
  -5465062.48549  -4251308.41347  19996652.427    19996651.572    19996661.490
       241.000         207.000
 -10222309.85349  -7941583.72046  21483056.991    21483056.840    21483071.062
       226.000         175.000
   9229095.01949   7189557.70445  22447455.940    22447455.396    22447471.854
       211.000         156.000
   7148290.52949   5570427.14146  21505091.610    21505090.945    21505104.422
       226.000         176.000
  -6622831.67549  -5144678.64047  21487533.511    21487533.371    21487544.967
       233.000         189.000
 -11670171.16349  -8832778.34047  19130705.403    19130704.514    19130713.790
       234.000         205.000
   -608345.94949   -462517.00745  23518971.832    23518971.278    23518984.751
       212.000         153.000
 00  4 18 15 59 29.9950000  0  8G 9G 2G 4G27G 8G26G 7G11
 -14054693.00849 -10919802.99746  21906691.792    21906691.390    21906704.334
       222.000         174.000
  -5478131.96549  -4261492.47747  19994165.451    19994164.607    19994174.517
       240.000         207.000
 -10355733.43549  -8045550.03246  21457667.255    21457667.060    21457681.216
       225.000         174.000
   9306101.42149   7249562.29345  22462110.153    22462109.566    22462126.150
       214.000         158.000
   7217433.78849   5624304.76246  21518249.427    21518248.669    21518262.084
       225.000         177.000
  -6608267.54249  -5133330.09047  21490305.016    21490304.887    21490316.507
       233.000         189.000
 -11687877.91549  -8846575.84047  19127335.911    19127335.048    19127344.343
       234.000         205.000
   -567442.66649   -430644.38645  23526755.535    23526755.024    23526768.405
       212.000         153.000
 00  4 18 15 59 59.9950000  0  8G 9G 2G 4G27G 8G26G 7G11
 -14178894.86449 -11016583.59046  21883056.884    21883056.446    21883069.435
       223.000         175.000
  -5490998.37249  -4271518.30447  19991717.118    19991716.266    19991726.184
       240.000         207.000
 -10488997.49849  -8149392.04846  21432307.847    21432307.683    21432321.786
       226.000         176.000
   9383297.42349   7309714.59745  22476800.275    22476799.702    22476816.522
       210.000         159.000
   7286824.26649   5678375.02346  21531454.277    21531453.499    21531466.901
       224.000         175.000
  -6593281.90349  -5121653.09447  21493156.801    21493156.662    21493168.279
       233.000         189.000
 -11705195.19649  -8860069.85747  19124040.556    19124039.677    19124049.008
       234.000         205.000
   -526170.04049   -398483.96545  23534609.593    23534609.084    23534622.396
       212.000         155.000
 00  4 18 16  0 29.9950000  0  8G 9G 2G 4G27G 8G26G 7G11
 -14302891.59849 -11113204.34746  21859460.990    21859460.590    21859473.589
       223.000         174.000
  -5503693.59449  -4281410.73947  19989301.280    19989300.427    19989310.415
       240.000         206.000
 -10622116.66749  -8253121.17746  21406976.058    21406975.866    21406989.906
       225.000         175.000
   9460657.59649   7369994.81845  22491521.725    22491521.152    22491538.198
       210.000         158.000
   7356428.23349   5732611.62546  21544699.545    21544698.806    21544712.329
       223.000         174.000
  -6577898.32549  -5109666.02947  21496084.273    21496084.134    21496095.823
       233.000         189.000
 -11722168.34249  -8873295.72647  19120810.569    19120809.739    19120819.108
       234.000         205.000
   -484546.74649   -366050.28245  23542530.302    23542529.806    23542543.005
       212.000         153.000
 00  4 18 16  0 59.9950000  0  8G 9G 2G 4G27G 8G26G 7G11
 -14426684.89349 -11209666.57546  21835903.775    21835903.418    21835916.474
       223.000         175.000
  -5516202.59349  -4291158.06047  19986920.888    19986920.031    19986930.076
       240.000         206.000
 -10755064.43749  -8356716.72746  21381676.826    21381676.656    21381690.715
       225.000         176.000
   9538203.09249   7430419.44645  22506278.575    22506277.976    22506295.005
       211.000         156.000
   7426271.77949   5787034.92546  21557990.343    21557989.635    21558003.432
       223.000         175.000
  -6562089.64749  -5097347.70147  21499092.668    21499092.552    21499104.271
       233.000         189.000
 -11738794.59849  -8886251.27947  19117646.718    19117645.902    19117655.290
       234.000         206.000
   -442567.24949   -333339.04845  23550518.776    23550518.174    23550531.628
       213.000         154.000
 00  4 18 16  1 29.9950000  0  8G 9G 2G 4G27G 8G26G 7G11
 -14550270.10849 -11305966.67646  21812386.254    21812385.880    21812398.847
       223.000         176.000
  -5528522.26349  -4300757.86747  19984576.557    19984575.707    19984585.787
       240.000         207.000
 -10887825.58049  -8460166.87746  21356413.202    21356412.975    21356427.013
       226.000         176.000
   9615933.91549   7490988.47245  22521070.587    22521069.962    22521087.086
       211.000         157.000
   7496361.23049   5841649.83246  21571328.056    21571327.340    21571341.332
       222.000         175.000
  -6545854.00249  -5084696.69247  21502182.325    21502182.190    21502193.949
       233.000         189.000
 -11755064.92849  -8898929.50147  19114550.594    19114549.767    19114559.155
       234.000         206.000
   -400233.47249   -300351.75645  23558574.683    23558574.083    23558587.458
       213.000         155.000
 00  4 18 16  1 59.9950000  0  8G 9G 2G 4G27G 8G26G 7G11
 -14673655.30349 -11402110.90946  21788906.859    21788906.410    21788919.339
       224.000         176.000
  -5540648.28049  -4310206.75947  19982269.071    19982268.252    19982278.339
       240.000         207.000
 -11020396.90649  -8563469.10846  21331185.545    21331185.398    21331199.443
       225.000         176.000
   9693862.23149   7551711.38745  22535900.150    22535899.615    22535916.757
       211.000         155.000
   7566697.07049   5896456.72346  21584712.747    21584711.955    21584726.020
       222.000         174.000
  -6529202.52649  -5071721.64447  21505351.123    21505350.990    21505362.757
       233.000         190.000
 -11770961.62749  -8911316.56647  19111525.536    19111524.725    19111534.123
       234.000         206.000
   -357541.06249   -267085.05145  23566698.864    23566698.277    23566711.629
       212.000         153.000
 00  4 18 16  2 29.9950000  0  8G 9G 2G 4G27G 8G26G 7G11
 -14796849.49349 -11498106.32146  21765463.785    21765463.359    21765476.224
       224.000         176.000
  -5552588.64649  -4319510.99847  19979996.935    19979996.121    19980006.229
       241.000         207.000
 -11152788.83249  -8666631.55946  21305992.058    21305991.964    21306005.987
       226.000         177.000
   9771985.46249   7612586.15945  22550766.853    22550766.382    22550783.519
       210.000         156.000
   7637256.91049   5951438.16046  21598139.937    21598139.197    21598153.325
       222.000         173.000
  -6512154.82649  -5058437.87047  21508595.276    21508595.155    21508606.909
       233.000         190.000
 -11786483.92149  -8923411.89747  19108571.805    19108570.993    19108580.388
       235.000         206.000
   -314516.71849   -233559.62645  23574886.234    23574885.602    23574898.926
       210.000         153.000
 00  4 18 16  2 59.9950000  0  8G 9G 2G 4G27G 8G26G 7G11
 -14919862.44449 -11593960.50046  21742055.068    21742054.726    21742067.557
       224.000         176.000
  -5564369.84149  -4328691.20247  19977755.053    19977754.256    19977764.428
       240.000         207.000
 -11285013.72249  -8769663.83746  21280830.461    21280830.346    21280844.317
       226.000         177.000
   9850281.18749   7673595.32045  22565666.455    22565665.998    22565683.033
       211.000         154.000
   7708018.85249   6006577.08846  21611605.611    21611604.886    21611619.116
       222.000         173.000
  -6494749.84349  -5044875.67747  21511907.495    21511907.332    21511919.103
       233.000         189.000
 -11801629.05449  -8935213.33247  19105689.855    19105689.010    19105698.451
       234.000         206.000
   -271174.69449   -199786.69945  23583133.893    23583133.255    23583146.699
       209.000         151.000
 00  4 18 16  3 29.9950000  0  8G 9G 2G 4G27G 8G26G 7G11
 -15042650.89649 -11689639.73246  21718689.201    21718688.847    21718701.647
       225.000         176.000
  -5575980.59849  -4337738.60647  19975545.665    19975544.872    19975555.018
       240.000         207.000
 -11417057.71049  -8872555.15346  21255703.261    21255703.166    21255717.087
       226.000         178.000
   9928751.93849   7734740.88245  22580599.417    22580598.878    22580615.961
       208.000         153.000
   7778998.82149   6061885.89146  21625112.794    21625112.110    21625126.428
       222.000         173.000
  -6476985.08349  -5031033.14647  21515288.098    21515287.949    21515299.728
       232.000         189.000
 -11816371.16449  -8946700.72447  19102884.521    19102883.706    19102893.194
       235.000         206.000
   -227488.58249   -165745.62745  23591447.185    23591446.545    23591459.933
       209.000         153.000
 00  4 18 16  3 59.9950000  0  8G 9G 2G 4G27G 8G26G 7G11
 -15165181.05049 -11785117.70946  21695372.494    21695372.117    21695384.858
       226.000         177.000
  -5587404.39949  -4346640.33347  19973371.889    19973371.071    19973381.173
       241.000         207.000
 -11548904.65949  -8975292.93646  21230613.605    21230613.489    21230627.350
       227.000         178.000
  10007418.52549   7796039.02445  22595569.445    22595568.890    22595586.148
       209.000         154.000
   7850206.05549   6117371.79646  21638663.261    21638662.598    21638677.010
       221.000         172.000
  -6458849.82749  -5016901.92147  21518739.247    21518739.093    21518750.852
       232.000         188.000
 -11830697.50749  -8957864.14747  19100158.371    19100157.530    19100166.998
       235.000         206.000
   -183442.60249   -131424.20645  23599829.102    23599828.444    23599841.758
       209.000         154.000
 00  4 18 16  4 29.9950000  0  8G 9G 2G 4G27G 8G26G 7G11
 -15287448.37449 -11880390.87346  21672105.823    21672105.394    21672118.062
       225.000         176.000
  -5598651.13949  -4355404.09147  19971231.777    19971230.957    19971241.060
       240.000         207.000
 -11680550.13349  -9077873.72946  21205562.291    21205562.168    21205575.933
       226.000         179.000
  10086249.93449   7857465.58245  22610570.925    22610570.414    22610587.896
       210.000         152.000
   7921630.62849   6173027.04146  21652255.083    21652254.400    21652268.932
       222.000         172.000
  -6440347.53249  -5002484.69747  21522260.269    21522260.061    21522271.842
       232.000         188.000
 -11844634.71049  -8968724.34247  19097506.207    19097505.372    19097514.841
       234.000         206.000
   -139048.50149    -96831.47745  23608276.962    23608276.301    23608289.747
       209.000         154.000
 00  4 18 16  4 59.9950000  0  8G 9G 2G 4G27G 8G26G 7G11
 -15409445.30849 -11975453.34746  21648890.520    21648890.148    21648902.743
       225.000         177.000
  -5609705.12449  -4364017.65147  19969128.352    19969127.530    19969137.646
       240.000         207.000
 -11811972.71649  -9180280.83746  21180553.411    21180553.284    21180566.987
       227.000         180.000
  10165233.18149   7919010.46245  22625601.369    22625600.828    22625618.360
       210.000         153.000
   7993292.62749   6228867.29046  21665892.109    21665891.432    21665906.007
       221.000         171.000
  -6421464.16349  -4987770.52247  21525853.756    21525853.578    21525865.400
       231.000         188.000
 -11858184.94749  -8979283.01047  19094927.694    19094926.885    19094936.353
       235.000         206.000
    -94285.68649    -61951.44645  23616795.068    23616794.481    23616807.986
       206.000         153.000
 00  4 18 16  5 29.9950000  0  8G 9G 2G 4G27G 8G26G 7G11
 -15531180.55549 -12070311.90046  21625725.066    21625724.647    21625737.196
       226.000         176.000
  -5620550.53349  -4372468.68947  19967064.605    19967063.774    19967073.921
       241.000         207.000
 -11943185.57549  -9282524.51446  21155584.433    21155584.288    21155597.950
       227.000         180.000
  10244378.18949   7980681.36045  22640662.641    22640662.007    22640679.702
       207.000         151.000
   8065187.94649   6284889.35946  21679573.481    21679572.827    21679587.461
       221.000         171.000
  -6402176.32949  -4972741.19447  21529524.194    21529524.019    21529535.914
       233.000         189.000
 -11871365.56749  -8989553.65847  19092419.597    19092418.759    19092428.195
       235.000         206.000
    -49169.91349    -26796.37845  23625380.160    23625379.574    23625393.314
       207.000         153.000
 00  4 18 16  5 59.9950000  0  8G 9G 2G 4G27G 8G26G 7G11
 -15652671.95849 -12164980.45046  21602605.987    21602605.502    21602618.032
       225.000         177.000
  -5631178.44049  -4380750.24147  19965042.213    19965041.402    19965051.559
       241.000         207.000
 -12074180.68049  -9384598.51746  21130656.837    21130656.710    21130670.297
       227.000         180.000
  10323691.42749   8042483.33645  22655755.954    22655755.280    22655773.016
       203.000         151.000
   8137309.39849   6341087.62246  21693297.968    21693297.299    21693312.021
       221.000         172.000
  -6382474.89049  -4957389.57047  21533273.465    21533273.239    21533285.162
       232.000         188.000
 -11884178.20549  -8999537.56747  19089981.482    19089980.622    19089990.069
       235.000         206.000
     -3702.66549      8632.55745  23634032.373    23634031.790    23634045.529
       209.000         154.000
 00  4 18 16  6 29.9950000  0  8G 9G 2G 4G27G 8G26G 7G11
 -15773929.19249 -12259466.52446  21579531.382    21579530.911    21579543.468
       224.000         177.000
  -5641593.43449  -4388865.89247  19963060.403    19963059.570    19963069.719
       241.000         207.000
 -12204960.46949  -9486504.73246  21105770.262    21105770.149    21105783.637
       227.000         181.000
  10403176.26649   8104419.00945  22670881.822    22670881.158    22670898.960
       201.000         150.000
   8209655.42449   6397460.87446  21707065.151    21707064.524    21707079.329
       221.000         171.000
  -6362351.38049  -4941709.06247  21537102.920    21537102.715    21537114.674
       233.000         188.000
 -11896626.84049  -9009237.83947  19087612.616    19087611.782    19087621.214
       236.000         207.000
     42113.32549     44333.23545  23642750.904    23642750.317    23642764.159
       210.000         156.000
 00  4 18 16  6 59.9950000  0  8G 9G 2G 4G27G 8G26G 7G11
 -15894949.85949 -12353768.26546  21556501.753    21556501.337    21556513.917
       224.000         178.000
  -5651804.75349  -4396822.83847  19961117.311    19961116.472    19961126.653
       240.000         207.000
 -12335543.75349  -9588257.83946  21080921.127    21080920.925    21080934.352
       227.000         180.000
  10482844.07349   8166497.25345  22686042.276    22686041.692    22686059.680
       203.000         150.000
   8282221.99149   6454005.97446  21720874.308    21720873.686    21720888.594
       221.000         172.000
  -6341821.44949  -4925711.86546  21541009.653    21541009.510    21541021.533
       232.000         187.000
 -11908716.87749  -9018658.68347  19085312.077    19085311.207    19085320.615
       236.000         207.000
     88274.59849     80302.99045  23651535.061    23651534.502    23651548.500
       209.000         155.000
 00  4 18 16  7 29.9950000  0  8G 9G 2G 4G27G 8G26G 7G11
 -16015698.18149 -12447857.78946  21533523.990    21533523.542    21533536.219
       223.000         177.000
  -5661810.16549  -4404619.33747  19959213.399    19959212.576    19959222.777
       241.000         207.000
 -12465914.04949  -9689844.98146  21056112.385    21056112.192    21056125.575
       227.000         180.000
  10562720.35849   8228737.97045  22701242.653    22701242.056    22701260.263
       205.000         148.000
   8355018.78949   6510730.47546  21734727.372    21734726.733    21734741.741
       221.000         172.000
  -6320882.25249  -4909395.75947  21544994.347    21544994.234    21545006.326
       231.000         188.000
 -11920418.60049  -9027776.94747  19083085.344    19083084.508    19083093.908
       236.000         207.000
    134776.28449    116537.99545  23660384.178    23660383.608    23660397.588
       210.000         156.000
 00  4 18 16  7 59.9950000  0  8G 9G 2G 4G27G 8G26G 7G11
 -16136196.84949 -12541752.78646  21510593.673    21510593.307    21510606.032
       224.000         177.000
  -5671651.04249  -4412287.62447  19957340.809    19957339.978    19957350.192
       241.000         207.000
 -12596082.40049  -9791274.76646  21031341.938    21031341.831    21031355.210
       228.000         180.000
  10642756.93149   8291103.55745  22716473.464    22716472.767    22716491.361
       201.000         147.000
   8428015.61349   6567610.82146  21748618.291    21748617.721    21748632.850
       220.000         171.000
  -6299582.37649  -4892798.61247  21549047.728    21549047.586    21549059.694
       232.000         189.000
 -11931761.87349  -9036615.90047  19080926.838    19080926.001    19080935.402
       237.000         208.000
    181593.20849    153018.63945  23669293.234    23669292.660    23669306.594
       207.000         154.000
 00  4 18 16  8 29.9950000  0  8G 9G 2G 4G27G 8G26G 7G11
 -16256404.98249 -12635421.38346  21487718.767    21487718.374    21487731.167
       224.000         178.000
  -5681297.35249  -4419804.30147  19955505.290    19955504.454    19955514.615
       241.000         207.000
 -12726023.46149  -9892527.42946  21006614.832    21006614.794    21006628.104
       227.000         180.000
  10722981.60249   8353615.67445  22731739.946    22731739.276    22731758.239
       206.000         148.000
   8501243.14249   6624670.95046  21762553.347    21762552.774    21762567.886
       221.000         171.000
  -6277903.93649  -4875906.47547  21553173.050    21553172.932    21553185.095
       232.000         188.000
 -11942731.01949  -9045163.31947  19078839.560    19078838.697    19078848.089
       237.000         207.000
    228750.74649    189764.67645  23678267.100    23678266.452    23678280.502
       205.000         154.000
 00  4 18 16  8 59.9950000  0  7G 9G 2G 4G27G 8G26G 7
 -16376351.22249 -12728885.91346  21464893.719    21464893.313    21464906.077
       225.000         179.000
  -5690767.97749  -4427184.08047  19953703.195    19953702.333    19953712.507
       241.000         207.000
 -12855756.06549  -9993617.68446  20981927.548    20981927.432    20981940.681
       227.000         181.000
  10803347.78249   8416238.07045  22747033.516    22747032.917    22747051.953
       202.000         149.000
   8574681.84849   6681895.61146  21776528.692    21776528.055    21776543.051
       220.000         171.000
  -6255885.36849  -4858749.30647  21557363.137    21557363.063    21557375.214
       231.000         188.000
 -11953350.70349  -9053438.43947  19076818.690    19076817.848    19076827.264
       236.000         207.000
 00  4 18 16  9 29.9950000  0  7G 9G 2G 4G27G 8G26G 7
 -16496021.75849 -12822135.61146  21442121.130    21442120.723    21442133.459
       226.000         180.000
  -5700026.51349  -4434398.58347  19951941.362    19951940.521    19951950.720
       241.000         207.000
 -12985236.75949 -10094511.63146  20957288.077    20957287.942    20957301.234
       227.000         182.000
  10883873.39349   8478984.69345  22762357.278    22762356.750    22762375.845
       198.000         148.000
   8648353.36149   6739301.67646  21790548.281    21790547.554    21790562.530
       219.000         170.000
  -6233498.67049  -4841305.27546  21561623.347    21561623.240    21561635.428
       231.000         187.000
 -11963600.05449  -9061424.98547  19074868.339    19074867.506    19074876.926
       236.000         207.000
 00  4 18 16  9 59.9950000  0  7G 9G 2G 4G27G 8G26G 7
 -16615438.79249 -12915187.77846  21419396.759    21419396.400    21419409.059
       226.000         181.000
  -5709052.55049  -4441431.92647  19950223.790    19950222.954    19950233.178
       241.000         207.000
 -13114471.63949 -10195214.04646  20932695.310    20932695.245    20932708.537
       227.000         181.000
  10964565.15449   8541860.76145  22777712.816    22777712.297    22777731.738
       202.000         149.000
   8722256.17749   6796887.99946  21804611.627    21804610.965    21804626.070
       217.000         169.000
  -6210752.89749  -4823581.44946  21565951.752    21565951.648    21565963.983
       230.000         187.000
 -11973503.08649  -9069141.67247  19072983.837    19072983.003    19072992.446
       236.000         207.000
 00  4 18 16 10 29.9950000  0  7G 9G 2G 4G27G 8G26G 7
 -16734598.69049 -13008039.57346  21396721.372    21396720.999    21396733.611
       227.000         181.000
  -5717832.07649  -4448273.17947  19948553.177    19948552.335    19948562.599
       240.000         207.000
 -13243453.74549 -10295719.48846  20908150.741    20908150.698    20908163.972
       228.000         182.000
  11045439.46749   8604879.08545  22793102.921    22793102.475    22793122.231
       200.000         148.000
   8796395.22349   6854658.37046  21818719.920    21818719.337    21818734.562
       217.000         170.000
  -6187631.59749  -4805565.00747  21570351.640    21570351.551    21570363.979
       230.000         188.000
 -11983042.14049  -9076574.74347  19071168.585    19071167.756    19071177.257
       235.000         207.000
 00  4 18 16 10 59.9950000  0  7G 9G 2G 4G27G 8G26G 7
 -16853522.77849 -13100707.62946  21374090.863    21374090.476    21374103.048
       227.000         181.000
  -5726390.51449  -4454942.15647  19946924.578    19946923.747    19946934.046
       240.000         207.000
 -13372187.52249 -10396031.42946  20883653.471    20883653.391    20883666.658
       228.000         183.000
  11126474.19849   8668022.39245  22808523.935    22808523.593    22808543.232
       206.000         151.000
   8870750.21849   6912597.01746  21832869.484    21832868.823    21832884.139
       219.000         170.000
  -6164154.45749  -4787271.28146  21574819.320    21574819.216    21574831.700
       230.000         187.000
 -11992227.27849  -9083732.03847  19069420.670    19069419.836    19069429.377
       236.000         207.000
 00  4 18 16 11 29.9940000  0  7G 9G 2G 4G27G 8G26G 7
 -16972183.50549 -13193170.46046  21351510.444    21351510.058    21351522.569
       228.000         181.000
  -5734713.83049  -4461427.91747  19945340.743    19945339.902    19945350.239
       241.000         207.000
 -13500653.37149 -10496134.60046  20859207.144    20859207.109    20859220.351
       227.000         182.000
  11207690.83449   8731307.44945  22823979.539    22823979.134    22823998.872
       199.000         149.000
   8945328.13449   6970709.37146  21847061.502    21847060.836    21847076.179
       218.000         171.000
  -6140303.16649  -4768686.00847  21579358.195    21579358.074    21579370.617
       231.000         188.000
 -12001049.83249  -9090606.79747  19067741.812    19067740.977    19067750.545
       235.000         207.000
 00  4 18 16 11 59.9940000  0  7G 9G 2G 4G27G 8G26G 7
 -17090590.73349 -13285435.76746  21328978.199    21328977.870    21328990.280
       229.000         181.000
  -5742830.42049  -4467752.60147  19943796.303    19943795.442    19943805.790
       241.000         207.000
 -13628888.80049 -10596058.21646  20834804.653    20834804.661    20834817.868
       229.000         183.000
  11289061.75449   8794712.69945  22839464.444    22839464.055    22839483.831
       200.000         149.000
   9020111.34149   7028981.68546  21861292.478    21861291.893    21861307.325
       218.000         170.000
  -6116086.70349  -4749816.19246  21583966.516    21583966.401    21583979.026
       230.000         187.000
 -12009517.49449  -9097205.02447  19066130.547    19066129.688    19066139.249
       236.000         207.000
 00  4 18 16 12 29.9940000  0  7G 9G 2G 4G27G 8G26G 7
 -17208712.79849 -13377478.86946  21306500.346    21306500.007    21306512.311
       229.000         182.000
  -5750753.31349  -4473926.35147  19942288.698    19942287.834    19942298.177
       240.000         207.000
 -13756880.26249 -10695791.73146  20810448.646    20810448.602    20810461.832
       228.000         183.000
  11370552.75349   8858211.56845  22854972.065    22854971.726    22854991.569
       203.000         150.000
   9095093.33449   7087408.87346  21875561.290    21875560.678    21875576.206
       217.000         169.000
  -6091497.40949  -4730655.85546  21588645.839    21588645.712    21588658.406
       232.000         187.000
 -12017618.84249  -9103517.81247  19064588.989    19064588.104    19064597.651
       236.000         207.000
 00  4 18 16 12 59.9940000  0  7G 9G 2G 4G27G 8G26G 7
 -17326537.53549 -13469290.27346  21284079.086    21284078.694    21284090.955
       228.000         183.000
  -5758486.07149  -4479951.93747  19940817.193    19940816.341    19940826.762
       240.000         207.000
 -13884627.74249 -10795335.12346  20786139.013    20786138.989    20786152.236
       228.000         183.000
  11452147.76949   8921791.46445  22870499.456    22870499.107    22870519.212
       205.000         151.000
   9170275.72949   7145992.23346  21889868.355    21889867.638    21889883.184
       216.000         169.000
  -6066552.30249  -4711218.26046  21593392.923    21593392.767    21593405.427
       232.000         187.000
 -12025360.59149  -9109550.39347  19063115.746    19063114.890    19063124.475
       236.000         207.000
 00  4 18 16 13 29.9940000  0  7G 9G 2G 4G27G 8G26G 7
 -17444062.17849 -13560867.85246  21261714.876    21261714.462    21261726.654
       229.000         183.000
  -5766028.01549  -4485828.84047  19939382.035    19939381.183    19939391.643
       240.000         207.000
 -14012142.52249 -10894697.19546  20761873.696    20761873.652    20761886.891
       229.000         184.000
  11533832.91349   8985441.60645  22886044.052    22886043.722    22886063.865
       203.000         151.000
   9245642.98349   7204719.62246  21904210.586    21904209.878    21904225.366
       215.000         168.000
  -6041253.32949  -4691504.92446  21598207.312    21598207.169    21598219.811
       231.000         186.000
 -12032743.32049  -9115303.20947  19061710.919    19061710.047    19061719.645
       237.000         208.000
 00  4 18 16 13 59.9940000  0  7G 9G 2G 4G27G 8G26G 7
 -17561290.14449 -13652214.24646  21239407.175    21239406.695    21239418.812
       229.000         184.000
  -5773380.88049  -4491558.40647  19937982.883    19937982.041    19937992.526
       240.000         207.000
 -14139413.98449 -10993869.66646  20737654.693    20737654.609    20737667.846
       229.000         184.000
  11615613.51349   9049166.12045  22901606.929    22901606.664    22901626.714
       206.000         152.000
   9321182.12449   7263580.94546  21918585.452    21918584.717    21918600.245
       214.000         167.000
  -6015606.11649  -4671520.24446  21603087.899    21603087.742    21603100.483
       231.000         186.000
 -12039757.40049  -9120768.77347  19060376.250    19060375.366    19060384.982
       236.000         208.000
 00  4 18 16 14 29.9940000  0  7G 9G 2G 4G27G 8G26G 7
 -17678205.71349 -13743317.21646  21217158.856    21217158.396    21217170.481
       229.000         184.000
  -5780497.98849  -4497104.26847  19936628.561    19936627.758    19936638.278
       240.000         207.000
 -14266384.85349 -11092807.90446  20713492.855    20713492.762    20713506.041
       229.000         185.000
  11697550.89049   9113012.83345  22917199.581    22917199.244    22917219.400
       206.000         152.000
   9396927.19949   7322602.74746  21932999.408    21932998.700    21933014.341
       214.000         167.000
  -5989592.18149  -4651249.80346  21608038.265    21608038.163    21608050.948
       230.000         186.000
 -12046371.58349  -9125922.72747  19059117.631    19059116.790    19059126.410
       237.000         208.000
 00  4 18 16 14 59.9940000  0  7G 9G 2G 4G27G 8G26G 7
 -17794869.43049 -13834223.93946  21194958.361    21194957.960    21194970.060
       229.000         185.000
  -5787420.71449  -4502498.66247  19935311.279    19935310.470    19935321.011
       241.000         207.000
 -14393098.66349 -11191545.83446  20689379.952    20689379.837    20689393.124
       230.000         184.000
  11779624.57149   9176965.81345  22932818.154    22932817.728    22932838.028
       206.000         151.000
   9472834.58749   7381751.00746  21947444.334    21947443.572    21947459.364
       214.000         167.000
  -5963266.10049  -4630736.13546  21613048.047    21613047.952    21613060.793
       230.000         186.000
 -12052638.11249  -9130805.77747  19057925.243    19057924.396    19057933.978
       237.000         209.000
 00  4 18 16 15 29.9940000  0  7G 9G 2G 4G27G 8G26G 7
 -17911245.93549 -13924906.86946  21172812.595    21172812.178    21172824.309
       229.000         185.000
  -5794105.93749  -4507707.98747  19934039.205    19934038.405    19934048.929
       241.000         207.000
 -14519513.61149 -11290050.89546  20665323.860    20665323.747    20665337.037
       229.000         185.000
  11861875.03249   9241056.50245  22948470.494    22948470.081    22948490.483
       203.000         153.000
   9548933.77849   7441048.72846  21961925.725    21961925.068    21961940.870
       213.000         165.000
  -5936587.60949  -4609947.86146  21618124.922    21618124.842    21618137.735
       230.000         186.000
 -12058534.48549  -9135400.40247  19056803.188    19056802.338    19056811.954
       237.000         208.000
 00  4 18 16 15 59.9940000  0  7G 9G 2G 4G27G 8G26G 7
 -18027331.46349 -14015363.06946  21150722.225    21150721.781    21150733.889
       231.000         185.000
  -5800552.95249  -4512731.69947  19932812.422    19932811.629    19932822.167
       241.000         207.000
 -14645622.08349 -11388317.14046  20641326.124    20641326.037    20641339.277
       230.000         185.000
  11944299.41749   9305282.71245  22964155.784    22964155.381    22964175.963
       207.000         152.000
   9625229.47649   7500499.56546  21976444.601    21976443.967    21976459.818
       216.000         167.000
  -5909570.63049  -4588895.83646  21623266.159    21623266.097    21623279.057
       230.000         185.000
 -12064071.36549  -9139714.89947  19055749.596    19055748.735    19055758.377
       238.000         208.000
 00  4 18 16 16 29.9940000  0  7G 9G 2G 4G27G 8G26G 7
 -18143124.97349 -14105591.71846  21128687.428    21128686.972    21128699.042
       230.000         186.000
  -5806774.68849  -4517579.87147  19931628.538    19931627.743    19931638.292
       241.000         208.000
 -14771437.73049 -11486355.20346  20617384.128    20617384.028    20617397.249
       229.000         186.000
  12026859.51849   9369614.75145  22979866.960    22979866.563    22979887.229
       206.000         153.000
   9701715.95249   7560099.06746  21990999.824    21990999.135    21991015.107
       215.000         166.000
  -5882235.40849  -4567595.82146  21628467.985    21628467.935    21628480.965
       230.000         185.000
 -12069270.24149  -9143766.01247  19054760.334    19054759.463    19054769.123
       237.000         208.000
 00  4 18 16 16 59.9940000  0  7G 9G 2G 4G27G 8G26G 7
 -18258607.93749 -14195578.38246  21106711.684    21106711.247    21106723.258
       230.000         186.000
  -5812785.56149  -4522263.73047  19930484.797    19930483.989    19930494.525
       241.000         207.000
 -14896973.18149 -11584174.93846  20593495.489    20593495.388    20593508.559
       231.000         185.000
  12109521.92749   9434026.52845  22995597.516    22995597.063    22995618.078
       205.000         153.000
   9778379.96749   7619836.90246  22005588.876    22005588.104    22005604.093
       215.000         166.000
  -5854589.11249  -4546053.41046  21633729.026    21633728.961    21633742.068
       230.000         185.000
 -12074140.37949  -9147560.96447  19053833.544    19053832.710    19053842.420
       237.000         207.000
 00  4 18 16 17 29.9940000  0  8G 9G 2G 4G24G27G 8G26G 7
 -18373753.05949 -14285301.79646  21084800.128    21084799.771    21084811.742
       231.000         185.000
  -5818570.28949  -4526771.37147  19929384.045    19929383.230    19929393.798
       240.000         207.000
 -15022206.17349 -11681758.97546  20569664.307    20569664.227    20569677.429
       230.000         186.000
   -434381.37754                  23292644.428
       210.000         111.000
  12192296.59749   9498525.77245  23011349.331    23011348.993    23011370.289
       208.000         151.000
   9855237.54649   7679725.56546  22020214.697    22020213.874    22020229.996
       215.000         165.000
  -5826612.04349  -4524253.25646  21639053.027    21639052.945    21639066.057
       230.000         184.000
 -12078657.15049  -9151080.56447  19052974.066    19052973.219    19052982.909
       237.000         207.000
 00  4 18 16 17 59.9940000  0  8G 9G 2G 4G24G27G 8G26G 7
 -18488555.58049 -14374758.26146  21062953.935    21062953.544    21062965.446
       232.000         186.000
  -5824134.67549  -4531107.32647  19928325.218    19928324.414    19928335.018
       241.000         207.000
 -15147136.15049 -11779106.90746  20545890.841    20545890.766    20545903.985
       231.000         186.000
                                  23266042.538
       209.000
  12275193.06149   9563119.94945  23027124.423    23027124.101    23027145.457
       204.000         152.000
   9932283.41449   7739760.94146  22034876.200    22034875.366    22034891.731
       215.000         166.000
  -5798317.39549  -4502205.64946  21644437.380    21644437.307    21644450.487
       231.000         185.000
 -12082802.01649  -9154310.37847  19052185.333    19052184.508    19052194.171
       238.000         208.000
 00  4 18 16 18 29.9940000  0  8G 9G 2G 4G24G27G 8G26G 7
 -18603014.02949 -14463946.61246  21041173.246    21041172.835    21041184.627
       232.000         187.000
  -5829478.82949  -4535271.66847  19927308.336    19927307.512    19927318.104
       240.000         207.000
 -15271760.39649 -11876216.60946  20522175.588    20522175.502    20522188.713
       230.000         186.000
   -104478.36444                  23239433.565
       205.000         126.000
  12358221.83749   9627817.22945  23042924.645    23042924.295    23042945.766
       206.000         155.000
  10009517.06549   7799942.64246  22049573.344    22049572.697    22049589.087
       214.000         164.000
  -5769695.63149  -4479903.14046  21649884.073    21649883.982    21649897.170
       230.000         185.000
 -12086583.48349  -9157257.01847  19051465.809    19051464.936    19051474.633
       236.000         207.000
 00  4 18 16 18 59.9940000  0  8G 9G 2G 4G24G27G 8G26G 7
 -18717146.39849 -14552880.87147  21019454.674    21019454.207    21019465.881
       232.000         188.000
  -5834609.58449  -4539269.72447  19926332.065    19926331.231    19926341.837
       240.000         207.000
 -15396092.48249 -11973098.64546  20498515.891    20498515.824    20498528.995
       231.000         187.000
   -213476.93645                  23212814.839                    23212836.331
       205.000         148.000
  12441390.89449   9692623.80145  23058751.609    23058751.264    23058772.805
       209.000         157.000
  10086926.71649   7860261.46846  22064304.072    22064303.503    22064320.014
       216.000         164.000
  -5740748.66649  -4457347.23146  21655392.712    21655392.586    21655405.763
       229.000         185.000
 -12090021.74349  -9159936.22547  19050811.494    19050810.677    19050820.400
       237.000         207.000
 00  4 18 16 19 29.9940000  0  8G 9G 2G 4G24G27G 8G26G 7
 -18830944.71849 -14641554.82147  20997799.639    20997799.155    20997810.740
       232.000         188.000
  -5839506.72449  -4543085.73947  19925400.175    19925399.336    19925409.986
       240.000         207.000
 -15520116.29949 -12069740.46946  20474914.885    20474914.819    20474927.981
       231.000         187.000
  -1578020.50349   -322502.41245  23186189.530    23186189.011    23186210.133
       201.000         147.000
  12524721.43049   9757556.25745  23074609.407    23074608.987    23074630.559
       209.000         154.000
  10164534.05449   7920734.34446  22079072.541    22079071.925    22079088.498
       214.000         165.000
  -5711454.53449  -4434520.79746  21660967.284    21660967.189    21660980.417
       230.000         185.000
 -12093106.65549  -9162340.09247  19050224.474    19050223.640    19050233.393
       237.000         207.000
 00  4 18 16 19 59.9940000  0  8G 9G 2G 4G24G27G 8G26G 7
 -18944408.08949 -14729967.77747  20976208.218    20976207.788    20976219.301
       232.000         188.000
  -5844164.14149  -4546714.96847  19924513.894    19924513.073    19924523.777
       240.000         207.000
 -15643831.04749 -12166141.45446  20451372.700    20451372.579    20451385.716
       232.000         187.000
  -1717972.90849   -431555.93145  23159557.350    23159556.624    23159578.397
       205.000         147.000
  12608204.06949   9822607.24245  23090495.932    23090495.534    23090517.039
       209.000         152.000
  10242335.41949   7981358.38246  22093877.908    22093877.368    22093893.968
       214.000         165.000
  -5681810.00749  -4411421.33546  21666608.554    21666608.492    21666621.758
       230.000         185.000
 -12095851.90549  -9164479.29247  19049702.071    19049701.261    19049710.992
       238.000         208.000
 00  4 18 16 20 29.9940000  0  8G 9G 2G 4G24G27G 8G26G 7
 -19057585.23449 -14818157.68747  20954671.224    20954670.849    20954682.337
       232.000         189.000
  -5848616.41149  -4550184.34147  19923666.729    19923665.909    19923676.608
       240.000         207.000
 -15767279.58849 -12262335.01047  20427881.061    20427881.002    20427894.102
       231.000         188.000
  -1858014.66059   -540679.11655  23132908.151    23132907.798    23132929.225
       205.000         150.000
  12691767.41749   9887721.08545  23106397.801    23106397.349    23106419.120
       209.000         153.000
  10320287.15249   8042099.59546  22108711.943    22108711.418    22108728.007
       216.000         164.000
  -5651849.34549  -4388075.54246  21672310.096    21672310.010    21672323.233
       230.000         186.000
 -12098319.06949  -9166401.80147  19049232.637    19049231.820    19049241.558
       238.000         208.000
 00  4 18 16 20 59.9940000  0  8G 9G 2G 4G24G27G 8G26G 7
 -19170410.67849 -14906073.54847  20933201.211    20933200.823    20933212.331
       233.000         189.000
  -5852799.95849  -4553444.31947  19922870.728    19922869.882    19922880.598
       241.000         208.000
 -15890408.78549 -12358279.71547  20404450.285    20404450.215    20404463.259
       232.000         188.000
  -1998084.60849   -649824.25645  23106253.585    23106253.166    23106274.931
       202.000         148.000
  12775454.57849   9952931.45045  23122323.264    23122322.859    23122344.678
       210.000         155.000
  10398444.24649   8103000.83746  22123585.067    22123584.543    22123601.100
       215.000         163.000
  -5621525.05749  -4364446.40346  21678080.825    21678080.691    21678093.919
       229.000         185.000
 -12100432.20349  -9168048.44147  19048830.630    19048829.783    19048839.476
       239.000         208.000
 00  4 18 16 21 29.9940000  0  8G 9G 2G 4G24G27G 8G26G 7
 -19282877.89849 -14993710.26947  20911799.335    20911798.949    20911810.510
       232.000         189.000
  -5856726.21349  -4556503.80947  19922123.660    19922122.818    19922133.565
       241.000         208.000
 -16013219.35449 -12453976.13147  20381080.125    20381080.052    20381093.104
       232.000         188.000
  -2138189.17749   -758996.40845  23079592.616    23079592.401    23079613.723
       203.000         148.000
  12859245.38049  10018222.58345  23138268.476    23138268.074    23138289.877
       209.000         153.000
  10476798.02049   8164055.31846  22138495.585    22138495.060    22138511.726
       215.000         163.000
  -5590858.52849  -4340550.58246  21683916.566    21683916.432    21683929.785
       227.000         184.000
 -12102198.16049  -9169424.55447  19048494.654    19048493.806    19048503.491
       239.000         208.000
 00  4 18 16 21 59.9940000  0  8G 9G 2G 4G24G27G 8G26G 7
 -19394994.29449 -15081073.62647  20890464.222    20890463.868    20890475.447
       232.000         189.000
  -5860412.66649  -4559376.44947  19921422.223    19921421.383    19921432.139
       240.000         208.000
 -16135726.43749 -12549436.06647  20357767.668    20357767.588    20357780.673
       233.000         189.000
  -2278339.16949   -868203.93745  23052923.033    23052922.648    23052943.883
       204.000         149.000
  12943122.97949  10083581.37345  23154230.367    23154229.942    23154251.744
       208.000         153.000
  10555323.39949   8225243.51645  22153438.770    22153438.193    22153455.010
       215.000         162.000
  -5559871.02849  -4316404.66746  21689813.323    21689813.195    21689826.735
       227.000         184.000
 -12103637.63949  -9170546.27147  19048220.742    19048219.909    19048229.635
       238.000         208.000
 00  4 18 16 22 29.9940000  0  8G 9G 2G 4G24G27G 8G26G 7
 -19506773.20849 -15168174.00447  20869193.375    20869193.016    20869204.555
       233.000         189.000
  -5863884.81249  -4562082.09247  19920761.543    19920760.714    19920771.485
       240.000         207.000
 -16257944.31349 -12644670.63147  20334510.216    20334510.168    20334523.313
       233.000         189.000
  -2418550.91949   -977459.66445  23026241.524    23026241.187    23026262.441
       205.000         148.000
  13027071.49249  10148995.37045  23170205.666    23170205.142    23170227.196
       211.000         156.000
  10633998.34549   8286548.25945  22168410.498    22168409.874    22168426.732
       216.000         162.000
  -5528589.71149  -4292029.81146  21695766.071    21695765.970    21695779.590
       227.000         183.000
 -12104763.90849  -9171423.92747  19048006.463    19048005.635    19048015.370
       238.000         208.000
 00  4 18 16 22 59.9940000  0  8G 9G 2G 4G24G27G 8G26G 7
 -19618194.23749 -15254995.51347  20847990.619    20847990.273    20848001.802
       233.000         190.000
  -5867124.46349  -4564606.57147  19920145.094    19920144.284    19920155.080
       241.000         208.000
 -16379842.65849 -12739656.21147  20311313.605    20311313.550    20311326.737
       233.000         188.000
  -2558798.78949  -1086743.60045  22999553.050    22999552.835    22999574.007
       198.000         147.000
  13111142.08149  10214504.51045  23186204.094    23186203.611    23186225.760
       208.000         154.000
  10712847.63249   8347988.84546  22183415.412    22183414.803    22183431.594
       217.000         163.000
  -5496998.40649  -4267413.40346  21701777.782    21701777.691    21701791.389
       227.000         183.000
 -12105551.69049  -9172037.82347  19047856.624    19047855.798    19047865.507
       238.000         208.000
 00  4 18 16 23 29.9940000  0  7G 9G 2G 4G24G 8G26G 7
 -19729258.15949 -15341538.75547  20826855.882    20826855.483    20826866.981
       232.000         190.000
  -5870114.45549  -4566936.51347  19919576.176    19919575.370    19919586.200
       241.000         208.000
 -16501380.79549 -12834361.11347  20288185.535    20288185.487    20288198.616
       233.000         188.000
  -2699068.57549  -1196044.62445  22972860.397    22972860.170    22972881.275
       206.000         147.000
  10791888.76449   8409578.91145  22198456.792    22198456.213    22198472.937
       214.000         162.000
  -5465082.49449  -4242544.06346  21707851.265    21707851.185    21707864.991
       228.000         183.000
 -12105993.77749  -9172382.35347  19047772.538    19047771.689    19047781.424
       238.000         208.000
 00  4 18 16 23 59.9940000  0  7G 9G 2G 4G24G 8G26G 7
 -19839969.92749 -15427807.60247  20805788.084    20805787.684    20805799.153
       233.000         190.000
  -5872831.14849  -4569053.50347  19919059.266    19919058.470    19919069.313
       241.000         208.000
 -16622542.65049 -12928772.80147  20265129.043    20265129.045    20265142.136
       232.000         189.000
  -2839337.50949  -1305345.06745  22946168.123    22946167.677    22946188.987
       202.000         148.000
  10871136.73749   8471330.17345  22213537.575    22213536.939    22213553.667
       215.000         160.000
  -5432823.24649  -4217407.19246  21713990.104    21713990.044    21714003.874
       228.000         184.000
 -12106062.51549  -9172435.96447  19047759.456    19047758.614    19047768.379
       238.000         208.000
 00  4 18 16 24 29.9940000  0  7G 9G 2G 4G24G 8G26G 7
 -19950374.19149 -15513836.83547  20784778.839    20784778.395    20784789.871
       233.000         190.000
  -5875303.81849  -4570980.34147  19918588.802    19918588.013    19918598.864
       241.000         208.000
 -16743341.02749 -13022901.25547  20242141.795    20242141.771    20242154.839
       233.000         190.000
  -2979635.06449  -1414667.86945  22919470.248    22919469.721    22919491.156
       195.000         145.000
  10950564.24149   8533221.31845  22228652.463    22228651.783    22228668.532
       214.000         160.000
  -5400273.55749  -4192044.00446  21720184.318    21720184.238    21720198.036
       228.000         184.000
 -12105782.21449  -9172217.60047  19047812.785    19047811.971    19047821.788
       237.000         208.000
 00  4 18 16 24 59.9940000  0  7G 9G 2G 4G24G 8G26G 7
 -20060503.09249 -15599651.50447  20763821.918    20763821.477    20763832.964
       233.000         191.000
  -5877552.40549  -4572732.57247  19918160.951    19918160.157    19918171.084
       240.000         208.000
 -16863792.32649 -13116759.26347  20219220.538    20219220.531    20219233.631
       234.000         190.000
  -3119974.31149  -1524023.16245  22892764.657    22892763.831    22892785.327
       205.000         146.000
  11030151.19349   8595236.70645  22243797.655    22243796.949    22243813.844
       212.000         160.000
  -5367460.42949  -4166475.53846  21726428.669    21726428.551    21726442.357
       228.000         184.000
 -12105178.34549  -9171747.10047  19047927.749    19047926.911    19047936.752
       238.000         208.000
 00  4 18 16 25 29.9940000  0  7G 9G 2G 4G24G 8G26G 7
 -20170324.39349 -15685226.49047  20742923.599    20742923.131    20742934.633
       233.000         191.000
  -5879560.78949  -4574297.63747  19917778.822    19917778.033    19917788.951
       241.000         208.000
 -16983879.32549 -13210333.40447  20196368.632    20196368.620    20196381.715
       234.000         190.000
  -3260319.71149  -1633383.30845  22866057.795    22866056.939    22866078.618
       195.000         143.000
  11109914.06849   8657389.17445  22258976.238    22258975.589    22258992.684
       214.000         159.000
  -5334364.91549  -4140687.04146  21732726.671    21732726.579    21732740.432
       227.000         183.000
 -12104225.90449  -9171004.98647  19048109.019    19048108.187    19048118.043
       238.000         208.000
 00  4 18 16 25 59.9940000  0  7G 9G 2G 4G24G 8G26G 7
 -20279792.22249 -15770526.04847  20722092.473    20722092.021    20722103.555
       233.000         191.000
  -5881323.72449  -4575671.43547  19917443.433    19917442.636    19917453.538
       241.000         207.000
 -17103606.31749 -13303627.01947  20173585.242    20173585.221    20173598.278
       234.000         191.000
  -3400658.37849  -1742738.18745  22839352.154    22839351.367    22839372.985
       199.000         145.000
  11189846.90049   8719674.05645  22274187.317    22274186.621    22274203.881
       213.000         159.000
  -5300979.99549  -4114673.02546  21739079.779    21739079.658    21739093.562
       229.000         183.000
 -12102922.85249  -9169989.67147  19048357.012    19048356.174    19048366.073
       238.000         208.000
 00  4 18 16 26 29.9940000  0  7G 9G 2G 4G24G 8G26G 7
 -20388901.23949 -15855546.01047  20701329.567    20701329.185    20701340.712
       234.000         191.000
  -5882872.21449  -4576878.13147  19917148.818    19917148.033    19917158.954
       241.000         208.000
 -17222992.36449 -13396654.96347  20150866.738    20150866.760    20150879.761
       235.000         191.000
  -3541018.73849  -1852109.99345  22812642.473    22812641.522    22812663.221
       199.000         144.000
  11269908.11349   8782058.99845  22289422.697    22289422.045    22289439.431
       211.000         158.000
  -5267342.67049  -4088462.33546  21745480.905    21745480.756    21745494.670
       227.000         181.000
 -12101306.04849  -9168729.87547  19048664.714    19048663.898    19048673.776
       239.000         208.000
 00  4 18 16 26 59.9940000  0  7G 9G 2G 4G24G 8G26G 7
 -20497598.03249 -15940244.76247  20680645.221    20680644.827    20680656.339
       233.000         192.000
  -5884163.57349  -4577884.46247  19916903.099    19916902.333    19916913.285
       240.000         208.000
 -17342022.56749 -13489405.63447  20128215.984    20128215.992    20128228.936
       235.000         192.000
  -3681358.38349  -1961465.63045  22785936.297    22785935.634    22785957.566
       199.000         143.000
  11350129.42949   8844568.67445  22304688.598    22304687.897    22304705.452
       214.000         157.000
  -5233400.62649  -4062014.20246  21751940.000    21751939.902    21751953.807
       227.000         181.000
 -12099344.36649  -9167201.33947  19049038.011    19049037.210    19049047.087
       239.000         208.000
 00  4 18 16 27 29.9940000  0  7G 9G 2G 4G24G 8G26G 7
 -20605848.85149 -16024596.00747  20660045.751    20660045.389    20660056.840
       234.000         192.000
  -5885185.47349  -4578680.83347  19916708.741    19916707.963    19916718.954
       241.000         207.000
 -17460682.64149 -13581867.90447  20105635.635    20105635.626    20105648.545
       235.000         192.000
  -3821672.08849  -2070801.07145  22759235.472    22759234.982    22759256.764
       198.000         144.000
  11430516.77849   8907207.72245  22319986.108    22319985.531    22320003.130
       213.000         156.000
  -5199143.85849  -4035320.83746  21758458.993    21758458.901    21758472.827
       225.000         180.000
 -12097035.60049  -9165402.36147  19049477.390    19049476.587    19049486.501
       238.000         208.000
 00  4 18 16 27 59.9940000  0  7G 9G 2G 4G24G 8G26G 7
 -20713681.22149 -16108621.18447  20639525.912    20639525.535    20639536.944
       234.000         192.000
  -5885967.44249  -4579290.24047  19916560.063    19916559.266    19916570.246
       240.000         208.000
 -17578994.31749 -13674058.69447  20083121.646    20083121.594    20083134.460
       234.000         193.000
  -3962004.31849  -2180150.89245  22732530.939    22732530.569    22732552.297
       199.000         144.000
  11511039.98949   8969952.65945  22335309.674    22335309.070    22335326.671
       214.000         159.000
  -5164602.87849  -4008406.00846  21765032.047    21765031.982    21765045.964
       226.000         180.000
 -12094422.07149  -9163365.89647  19049974.800    19049973.976    19049983.882
       238.000         208.000
 00  4 18 16 28 29.9940000  0  7G 9G 2G 4G24G 8G26G 7
 -20821107.61049 -16192330.02047  20619083.327    20619082.898    20619094.346
       234.000         192.000
  -5886491.98349  -4579699.05247  19916460.338    19916459.528    19916470.498
       240.000         207.000
 -17696937.47249 -13765962.33647  20060677.739    20060677.701    20060690.481
       235.000         193.000
  -4102336.51149  -2289500.68445  22705826.486    22705826.090    22705848.132
       199.000         145.000
  11591739.13049   9032834.64545  22350666.643    22350665.942    22350683.676
       212.000         156.000
  -5129753.28749  -3981250.70946  21771663.838    21771663.764    21771677.805
       226.000         180.000
 -12091478.52849  -9161072.27647  19050534.980    19050534.160    19050544.071
       239.000         208.000
 00  4 18 16 28 59.9940000  0  7G 9G 2G 4G24G 8G26G 7
 -20928149.46649 -16275739.21747  20598713.898    20598713.461    20598724.922
       235.000         193.000
  -5886767.72549  -4579913.99747  19916407.924    19916407.103    19916418.115
       240.000         207.000
 -17814519.17149 -13857584.33347  20038302.635    20038302.564    20038315.307
       235.000         193.000
  -4242672.46649  -2398853.37845  22679121.567    22679121.095    22679143.160
       200.000         143.000
  11672615.61149   9095854.84545  22366057.219    22366056.557    22366074.373
       212.000         155.000
  -5094585.92349  -3953847.80446  21778356.000    21778355.953    21778370.124
       226.000         180.000
 -12088219.65449  -9158532.94747  19051155.133    19051154.346    19051164.289
       238.000         208.000
 00  4 18 16 29 29.9940000  0  7G 9G 2G 4G24G 8G26G 7
 -21034818.97249 -16358858.27847  20578415.281    20578414.862    20578426.362
       234.000         193.000
  -5886814.62549  -4579950.62347  19916398.994    19916398.189    19916409.273
       240.000         207.000
 -17931733.33949 -13948919.94847  20015997.422    20015997.368    20016010.079
       235.000         194.000
  -4383027.68349  -2508221.02945  22652412.732    22652412.406    22652434.316
       202.000         145.000
  11753651.64249   9158999.34145  22381478.196    22381477.585    22381495.484
       211.000         156.000
  -5059118.44149  -3926211.02546  21785105.320    21785105.364    21785119.606
       226.000         180.000
 -12084657.73649  -9155757.48047  19051832.979    19051832.169    19051842.182
       238.000         208.000
 00  4 18 16 29 59.9940000  0  7G 9G 2G 4G24G 8G26G 7
 -21141141.49149 -16441706.95647  20558182.731    20558182.311    20558193.864
       234.000         194.000
  -5886639.91849  -4579814.56847  19916432.325    19916431.513    19916442.631
       240.000         207.000
 -18048593.19849 -14039979.48547  19993759.619    19993759.590    19993772.263
       236.000         193.000
  -4523398.79349  -2617601.05745  22625701.021    22625700.751    22625722.543
       202.000         145.000
  11834828.48149   9222253.57245  22396926.020    22396925.364    22396943.426
       211.000         154.000
  -5023370.49249  -3898355.71346  21791908.144    21791908.141    21791922.482
       225.000         181.000
 -12080787.46149  -9152741.73747  19052569.488    19052568.707    19052578.734
       238.000         208.000
 00  4 18 16 30 29.9940000  0  7G 9G 2G 4G24G 8G26G 7
 -21247099.82049 -16524271.84947  20538019.479    20538019.056    20538030.615
       234.000         194.000
  -5886209.92049  -4579479.58547  19916514.261    19916513.440    19916524.559
       240.000         207.000
 -18165074.85649 -14130744.32047  19971593.848    19971593.790    19971606.432
       235.000         194.000
  -4663742.96149  -2726960.00445  22598994.254    22598993.902    22599015.941
       205.000         146.000
  11916150.80949   9285621.16045  22412401.403    22412400.715    22412419.001
       209.000         154.000
  -4987332.07049  -3870274.05346  21798766.210    21798766.167    21798780.625
       225.000         180.000
 -12076582.37849  -9149465.10247  19053369.717    19053368.931    19053379.014
       238.000         208.000
 00  4 18 16 30 59.9940000  0  7G 9G 2G 4G24G 8G26G 7
 -21352682.69849 -16606544.18247  20517927.660    20517927.248    20517938.831
       235.000         194.000
  -5885523.93149  -4578945.12447  19916644.886    19916644.083    19916655.176
       240.000         207.000
 -18281168.74249 -14221206.99847  19949501.852    19949501.803    19949514.418
       236.000         194.000
  -4804059.33949  -2836297.27845  22572293.042    22572292.660    22572314.664
       205.000         147.000
  11997592.25249   9349081.56345  22427899.506    22427898.843    22427917.438
       210.000         152.000
  -4951026.97249  -3841984.60146  21805675.040    21805675.015    21805689.526
       226.000         181.000
 -12072058.42849  -9145940.00347  19054230.633    19054229.855    19054239.971
       239.000         208.000
 00  4 18 16 31 29.9940000  0  7G 9G 2G 4G24G 8G26G 7
 -21457880.62449 -16688516.55747  20497909.162    20497908.725    20497920.304
       235.000         195.000
  -5884572.28349  -4578203.66547  19916826.009    19916825.221    19916836.342
       240.000         207.000
 -18396863.59449 -14311358.75647  19927485.805    19927485.781    19927498.359
       234.000         195.000
  -4944338.88449  -2945605.78445  22545598.817    22545598.492    22545620.424
       207.000         147.000
  12079156.66349   9412637.77745  22443421.107    22443420.488    22443439.152
       209.000         153.000
  -4914470.55949  -3813499.32146  21812631.644    21812631.653    21812646.252
       226.000         181.000
 -12067202.09149  -9142155.90247  19055154.831    19055154.028    19055164.171
       238.000         208.000
 00  4 18 16 31 59.9940000  0  7G 9G 2G 4G24G 8G26G 7
 -21562696.80749 -16770191.46947  20477963.254    20477962.806    20477974.403
       235.000         195.000
  -5883359.51849  -4577258.73747  19917056.802    19917056.021    19917067.200
       239.000         207.000
 -18512167.16549 -14401205.62747  19905544.200    19905544.181    19905556.768
       234.000         195.000
  -5084590.22549  -3054892.29545  22518909.997    22518909.581    22518931.262
       207.000         148.000
  12160836.79649   9476284.16345  22458964.625    22458963.906    22458982.761
       207.000         151.000
  -4877675.53149  -3784828.10446  21819633.755    21819633.686    21819648.376
       225.000         180.000
 -12062022.11949  -9138119.61847  19056140.579    19056139.778    19056149.941
       238.000         207.000
 00  4 18 16 32 29.9940000  0  7G 9G 2G 4G24G 8G26G 7
 -21667113.40449 -16851555.01547  20458093.368    20458092.978    20458104.541
       235.000         195.000
  -5881881.32049  -4576106.97847  19917338.141    19917337.346    19917348.548
       240.000         207.000
 -18627065.98749 -14490737.10947  19883679.682    19883679.623    19883692.186
       235.000         195.000
  -5224816.76749  -3164159.43045  22492225.911    22492225.423    22492246.745
       208.000         148.000
  12242656.26549   9540039.10145  22474534.471    22474533.751    22474552.923
       205.000         148.000
  -4840628.90849  -3755960.84446  21826683.758    21826683.653    21826698.356
       226.000         180.000
 -12056527.34749  -9133838.03747  19057186.226    19057185.428    19057195.612
       238.000         208.000
 00  4 18 16 32 59.9940000  0  7G 9G 2G 4G24G 8G26G 7
 -21771122.80149 -16932601.25847  20438301.002    20438300.591    20438312.185
       236.000         196.000
  -5880153.22149  -4574760.48947  19917667.044    19917666.266    19917677.473
       239.000         207.000
 -18741564.34849 -14579956.55047  19861891.332    19861891.277    19861903.777
       236.000         195.000
  -5365028.17549  -3273414.75445  22465544.634    22465544.105    22465565.336
       209.000         150.000
  12324624.94449   9603910.32545  22490132.883    22490132.142    22490151.434
       204.000         149.000
  -4803323.66049  -3726892.05646  21833782.984    21833782.906    21833797.542
       225.000         180.000
 -12050721.77349  -9129314.27047  19058291.026    19058290.228    19058300.420
       239.000         208.000
 00  4 18 16 33 29.9940000  0  7G 9G 2G 4G24G 8G26G 7
 -21874729.08149 -17013333.39147  20418585.350    20418584.976    20418596.551
       236.000         196.000
  -5878177.99349  -4573221.42647  19918042.969    19918042.206    19918053.426
       239.000         206.000
 -18855667.04749 -14668867.68147  19840178.213    19840178.185    19840190.684
       235.000         195.000
  -5505227.47649  -3382660.60145  22438865.441    22438864.689    22438886.109
       210.000         149.000
  12406745.33149   9667899.75245  22505760.183    22505759.411    22505778.868
       205.000         148.000
  -4765763.69049  -3697624.78046  21840930.670    21840930.533    21840945.211
       225.000         178.000
 -12044610.67949  -9124552.43847  19059453.981    19059453.173    19059463.362
       238.000         208.000
 00  4 18 16 33 59.9940000  0  7G 9G 2G 4G24G 8G26G 7
 -21977941.42149 -17093758.55847  20398944.714    20398944.352    20398955.902
       236.000         196.000
  -5875951.80849  -4571486.81547  19918466.692    19918465.906    19918477.137
       240.000         206.000
 -18969371.13149 -14757468.20047  19818540.990    19818540.964    19818553.414
       236.000         195.000
  -5645404.15149  -3491888.80745  22412190.466    22412189.818    22412211.141
       211.000         150.000
  12489009.04449   9732000.85545  22521414.778    22521414.015    22521433.687
       203.000         149.000
  -4727943.26249  -3668154.56246  21848127.862    21848127.736    21848142.431
       226.000         179.000
 -12038205.34449  -9119561.32547  19060672.951    19060672.149    19060682.336
       239.000         208.000
 00  4 18 16 34 29.9940000  0  7G 9G 2G 4G24G 8G26G 7
 -22080741.00549 -17173862.10047  20379382.580    20379382.229    20379393.778
       236.000         197.000
  -5873449.47949  -4569537.03347  19918942.913    19918942.144    19918953.408
       239.000         206.000
 -19082650.68649 -14845737.92447  19796984.556    19796984.500    19796996.930
       235.000         195.000
  -5785516.79349  -3601067.10845  22385527.651    22385527.117    22385548.334
       209.000         151.000
  12571433.31249   9796227.07645  22537099.860    22537099.193    22537118.994
       200.000         146.000
  -4689840.90849  -3638464.66046  21855378.662    21855378.577    21855393.241
       225.000         178.000
 -12031492.43649  -9114330.54947  19061950.452    19061949.665    19061959.855
       238.000         208.000
 00  4 18 16 34 59.9940000  0  8G 9G 2G 4G24G 5G 8G26G 7
 -22183133.95749 -17253648.78447  20359897.831    20359897.434    20359909.019
       237.000         196.000
  -5870673.00149  -4567373.62647  19919471.325    19919470.538    19919481.832
       240.000         206.000
 -19195506.74349 -14933677.65547  19775508.689    19775508.662    19775521.014
       236.000         196.000
  -5925557.05349  -3710188.99945  22358878.598    22358878.237    22358899.316
       210.000         150.000
  -2733722.70759  -2117811.85755  23318634.281    23318633.534    23318651.228
       214.000         153.000
  12653998.45549   9860563.05945  22552811.643    22552811.104    22552831.099
       206.000         150.000
  -4651472.59949  -3608567.51846  21862680.114    21862680.008    21862694.677
       226.000         178.000
 -12024476.44549  -9108863.60547  19063285.620    19063284.813    19063294.998
       239.000         208.000
 00  4 18 16 35 29.9940000  0  8G 9G 2G 4G24G 5G 8G26G 7
 -22285131.06549 -17333127.01247  20340488.343    20340487.981    20340499.631
       237.000         197.000
  -5867623.35949  -4564997.36347  19920051.716    19920050.929    19920062.255
       239.000         206.000
 -19307932.29149 -15021281.92647  19754114.751    19754114.732    19754127.057
       236.000         196.000
  -6065536.01549  -3819263.12345  22332241.267    22332240.874    22332261.960
       209.000         152.000
  -2847609.33849  -2206554.71245  23296962.439    23296961.697    23296979.469
       213.000         152.000
  12736693.52349   9925000.30645  22568548.416    22568547.791    22568568.017
       203.000         148.000
  -4612846.41849  -3578469.44546  21870030.645    21870030.524    21870045.222
       224.000         178.000
 -12017161.59849  -9103163.78347  19064677.630    19064676.819    19064687.014
       238.000         208.000
 00  4 18 16 35 59.9940000  0  8G 9G 2G 4G24G 5G 8G26G 7
 -22386718.64549 -17412286.12847  20321156.810    20321156.460    20321168.084
       237.000         197.000
  -5864305.79349  -4562412.32747  19920683.100    19920682.304    19920693.643
       239.000         206.000
 -19419932.73349 -15108554.94347  19732801.742    19732801.746    19732814.013
       236.000         196.000
  -6205454.69649  -3928290.29245  22305615.207    22305614.887    22305635.997
       210.000         152.000
  -2961526.01849  -2295320.97145  23275284.945    23275284.127    23275301.868
       215.000         152.000
  12819504.76749   9989528.04945  22584307.311    22584306.627    22584327.180
       203.000         149.000
  -4573959.94449  -3548168.52946  21877430.635    21877430.469    21877445.284
       224.000         176.000
 -12009538.49249  -9097223.75747  19066128.262    19066127.465    19066137.632
       239.000         207.000
 00  4 18 16 36 29.9940000  0  8G 9G 2G 4G24G 5G 8G26G 7
 -22487874.18649 -17491108.59247  20301907.489    20301907.186    20301918.796
       237.000         197.000
  -5860721.06449  -4559619.11247  19921365.326    19921364.533    19921375.857
       239.000         206.000
 -19531499.71749 -15195490.20847  19711571.270    19711571.249    19711583.483
       237.000         197.000
  -6345322.88049  -4037278.09845  22278998.939    22278998.627    22279019.557
       211.000         153.000
  -3075472.77849  -2384110.66445  23253601.645    23253600.828    23253618.429
       213.000         150.000
  12902433.96949  10054147.73245  22600088.548    22600087.839    22600108.463
       202.000         146.000
  -4534829.16949  -3517677.25646  21884877.146    21884876.958    21884891.748
       225.000         176.000
 -12001602.54749  -9091039.96447  19067638.475    19067637.680    19067647.853
       239.000         207.000
 00  4 18 16 36 59.9930000  0  8G 9G 2G 4G24G 5G 8G26G 7
 -22588586.63749 -17569585.79347  20282742.574    20282742.276    20282753.858
       238.000         198.000
  -5856873.33049  -4556620.96247  19922097.601    19922096.801    19922108.150
       239.000         206.000
 -19642629.40749 -15282084.72047  19690423.937    19690423.929    19690436.138
       237.000         197.000
  -6485146.89849  -4146231.51945  22252391.180    22252390.627    22252411.562
       211.000         153.000
  -3189419.46749  -2472900.30845  23231918.403    23231917.608    23231935.127
       211.000         149.000
  12985478.78349  10118857.52245  22615891.814    22615891.040    22615911.785
       200.000         147.000
  -4495460.40949  -3487000.53446  21892368.861    21892368.696    21892383.502
       223.000         176.000
 -11993345.01749  -9084605.58247  19069209.920    19069209.105    19069219.272
       239.000         207.000
 00  4 18 16 37 29.9930000  0  8G 9G 2G 4G24G 5G 8G26G 7
 -22688879.68549 -17647736.18647  20263657.442    20263657.150    20263668.713
       237.000         198.000
  -5852774.04849  -4553426.80147  19922877.738    19922876.919    19922888.324
       238.000         205.000
 -19753351.80749 -15368361.86447  19669354.095    19669354.086    19669366.291
       237.000         198.000
  -6624961.16349  -4255177.34845  22225785.289    22225784.593    22225805.523
       209.000         154.000
  -3303367.76949  -2561691.19045  23210234.894    23210234.007    23210251.411
       215.000         153.000
  13068623.50749  10183645.09545  22631714.215    22631713.460    22631734.185
       205.000         148.000
  -4455867.26949  -3456148.98246  21899903.281    21899903.176    21899918.059
       223.000         176.000
 -11984781.33549  -9077932.64147  19070839.598    19070838.795    19070848.953
       239.000         207.000
 00  4 18 16 37 59.9930000  0  8G 9G 2G 4G24G 5G 8G26G 7
 -22788733.78849 -17725544.53747  20244655.824    20244655.520    20244667.057
       237.000         197.000
  -5848403.89149  -4550021.56547  19923709.360    19923708.563    19923720.008
       238.000         205.000
 -19863651.52849 -15454309.64447  19648364.741    19648364.713    19648376.931
       237.000         198.000
  -6764726.03149  -4364084.69145  22199188.642    22199187.912    22199208.874
       212.000         154.000
  -3417289.07549  -2650461.01045  23188556.437    23188555.642    23188572.866
       213.000         151.000
  13151875.23649  10248516.08345  22647557.172    22647556.229    22647576.829
       204.000         147.000
  -4416063.61449  -3425133.39146  21907477.882    21907477.754    21907492.733
       223.000         176.000
 -11975909.86249  -9071019.86347  19072527.898    19072527.060    19072537.201
       239.000         207.000
 00  4 18 16 38 29.9930000  0  8G 9G 2G 4G24G 5G 8G26G 7
 -22888162.12649 -17803021.12447  20225735.309    20225734.948    20225746.470
       237.000         197.000
  -5843760.28949  -4546403.26047  19924593.066    19924592.297    19924603.743
       239.000         205.000
 -19973525.79749 -15539925.90447  19627456.325    19627456.292    19627468.515
       237.000         199.000
  -6904427.29449  -4472942.50845  22172603.894    22172603.372    22172624.191
       210.000         154.000
  -3531185.68349  -2739211.60245  23166882.593    23166881.793    23166899.143
       212.000         151.000
  13235248.67349  10313481.91745  22663422.904    22663421.963    22663442.676
       199.000         146.000
  -4376045.28849  -3393950.52646  21915093.303    21915093.228    21915108.232
       223.000         177.000
 -11966744.10849  -9063877.77747  19074272.131    19074271.309    19074281.440
       238.000         207.000
 00  4 18 16 38 59.9930000  0  8G 9G 2G 4G24G 5G 8G26G 7
 -22987171.81849 -17880171.49647  20206894.414    20206894.035    20206905.527
       237.000         197.000
  -5838841.63249  -4542570.62547  19925529.220    19925528.414    19925539.840
       239.000         205.000
 -20082978.63349 -15625213.77447  19606628.122    19606628.089    19606640.300
       238.000         199.000
  -7044057.25549  -4581744.76945  22146032.784    22146032.352    22146053.115
       212.000         155.000
  -3645074.65349  -2827956.24245  23145210.177    23145209.537    23145226.919
       212.000         150.000
  13318751.24149  10378548.36045  22679312.845    22679312.221    22679333.100
       200.000         146.000
  -4335794.75649  -3362586.72946  21922752.812    21922752.843    21922767.899
       224.000         176.000
 -11957277.98249  -9056501.63747  19076073.534    19076072.697    19076082.853
       238.000         206.000
 00  4 18 16 39 29.9930000  0  8G 9G 2G 4G24G 5G 8G26G 7
 -23085768.76549 -17957000.24247  20188132.026    20188131.615    20188143.157
       237.000         197.000
  -5833646.71549  -4538522.71647  19926517.909    19926517.080    19926528.492
       238.000         205.000
 -20192004.84649 -15710169.20547  19585881.145    19585881.097    19585893.260
       238.000         200.000
  -7183620.48949  -4690495.05445  22119474.553    22119474.046    22119494.799
       211.000         156.000
  -3758987.43849  -2916719.40945  23123533.212    23123532.465    23123549.996
       209.000         149.000
  13402373.36349  10443707.91745  22695225.854    22695225.320    22695246.220
       202.000         147.000
  -4295324.59549  -3331051.79546  21930454.269    21930454.263    21930469.375
       224.000         176.000
 -11947528.55249  -9048904.73947  19077928.817    19077927.996    19077938.181
       239.000         206.000
 00  4 18 16 39 59.9930000  0  8G 9G 2G 4G24G 5G 8G26G 7
 -23183957.86049 -18033511.19147  20169447.168    20169446.804    20169458.362
       237.000         198.000
  -5828191.79049  -4534272.21647  19927556.004    19927555.187    19927566.621
       238.000         205.000
 -20300593.23749 -15794783.48247  19565217.481    19565217.431    19565229.536
       238.000         201.000
  -7323105.44549  -4799184.37745  22092931.263    22092930.799    22092951.362
       214.000         157.000
  -3872945.29649  -3005517.70945  23101847.698    23101846.941    23101864.455
       210.000         150.000
  13486106.66149  10508954.15345  22711160.231    22711159.580    22711180.510
       202.000         146.000
  -4254635.37349  -3299346.17146  21938197.458    21938197.429    21938212.534
       224.000         175.000
 -11937508.72149  -9041097.14247  19079835.610    19079834.763    19079844.940
       239.000         206.000
 00  4 18 16 40 29.9930000  0  8G 9G 2G 4G24G 5G 8G26G 7
 -23281715.95849 -18109686.29947  20150844.321    20150843.993    20150855.567
       237.000         198.000
  -5822460.12549  -4529806.07147  19928646.709    19928645.927    19928657.410
       238.000         204.000
 -20408727.08049 -15879043.55547  19544640.284    19544640.220    19544652.316
       238.000         200.000
  -7462510.48449  -4907811.43645  22066403.086    22066402.556    22066423.149
       214.000         157.000
  -3986935.30249  -3094341.05145  23080156.206    23080155.515    23080172.801
       208.000         150.000
  13569971.15949  10574302.56845  22727119.412    22727118.732    22727140.195
       202.000         148.000
  -4213686.95649  -3267438.58946  21945990.002    21945989.922    21946005.024
       223.000         176.000
 -11927188.39049  -9033055.39147  19081799.591    19081798.728    19081808.873
       238.000         207.000
 00  4 18 16 40 59.9930000  0  8G 9G 2G 4G24G 5G 8G26G 7
 -23379058.66349 -18185537.72747  20132320.624    20132320.300    20132331.851
       238.000         198.000
  -5816477.43649  -4525144.32147  19929785.229    19929784.447    19929795.958
       238.000         204.000
 -20516418.49649 -15962958.88547  19524147.239    19524147.200    19524159.261
       238.000         201.000
  -7601863.21349  -5016397.75445  22039884.989    22039884.428    22039904.929
       213.000         159.000
  -4100975.81749  -3183203.75145  23058455.016    23058454.264    23058471.613
       207.000         148.000
  13653920.73949  10639717.31345  22743094.847    22743094.251    22743115.904
       205.000         148.000
  -4172525.04249  -3235364.62746  21953823.148    21953823.011    21953838.146
       223.000         176.000
 -11916582.43549  -9024791.07247  19083817.893    19083817.025    19083827.136
       239.000         207.000
 00  4 18 16 41 29.9930000  0  8G 9G 2G 4G24G 5G 8G26G 7
 -23475962.94649 -18261047.53247  20113880.331    20113879.994    20113891.548
       238.000         198.000
  -5810230.43849  -4520276.62147  19930974.084    19930973.297    19930984.786
       238.000         204.000
 -20623645.09449 -16046512.01747  19503742.688    19503742.649    19503754.665
       239.000         200.000
  -7741142.32749  -5124926.71445  22013380.832    22013380.381    22013400.831
       214.000         158.000
  -4215029.87149  -3272077.00845  23036751.209    23036750.408    23036767.960
       209.000         148.000
  13737961.96049  10705203.45445  22759087.725    22759086.965    22759108.969
       200.000         148.000
  -4131144.60049  -3203120.39046  21961697.797    21961697.640    21961712.898
       223.000         175.000
 -11905678.33449  -9016294.43847  19085892.913    19085892.055    19085902.170
       239.000         207.000
 00  4 18 16 41 59.9930000  0  8G 9G 2G 4G24G 5G 8G26G 7
 -23572425.21549 -18336212.91047  20095524.124    20095523.803    20095535.379
       238.000         198.000
  -5803730.86349  -4515212.10447  19932211.021    19932210.204    19932221.713
       238.000         204.000
 -20730426.16849 -16129717.99047  19483422.877    19483422.839    19483434.834
       238.000         201.000
  -7880337.74949  -5233390.48345  21986892.640    21986892.262    21986912.628
       215.000         160.000
  -4329074.87549  -3360943.21345  23015049.100    23015048.479    23015065.819
       209.000         148.000
  13822092.82749  10770759.41045  22775097.347    22775096.793    22775119.011
       201.000         148.000
  -4089552.24549  -3170711.03546  21969612.786    21969612.588    21969627.948
       223.000         175.000
 -11894467.77349  -9007559.00247  19088026.241    19088025.394    19088035.548
       239.000         207.000
 00  4 18 16 42 29.9930000  0  8G 9G 2G 4G24G 5G 8G26G 7
 -23668428.23349 -18411020.43347  20077255.274    20077254.962    20077266.572
       237.000         198.000
  -5796971.55849  -4509945.20547  19933497.325    19933496.507    19933508.068
       238.000         204.000
 -20836775.82349 -16212587.78847  19463185.097    19463185.075    19463197.088
       238.000         201.000
  -8019462.28149  -5341799.01745  21960417.992    21960417.617    21960437.918
       217.000         161.000
  -4443096.52449  -3449791.20945  22993351.535    22993350.767    22993368.254
       207.000         147.000
  13906313.86249  10836385.59245  22791124.405    22791123.820    22791146.313
       205.000         151.000
  -4047762.29549  -3138147.70746  21977565.391    21977565.188    21977580.587
       222.000         174.000
 -11882942.77749  -8998578.55047  19090219.422    19090218.570    19090228.734
       239.000         207.000
 00  4 18 16 42 59.9930000  0  8G 9G 2G 4G24G 5G 8G26G 7
 -23763982.18549 -18485478.03347  20059071.943    20059071.621    20059083.231
       237.000         198.000
  -5789967.43449  -4504487.54247  19934830.207    19934829.396    19934840.999
       237.000         204.000
 -20942703.13049 -16295128.48347  19443027.752    19443027.728    19443039.713
       239.000         201.000
  -8158520.29849  -5450155.73945  21933956.029    21933955.703    21933975.839
       216.000         161.000
  -4557096.63049  -3538622.45245  22971658.045    22971657.188    22971674.580
       203.000         146.000
  13990608.03949  10902068.82745  22807165.669    22807165.098    22807187.302
       206.000         148.000
  -4005806.59249  -3105455.21746  21985549.526    21985549.284    21985564.767
       223.000         174.000
 -11871129.58649  -8989373.54047  19092467.427    19092466.601    19092476.778
       240.000         207.000
 00  4 18 16 43 29.9930000  0  8G 9G 2G 4G24G 5G 8G26G 7
 -23859069.76749 -18559572.24147  20040977.409    20040977.074    20040988.648
       238.000         198.000
  -5782705.92449  -4498829.32147  19936212.059    19936211.269    19936222.909
       238.000         204.000
 -21048200.76549 -16377334.36347  19422952.180    19422952.175    19422964.091
       239.000         201.000
  -8297499.63949  -5558451.15445  21907509.000    21907508.627    21907528.807
       215.000         161.000
  -4671064.08549  -3627428.22245  22949970.643    22949969.884    22949987.272
       204.000         143.000
  14075001.03549  10967829.03345  22823225.761    22823225.051    22823247.369
       206.000         150.000
  -3963659.39349  -3072613.52046  21993570.097    21993569.816    21993585.353
       223.000         174.000
 -11859037.37649  -8979951.11447  19094768.523    19094767.697    19094777.890
       239.000         207.000
 00  4 18 16 43 59.9930000  0  8G 9G 2G 4G24G 5G 8G26G 7
 -23953699.48449 -18633309.65947  20022970.002    20022969.638    20022981.180
       237.000         198.000
  -5775183.48349  -4492967.77647  19937643.616    19937642.830    19937654.478
       237.000         204.000
 -21153259.63549 -16459198.34847  19402960.089    19402960.072    19402971.929
       238.000         201.000
  -8436389.15949  -5666676.55545  21881079.134    21881078.758    21881098.771
       218.000         161.000
  -4785001.78149  -3716210.79145  22928288.914    22928288.151    22928305.534
       202.000         143.000
  14159487.38749  11033661.96945  22839303.433    22839302.773    22839325.207
       206.000         151.000
  -3921306.50449  -3039611.55246  22001629.703    22001629.435    22001645.097
       221.000         173.000
 -11846675.32849  -8970318.42247  19097120.957    19097120.150    19097130.360
       240.000         207.000
 00  4 18 16 44 29.9930000  0  8G 9G 2G 4G24G 5G 8G26G 7
 -24047892.54849 -18706706.83347  20005045.582    20005045.226    20005056.811
       237.000         199.000
  -5767400.95349  -4486903.56747  19939124.676    19939123.881    19939135.568
       237.000         204.000
 -21257866.30949 -16540709.97447  19383054.035    19383054.026    19383065.867
       238.000         201.000
  -8575204.20449  -5774843.93245  21854663.428    21854662.913    21854682.876
       216.000         162.000
  -4898938.85949  -3804992.85445  22906607.236    22906606.601    22906624.236
       202.000         142.000
  14244051.97749  11099555.85045  22855396.081    22855395.454    22855417.844
       207.000         150.000
  -3878764.03149  -3006461.86846  22009725.422    22009725.153    22009740.920
       221.000         173.000
 -11834075.60949  -8960500.53647  19099518.675    19099517.879    19099528.094
       240.000         207.000
 00  4 18 16 44 59.9930000  0  8G 9G 2G 4G24G 5G 8G26G 7
 -24141637.39449 -18779754.74047  19987206.391    19987206.061    19987217.714
       237.000         199.000
  -5759335.36849  -4480618.79847  19940659.540    19940658.748    19940670.493
       237.000         204.000
 -21361978.39549 -16621836.20347  19363242.071    19363242.072    19363253.931
       239.000         201.000
  -8713912.07649  -5882927.80345  21828268.003    21828267.514    21828287.338
       218.000         162.000
  -5012867.48749  -3893768.34245  22884927.375    22884926.772    22884944.471
       203.000         143.000
  14328718.52649  11165529.20745  22871508.136    22871507.579    22871529.778
       208.000         152.000
  -3836012.14249  -2973148.99246  22017861.016    22017860.738    22017876.545
       222.000         173.000
 -11821224.79849  -8950486.99647  19101964.170    19101963.370    19101973.619
       240.000         207.000
 00  4 18 16 45 29.9930000  0  8G 9G 2G 4G24G 5G 8G26G 7
 -24234930.66449 -18852450.77647  19969453.205    19969452.887    19969464.547
       238.000         199.000
  -5750986.08749  -4474112.96347  19942248.414    19942247.648    19942259.419
       236.000         203.000
 -21465592.14149 -16702574.11247  19343524.936    19343524.962    19343536.844
       239.000         202.000
  -8852508.69149  -5990924.96445  21801893.716    21801893.281    21801913.087
       217.000         162.000
  -5126806.03249  -3982551.55945  22863245.683    22863245.063    22863262.760
       202.000         142.000
  14413473.85349  11231571.70145  22887637.057    22887636.467    22887658.618
       208.000         152.000
  -3793046.85149  -2939669.84746  22026037.177    22026036.941    22026052.789
       222.000         173.000
 -11808124.86849  -8940279.33347  19104457.101    19104456.286    19104466.531
       240.000         207.000
 00  4 18 16 45 59.9930000  0  8G 9G 2G 4G24G 5G 8G26G 7
 -24327787.53949 -18924806.76747  19951783.116    19951782.789    19951794.417
       238.000         199.000
  -5742364.30349  -4467394.79247  19943889.097    19943888.355    19943900.179
       237.000         204.000
 -21568712.17649 -16782927.31647  19323901.757    19323901.785    19323913.696
       239.000         202.000
  -8991009.57249  -6098847.53445  21775537.706    21775537.284    21775557.071
       216.000         162.000
  -5240776.58449  -4071359.70745  22841557.647    22841557.103    22841574.756
       200.000         142.000
  14498304.44349  11297672.85145  22903780.351    22903779.677    22903801.804
       208.000         150.000
  -3749899.45049  -2906048.79946  22034248.027    22034247.828    22034263.772
       223.000         173.000
 -11794777.73449  -8929879.04647  19106997.018    19106996.222    19107006.511
       239.000         207.000
 00  4 18 16 46 29.9930000  0  8G 9G 2G 4G24G 5G 8G26G 7
 -24420168.40349 -18996791.83647  19934203.599    19934203.291    19934214.873
       238.000         200.000
  -5733447.62549  -4460446.83547  19945585.905    19945585.182    19945597.069
       237.000         204.000
 -21671330.91349 -16862889.89547  19304373.997    19304374.026    19304385.945
       239.000         202.000
  -9129410.90449  -6206692.50945  21749200.590    21749200.228    21749219.903
       217.000         162.000
  -5354775.66049  -4160190.06345  22819864.208    22819863.651    22819881.502
       203.000         142.000
  14583238.05649  11363854.25045  22919943.247    22919942.477    22919964.791
       209.000         151.000
  -3706579.23849  -2872293.09046  22042491.768    22042491.594    22042507.617
       221.000         172.000
 -11781161.75549  -8919269.26847  19109588.064    19109587.265    19109597.608
       239.000         207.000
 00  4 18 16 46 59.9930000  0  8G 9G 2G 4G24G 5G 8G26G 7
 -24512053.84649 -19068390.86347  19916718.405    19916718.107    19916729.655
       238.000         200.000
  -5724230.25849  -4453264.58147  19947340.000    19947339.267    19947351.194
       237.000         203.000
 -21773456.51549 -16942468.22647  19284940.117    19284940.124    19284952.070
       239.000         203.000
  -9267699.58649  -6314449.70345  21722884.805    21722884.617    21722904.284
       216.000         161.000
  -5468780.66049  -4249025.05945  22798169.812    22798169.362    22798187.284
       201.000         140.000
  14668277.48649  11430118.11345  22936126.124    22936125.399    22936147.832
       210.000         155.000
  -3663061.06549  -2838383.14046  22050773.156    22050773.021    22050789.194
       221.000         172.000
 -11767259.64849  -8908436.53347  19112233.555    19112232.777    19112243.162
       238.000         207.000
 00  4 18 16 47 29.9930000  0  8G 9G 2G 4G24G 5G 8G26G 7
 -24603479.81049 -19139631.85547  19899320.645    19899320.341    19899331.897
       238.000         200.000
  -5714756.93949  -4445882.88047  19949142.834    19949142.068    19949154.008
       236.000         203.000
 -21875146.80449 -17021707.34947  19265589.062    19265589.062    19265601.045
       239.000         202.000
  -9405910.29649  -6422146.13045  21696583.940    21696583.789    21696603.482
       215.000         162.000
  -5582813.49549  -4337881.75145  22776469.844    22776469.552    22776487.492
       203.000         141.000
  14753375.86949  11496427.91045  22952320.327    22952319.690    22952342.229
       209.000         153.000
  -3619392.63249  -2804356.10546  22059083.216    22059083.111    22059099.279
       220.000         172.000
 -11753121.53549  -8897419.89547  19114923.945    19114923.174    19114933.600
       239.000         207.000
 00  4 18 16 47 59.9930000  0  8G 9G 2G 4G24G 5G 8G26G 7
 -24694447.74849 -19210515.94047  19882010.054    19882009.722    19882021.306
       238.000         200.000
  -5705015.97849  -4438292.63047  19950996.534    19950995.788    19951007.756
       236.000         202.000
 -21976391.01049 -17100598.88947  19246322.853    19246322.867    19246334.874
       240.000         203.000
  -9544022.93949  -6529766.13145  21670301.874    21670301.631    21670321.304
       213.000         162.000
  -5696854.63649  -4426744.91445  22754768.520    22754767.899    22754786.133
       205.000         143.000
  14838550.60549  11562797.19645  22968528.971    22968528.362    22968551.060
       209.000         152.000
  -3575568.59149  -2770207.81446  22067422.826    22067422.764    22067439.022
       220.000         170.000
 -11738732.11849  -8886207.43747  19117662.196    19117661.436    19117671.900
       239.000         206.000
 00  4 18 16 48 29.9930000  0  8G 9G 2G 4G24G 5G 8G26G 7
 -24784928.01249 -19281020.02047  19864792.252    19864791.909    19864803.510
       237.000         200.000
  -5694977.83249  -4430470.81547  19952906.804    19952906.064    19952918.043
       236.000         202.000
 -22077155.31949 -17179116.47847  19227147.988    19227148.002    19227159.986
       240.000         203.000
  -9682000.61849  -6637280.95046  21644045.293    21644045.145    21644064.885
       214.000         163.000
  -5810859.78449  -4515580.02445  22733073.896    22733073.307    22733091.719
       204.000         143.000
  14923807.19049  11629230.25745  22984753.281    22984752.596    22984775.527
       207.000         151.000
  -3531562.15649  -2735917.39746  22075797.166    22075797.127    22075813.464
       220.000         170.000
 -11724067.44849  -8874780.49147  19120452.897    19120452.113    19120462.573
       239.000         207.000
 00  4 18 16 48 59.9930000  0  8G 9G 2G 4G24G 5G 8G26G 7
 -24874944.80049 -19351162.95347  19847662.580    19847662.237    19847673.836
       238.000         200.000
  -5684662.95549  -4422433.36747  19954869.764    19954869.019    19954880.977
       236.000         202.000
 -22177438.56349 -17257259.22447  19208064.710    19208064.688    19208076.627
       240.000         203.000
  -9819838.25549  -6744686.65346  21617815.505    21617815.361    21617835.063
       216.000         164.000
  -5924824.12649  -4604383.35745  22711387.190    22711386.442    22711404.857
       204.000         143.000
  15009126.89849  11695712.50645  23000989.469    23000988.934    23001011.952
       207.000         151.000
  -3487381.44349  -2701491.18846  22084204.601    22084204.667    22084221.047
       221.000         170.000
 -11709141.21849  -8863149.72947  19123293.335    19123292.563    19123303.044
       239.000         207.000
 00  4 18 16 49 29.9930000  0  8G 9G 2G 4G24G 5G 8G26G 7
 -24964517.88149 -19420960.13147  19830617.354    19830617.021    19830628.626
       238.000         201.000
  -5674082.30649  -4414188.82247  19956883.309    19956882.584    19956894.520
       236.000         202.000
 -22277220.50749 -17335011.34947  19189076.767    19189076.771    19189088.669
       240.000         203.000
  -9957538.93749  -6851985.63046  21591611.933    21591611.664    21591631.204
       217.000         164.000
  -6038760.84149  -4693165.15945  22689705.831    22689705.070    22689723.261
       207.000         144.000
  15094509.04149  11762243.41345  23017237.592    23017237.069    23017260.225
       208.000         151.000
  -3443050.02049  -2666947.52346  22092640.762    22092640.830    22092657.250
       220.000         169.000
 -11693943.18349  -8851307.16647  19126185.471    19126184.663    19126195.182
       239.000         207.000
 00  4 18 16 49 59.9930000  0  8G 9G 2G 4G24G 5G 8G26G 7
 -25053648.35949 -19490412.42847  19813656.363    19813656.023    19813667.600
       238.000         200.000
  -5663236.23449  -4405737.45747  19958947.413    19958946.634    19958958.580
       236.000         201.000
 -22376489.66849 -17412363.90947  19170186.441    19170186.443    19170198.344
       240.000         203.000
 -10095120.99049  -6959192.15546  21565430.807    21565430.514    21565450.000
       216.000         164.000
  -6152695.63749  -4781945.45145  22668024.877    22668024.180    22668042.004
       209.000         144.000
  15179935.41849  11828808.76145  23033494.136    23033493.551    23033516.978
       210.000         151.000
  -3398555.04549  -2632276.42646  22101108.112    22101108.223    22101124.661
       220.000         170.000
 -11678469.37849  -8839249.72247  19129130.101    19129129.309    19129139.807
       239.000         207.000
 00  4 18 16 50 29.9930000  0  8G 9G 2G 4G24G 5G 8G26G 7
 -25142318.46049 -19559505.99447  19796782.944    19796782.672    19796794.253
       238.000         201.000
  -5652126.71549  -4397080.81547  19961061.578    19961060.794    19961072.779
       235.000         201.000
 -22475250.43149 -17489320.32147  19151392.827    19151392.857    19151404.730
       239.000         203.000
 -10232598.47949  -7066317.21246  21539269.532    21539269.317    21539288.640
       213.000         164.000
  -6266627.58449  -4870723.54145  22646344.222    22646343.503    22646361.473
       208.000         144.000
  15265398.02849  11895402.37845  23049757.731    23049757.073    23049780.547
       209.000         153.000
  -3353904.80049  -2597484.33046  22109605.117    22109605.122    22109621.597
       219.000         169.000
 -11662726.91349  -8826982.92747  19132125.905    19132125.092    19132135.573
       240.000         207.000
 00  4 18 16 50 59.9930000  0  8G 9G 2G 4G24G 5G 8G26G 7
 -25230535.66049 -19628246.64747  19779995.815    19779995.544    19780007.097
       238.000         202.000
  -5640755.82249  -4388220.50247  19963225.451    19963224.675    19963236.728
       235.000         201.000
 -22573515.63749 -17565890.57947  19132693.541    19132693.566    19132705.409
       240.000         203.000
 -10369983.20749  -7173369.98246  21513126.011    21513125.766    21513144.882
       214.000         165.000
  -6380574.97549  -4959513.66245  22624660.644    22624660.062    22624677.889
       208.000         143.000
  15350896.01449  11962023.54045  23066028.023    23066027.395    23066050.909
       213.000         154.000
  -3309102.90149  -2562574.06646  22118130.712    22118130.806    22118147.417
       219.000         169.000
 -11646720.81549  -8814510.69947  19135171.744    19135170.973    19135181.482
       239.000         207.000
 00  4 18 16 51 29.9930000  0  8G 9G 2G 4G24G 5G 8G26G 7
 -25318270.70249 -19696611.59447  19763300.431    19763300.116    19763311.669
       238.000         202.000
  -5629095.71049  -4379134.82547  19965444.325    19965443.598    19965455.695
       235.000         200.000
 -22671267.23949 -17642060.63647  19114092.009    19114091.990    19114103.865
       239.000         203.000
 -10507268.39249  -7280345.18646  21487001.364    21487001.116    21487020.090
       216.000         166.000
  -6494526.87949  -5048307.27045  22602976.299    22602975.504    22602993.398
       209.000         143.000
  15436435.79249  12028677.31745  23082306.422    23082305.773    23082329.124
       211.000         151.000
  -3264129.99649  -2527530.54646  22126688.973    22126689.052    22126705.819
       218.000         168.000
 -11630440.48649  -8801824.79347  19138269.847    19138269.056    19138279.616
       240.000         207.000
 00  4 18 16 51 59.9930000  0  8G 9G 2G 4G24G 5G 8G26G 7
 -25405503.76549 -19764585.38247  19746700.566    19746700.220    19746711.759
       239.000         202.000
  -5617154.16549  -4369829.84647  19967716.831    19967716.103    19967728.234
       235.000         200.000
 -22768524.06749 -17717845.15747  19095584.615    19095584.624    19095596.500
       241.000         203.000
 -10644457.28149  -7387245.34546  21460895.091    21460894.666    21460913.644
       215.000         165.000
  -6608496.13549  -5137114.39245  22581288.566    22581287.866    22581305.598
       207.000         143.000
  15522000.61249  12095350.57745  23098589.472    23098588.802    23098612.246
       211.000         150.000
  -3219000.06849  -2492364.67346  22135277.169    22135277.232    22135294.156
       219.000         170.000
 -11613917.71749  -8788949.95947  19141414.095    19141413.304    19141423.896
       240.000         207.000
 00  4 18 16 52 29.9930000  0  7G 9G 2G 4G24G 5G26G 7
 -25492219.01649 -19832155.68847  19730199.202    19730198.854    19730210.389
       238.000         201.000
  -5604908.69549  -4360288.05247  19970047.166    19970046.453    19970058.576
       235.000         200.000
 -22865261.83549 -17793225.21547  19077176.040    19077176.013    19077187.855
       239.000         203.000
 -10781508.52149  -7494038.24646  21434814.942    21434814.480    21434833.478
       217.000         166.000
  -6722439.32549  -5225901.19445  22559605.730    22559605.163    22559622.847
       210.000         145.000
  -3173711.73849  -2457075.36546  22143895.570    22143895.563    22143912.631
       220.000         169.000
 -11597130.11549  -8775868.77647  19144608.707    19144607.927    19144618.527
       240.000         208.000
 00  4 18 16 52 59.9930000  0  7G 9G 2G 4G24G 5G26G 7
 -25578429.89349 -19899332.96947  19713793.800    19713793.476    19713804.976
       238.000         201.000
  -5592375.36149  -4350521.94347  19972432.311    19972431.587    19972443.725
       235.000         200.000
 -22961486.32749 -17868205.31747  19058865.089    19058865.091    19058876.911
       239.000         203.000
 -10918411.97749  -7600716.00246  21408762.942    21408762.418    21408781.393
       216.000         166.000
  -6836363.00549  -5314672.78145  22537926.780    22537926.263    22537943.923
       212.000         146.000
  -3128265.96649  -2421663.36746  22152543.896    22152543.843    22152560.943
       221.000         170.000
 -11580088.81849  -8762589.90247  19147851.655    19147850.880    19147861.482
       240.000         208.000
 00  4 18 16 53 29.9930000  0  7G 9G 2G 4G24G 5G26G 7
 -25664146.21549 -19966124.89447  19697482.551    19697482.199    19697493.676
       238.000         202.000
  -5579583.90649  -4340554.70847  19974866.583    19974865.812    19974877.979
       235.000         200.000
 -23057216.19049 -17942800.00347  19040648.256    19040648.276    19040660.086
       239.000         203.000
 -11055158.14849  -7707271.20446  21382740.721    21382740.236    21382759.223
       217.000         167.000
  -6950287.52049  -5403445.03045  22516247.747    22516247.191    22516264.595
       211.000         147.000
  -3082672.21649  -2386136.08946  22161220.395    22161220.275    22161237.461
       220.000         170.000
 -11562810.08549  -8749126.01947  19151139.821    19151139.013    19151149.609
       240.000         208.000
 00  4 18 16 53 59.9930000  0  7G 9G 2G 4G24G 5G26G 7
 -25749375.60849 -20032537.38847  19681263.919    19681263.565    19681275.056
       238.000         202.000
  -5566547.08649  -4330396.27547  19977347.513    19977346.724    19977358.960
       235.000         199.000
 -23152459.84449 -18017015.81847  19022523.971    19022524.001    19022535.819
       239.000         203.000
 -11191739.92249  -7813698.29046  21356749.720    21356749.320    21356768.319
       216.000         167.000
  -7064219.19049  -5492222.83545  22494567.084    22494566.302    22494584.111
       211.000         148.000
  -3036947.78649  -2350506.98546  22169921.737    22169921.640    22169938.870
       221.000         171.000
 -11545309.35049  -8735489.14147  19154470.163    19154469.354    19154479.969
       240.000         208.000
 00  4 18 16 54 29.9930000  0  7G 9G 2G 4G24G 5G26G 7
 -25834138.91749 -20098586.69947  19665133.981    19665133.607    19665145.120
       238.000         202.000
  -5553264.78849  -4320046.55647  19979875.110    19979874.339    19979886.647
       234.000         199.000
 -23247228.59649 -18090861.58147  19004490.053    19004490.078    19004501.948
       239.000         203.000
 -11328172.89549  -7920009.44146  21330787.099    21330786.770    21330805.683
       217.000         166.000
  -7178161.05149  -5581008.59145  22472884.609    22472883.770    22472901.569
       213.000         148.000
  -2991102.87649  -2314783.98246  22178645.987    22178645.917    22178663.216
       222.000         170.000
 -11527597.40249  -8721687.67847  19157840.638    19157839.843    19157850.490
       241.000         208.000
 00  4 18 16 54 59.9930000  0  7G 9G 2G 4G24G 5G26G 7
 -25918414.41649 -20164255.91247  19649096.790    19649096.484    19649108.023
       239.000         202.000
  -5539726.01449  -4309496.99847  19982451.510    19982450.759    19982463.080
       235.000         199.000
 -23341513.94649 -18164330.67047  18986548.105    18986548.112    18986560.047
       239.000         203.000
 -11464444.34149  -8026194.72646  21304855.384    21304855.017    21304873.832
       216.000         168.000
  -7292124.31849  -5669811.02145  22451198.148    22451197.464    22451214.911
       212.000         149.000
  -2945129.76349  -2278961.09946  22187394.662    22187394.637    22187411.959
       220.000         168.000
 -11509673.37949  -8707720.97247  19161251.521    19161250.725    19161261.385
       240.000         208.000
 00  4 18 16 55 29.9930000  0  7G 9G 2G 4G24G 5G26G 7
 -26002184.40449 -20229531.22047  19633155.850    19633155.530    19633167.075
       239.000         202.000
  -5525887.31749  -4298713.73347  19985085.040    19985084.302    19985096.626
       235.000         200.000
 -23435281.84349 -18237396.54947  18968704.571    18968704.600    18968716.607
       238.000         203.000
 -11600549.14749  -8132250.16946  21278955.423    21278954.953    21278973.687
       218.000         167.000
  -7406096.52249  -5758620.38945  22429509.816    22429509.169    22429526.734
       212.000         149.000
  -2899027.63149  -2243037.66746  22196167.812    22196167.779    22196185.256
       219.000         168.000
 -11491521.90349  -8693577.03047  19164705.675    19164704.884    19164715.574
       240.000         208.000
 00  4 18 16 55 59.9930000  0  7G 9G 2G 4G24G 5G26G 7
 -26085478.73449 -20294435.88647  19617305.432    19617305.112    19617316.659
       239.000         202.000
  -5511759.87449  -4287705.46947  19987773.548    19987772.811    19987785.143
       235.000         200.000
 -23528552.34049 -18310074.83647  18950955.714    18950955.771    18950967.777
       239.000         204.000
 -11736540.44049  -8238217.15446  21253076.977    21253076.553    21253095.073
       216.000         168.000
  -7520089.40249  -5847445.89145  22407817.570    22407816.858    22407834.646
       212.000         151.000
  -2852847.01649  -2207053.07646  22204955.747    22204955.795    22204973.426
       218.000         167.000
 -11473171.77849  -8679278.29747  19168197.660    19168196.847    19168207.561
       240.000         208.000
 00  4 18 16 56 29.9930000  0  7G 9G 2G 4G24G 5G26G 7
 -26168275.87949 -20358953.13647  19601549.658    19601549.332    19601560.869
       239.000         203.000
  -5497307.33649  -4276443.88647  19990523.891    19990523.157    19990535.545
       235.000         199.000
 -23621296.96349 -18382343.34847  18933307.074    18933307.089    18933319.046
       240.000         204.000
 -11872389.12949  -8344073.03346  21227225.586    21227225.221    21227243.629
       218.000         168.000
  -7634066.99849  -5936259.49545  22386128.153    22386127.525    22386145.325
       213.000         151.000
  -2806558.98949  -2170984.78146  22213764.233    22213764.334    22213781.969
       218.000         166.000
 -11454574.50849  -8664786.98347  19171736.621    19171735.817    19171746.570
       240.000         208.000
 00  4 18 16 56 59.9930000  0  7G 9G 2G 4G24G 5G26G 7
 -26250588.39749 -20423092.75647  19585886.111    19585885.768    19585897.296
       240.000         203.000
  -5482539.62549  -4264936.71647  19993334.167    19993333.473    19993345.908
       235.000         199.000
 -23713505.66249 -18454194.25547  18915760.364    18915760.387    18915772.325
       240.000         204.000
 -12008090.31949  -8449813.97846  21201402.285    21201401.911    21201420.299
       216.000         167.000
  -7748033.92949  -6025064.77945  22364440.910    22364440.256    22364457.973
       213.000         153.000
  -2760166.51149  -2134835.11546  22222592.698    22222592.782    22222610.478
       218.000         166.000
 -11435729.79549  -8650102.85847  19175322.675    19175321.866    19175332.639
       240.000         208.000
 00  4 18 16 57 29.9930000  0  7G 9G 2G 4G24G 5G26G 7
 -26332407.14249 -20486847.62047  19570316.526    19570316.207    19570327.674
       239.000         203.000
  -5467450.09449  -4253178.77947  19996205.711    19996205.007    19996217.470
       234.000         198.000
 -23805160.94849 -18525613.92747  18898318.987    18898319.011    18898330.905
       240.000         204.000
 -12143634.47949  -8555432.57646  21175608.757    21175608.479    21175626.857
       218.000         167.000
  -7861956.72149  -6113835.68845  22342762.029    22342761.419    22342779.030
       214.000         153.000
  -2713660.15249  -2098596.69746  22231442.840    22231442.884    22231460.732
       219.000         167.000
 -11416625.81249  -8635216.70147  19178958.064    19178957.275    19178968.040
       240.000         208.000
 00  4 18 16 57 59.9930000  0  7G 9G 2G 4G24G 5G26G 7
 -26413717.90949 -20550206.65747  19554843.663    19554843.311    19554854.692
       239.000         203.000
  -5452060.27549  -4241186.84947  19999134.428    19999133.687    19999146.217
       233.000         198.000
 -23896259.34449 -18596599.66247  18880983.555    18880983.552    18880995.447
       241.000         204.000
 -12278995.78049  -8660908.70146  21149850.145    21149849.858    21149868.173
       218.000         167.000
  -7975816.13149  -6202557.20145  22321095.261    22321094.676    22321112.218
       215.000         155.000
  -2667020.20649  -2062254.19446  22240318.371    22240318.372    22240336.352
       220.000         167.000
 -11397250.58649  -8620119.19147  19182645.110    19182644.284    19182655.094
       240.000         207.000
 00  4 18 16 58 29.9930000  0  7G 9G 2G 4G24G 5G26G 7
 -26494543.45349 -20613187.60447  19539463.090    19539462.751    19539474.080
       239.000         203.000
  -5436406.19749  -4228989.00747  20002113.396    20002112.638    20002125.189
       234.000         197.000
 -23986815.51449 -18667162.88047  18863751.246    18863751.251    18863763.140
       241.000         204.000
 -12414169.01849  -8766238.29446  21124127.357    21124127.091    21124145.318
       219.000         169.000
  -8089644.50449  -6291254.54845  22299434.387    22299433.710    22299451.376
       215.000         156.000
  -2620257.75549  -2025816.22546  22249217.256    22249217.208    22249235.318
       220.000         167.000
 -11377635.43949  -8604834.73147  19186377.747    19186376.948    19186387.767
       240.000         208.000
 00  4 18 16 58 59.9930000  0  7G 9G 2G 4G24G 5G26G 7
 -26574864.08749 -20675775.11147  19524178.557    19524178.235    19524189.565
       239.000         204.000
  -5420481.95049  -4216580.64847  20005143.815    20005143.076    20005155.593
       233.000         197.000
 -24076813.24449 -18737290.95447  18846625.254    18846625.254    18846637.124
       241.000         203.000
 -12549143.91549  -8871413.34046  21098442.325    21098442.039    21098460.248
       219.000         169.000
  -8203432.50549  -6379920.43745  22277781.166    22277780.529    22277798.055
       214.000         156.000
  -2573361.60149  -1989274.07846  22258141.523    22258141.453    22258159.769
       219.000         167.000
 -11357781.62749  -8589364.29947  19190155.875    19190155.071    19190165.903
       240.000         208.000
 00  4 18 16 59 29.9930000  0  7G 9G 2G 4G24G 5G26G 7
 -26654668.40749 -20737960.30047  19508992.302    19508991.981    19509003.330
       239.000         204.000
  -5404308.40449  -4203978.02647  20008221.643    20008220.917    20008233.459
       233.000         196.000
 -24166280.18749 -18807005.43047  18829600.321    18829600.310    18829612.103
       241.000         204.000
 -12683938.06049  -8976447.54146  21072791.768    21072791.463    21072809.539
       221.000         171.000
  -8317198.14349  -6468568.90145  22256132.224    22256131.612    22256149.138
       214.000         155.000
  -2526351.83249  -1952643.38946  22267087.343    22267087.351    22267105.791
       219.000         165.000
 -11337703.61949  -8573719.17147  19193976.700    19193975.884    19193986.710
       240.000         208.000
 00  4 18 16 59 59.9930000  0  7G 9G 2G 4G24G 5G26G 7
 -26733947.73249 -20799736.39647  19493905.994    19493905.641    19493917.013
       239.000         204.000
  -5387876.15149  -4191173.81747  20011348.635    20011347.928    20011360.559
       232.000         196.000
 -24255213.28149 -18876303.91347  18812676.938    18812676.928    18812688.681
       242.000         203.000
 -12818551.31049  -9081340.80546  21047175.587    21047175.311    21047193.260
       221.000         172.000
  -8430954.11249  -6557209.83045  22234485.106    22234484.410    22234501.899
       213.000         154.000
  -2479211.32949  -1915910.84246  22276058.158    22276058.121    22276076.640
       218.000         164.000
 -11317393.21249  -8557892.95247  19197841.741    19197840.920    19197851.745
       241.000         208.000
 00  4 18 17  0 29.9930000  0  7G 9G 2G 4G24G 5G26G 7
 -26812690.26149 -20861094.21247  19478921.794    19478921.415    19478932.799
       239.000         205.000
  -5371158.09049  -4178146.90547  20014530.042    20014529.358    20014542.070
       233.000         196.000
 -24343604.82149 -18945180.41347  18795856.587    18795856.562    18795868.298
       241.000         203.000
 -12952995.81649  -9186102.57846  21021591.646    21021591.302    21021609.104
       223.000         173.000
  -8544706.69349  -6645848.10145  22212838.461    22212837.902    22212855.305
       215.000         155.000
  -2431945.56249  -1879080.69746  22285052.723    22285052.720    22285071.283
       216.000         163.000
 -11296859.06749  -8541892.39147  19201749.379    19201748.552    19201759.333
       241.000         208.000
 00  4 18 17  0 59.9930000  0  7G 9G 2G 4G24G 5G26G 7
 -26890878.82649 -20922020.36947  19464042.927    19464042.566    19464053.993
       239.000         205.000
  -5354158.75749  -4164900.81847  20017765.019    20017764.342    20017777.089
       233.000         196.000
 -24431467.46349 -19013644.78647  18779136.824    18779136.835    18779148.564
       241.000         203.000
 -13087288.15649  -9290745.78946  20996036.659    20996036.234    20996053.971
       223.000         173.000
  -8658468.83249  -6734493.82545  22191190.243    22191189.593    22191206.946
       212.000         155.000
  -2384567.37049  -1842162.94646  22294068.675    22294068.737    22294087.291
       217.000         163.000
 -11276104.50049  -8525720.07747  19205698.933    19205698.098    19205708.877
       241.000         208.000
 00  4 18 17  1 29.9930000  0  7G 9G 2G 4G24G 5G26G 7
 -26968485.37949 -20982493.00747  19449274.871    19449274.555    19449285.991
       240.000         205.000
  -5336861.02049  -4151422.21547  20021056.820    20021056.134    20021068.858
       234.000         196.000
 -24518779.41049 -19081680.03947  18762521.909    18762521.921    18762533.652
       241.000         203.000
 -13221396.52049  -9395245.65246  20970516.549    20970516.116    20970533.863
       223.000         174.000
  -8772228.96449  -6823137.96045  22169542.280    22169541.638    22169558.975
       214.000         156.000
  -2337063.22549  -1805147.05446  22303108.676    22303108.687    22303127.293
       217.000         164.000
 -11255112.74849  -8509362.94447  19209693.581    19209692.754    19209703.549
       241.000         208.000
 00  4 18 17  1 59.9930000  0  7G 9G 2G 4G24G 5G26G 7
 -27045539.37449 -21042535.07747  19434612.074    19434611.703    19434623.117
       240.000         205.000
  -5319264.13749  -4137710.49847  20024405.561    20024404.839    20024417.525
       234.000         196.000
 -24605544.81849 -19149289.41947  18746011.007    18746010.987    18746022.733
       241.000         203.000
 -13355322.73649  -9499603.57146  20945031.050    20945030.640    20945048.385
       223.000         174.000
  -8885995.64349  -6911787.21145  22147893.127    22147892.480    22147909.732
       215.000         156.000
  -2289447.02449  -1768043.84146  22312169.958    22312169.938    22312188.661
       217.000         163.000
 -11233908.16349  -8492839.96847  19213728.757    19213727.922    19213738.756
       240.000         208.000
 00  4 18 17  2 29.9930000  0  7G 9G 2G 4G24G 5G26G 7
 -27122075.31249 -21102173.46647  19420047.815    19420047.459    19420058.850
       240.000         205.000
  -5301396.30949  -4123787.65847  20027805.846    20027805.102    20027817.789
       234.000         195.000
 -24691788.81249 -19216492.50347  18729599.328    18729599.306    18729610.982
       242.000         203.000
 -13489078.46549  -9603828.65246  20919578.057    20919577.632    20919595.356
       224.000         174.000
  -8999791.30149  -7000459.02245  22126238.434    22126237.745    22126254.985
       217.000         157.000
  -2241776.63249  -1730898.40346  22321241.518    22321241.506    22321260.328
       218.000         165.000
 -11212524.76649  -8476177.66347  19217797.934    19217797.115    19217807.985
       241.000         208.000
 00  4 18 17  2 59.9930000  0  7G 9G 2G 4G24G 5G26G 7
 -27198079.83149 -21161397.76847  19405584.637    19405584.300    19405595.675
       240.000         205.000
  -5283230.02749  -4109632.26447  20031262.917    20031262.152    20031274.827
       234.000         195.000
 -24777475.92949 -19283261.65647  18713293.643    18713293.595    18713305.246
       241.000         203.000
 -13622620.99849  -9707887.61646  20894165.637    20894165.216    20894182.888
       224.000         174.000
  -9113578.54849  -7089124.29645  22104585.423    22104584.738    22104601.880
       215.000         159.000
  -2194028.28749  -1693692.21246  22330328.064    22330328.053    22330346.799
       217.000         163.000
 -11190925.43249  -8459347.09947  19221908.221    19221907.379    19221918.263
       241.000         208.000
 00  4 18 17  3 29.9920000  0  7G 9G 2G 4G24G 5G26G 7
 -27273595.95849 -21220241.50247  19391214.410    19391214.087    19391225.443
       241.000         205.000
  -5264764.03849  -4095243.32547  20034777.053    20034776.273    20034788.937
       234.000         195.000
 -24862599.32949 -19349591.54047  18697095.150    18697095.123    18697106.762
       241.000         204.000
 -13755959.02349  -9811787.22246  20868792.258    20868791.774    20868809.346
       225.000         175.000
  -9227349.38049  -7177776.77645  22082935.477    22082934.792    22082951.822
       217.000         160.000
  -2146220.20649  -1656439.48046  22339426.004    22339425.895    22339444.610
       218.000         163.000
 -11169133.54349  -8442366.49447  19226055.110    19226054.288    19226065.168
       241.000         208.000
 00  4 18 17  3 59.9920000  0  7G 9G 2G 4G24G 5G26G 7
 -27348632.44249 -21278711.49447  19376935.529    19376935.134    19376946.468
       240.000         206.000
  -5245988.41549  -4080613.11447  20038350.129    20038349.312    20038361.972
       234.000         195.000
 -24947158.24149 -19415481.56047  18681004.092    18681004.088    18681015.706
       241.000         204.000
 -13889098.04149  -9915531.74746  20843456.716    20843456.246    20843473.664
       225.000         176.000
  -9341103.06449  -7266415.89045  22061288.774    22061288.081    22061305.175
       216.000         160.000
  -2098353.25749  -1619140.87946  22348535.153    22348534.974    22348553.627
       217.000         163.000
 -11147144.34849  -8425232.14047  19230239.616    19230238.796    19230249.648
       241.000         208.000
